[[{"header":{"parameterUnit":"m.s-1","parameterCategory":1,"la1":31.0,"la2":29.5877,"lo1":-88.7671,"lo2":-86.6584,"dy":0.0162,"dx":0.0185,"nx":115,"ny":88,"refTime":"2023-11-20T12:00:00:Z","depth":0,"parameterNumber":2,"parameterNumberName":"U-component_of_WINDS"},"data":[0.0,0.0,0.0,0.0,0.0,0.0,0.0,0.0,0.0,0.0,0.0,0.0,0.0,0.0,0.0,0.0,0.0,0.0,0.0,0.0,0.0,0.0,0.0,0.0,0.0,0.0,0.0,0.0,0.0,0.0,0.0,0.0,0.0,0.0,0.0,0.0,0.0,0.0,0.0,0.0,0.0,0.0,0.0,0.0,0.0,0.0,0.0,0.0,0.0,0.0,0.0,0.0,0.0,0.0,0.0,0.0,0.0,0.0,0.0,0.0,0.0,0.0,0.0,0.0,0.0,0.0,0.0,0.0,0.0,0.0,0.0,0.0,0.0,0.0,0.0,0.0,0.0,0.0,0.0,0.0,0.0,0.0,0.0,0.0,0.0,0.0,0.0,0.0,0.0,0.0,0.0,0.0,0.0,0.0,0.0,0.0,0.0,0.0,0.0,0.0,0.0,0.0,0.0,0.0,0.0,0.0,0.0,0.0,0.0,0.0,0.0,0.0,0.0,0.0,0.0,0.0,0.0,0.0,0.0,0.0,0.0,0.0,0.0,0.0,0.0,0.0,0.0,0.0,0.0,0.0,0.0,0.0,0.0,0.0,0.0,0.0,0.0,0.0,0.0,0.0,0.0,0.0,0.0,0.0,0.0,0.0,0.0,0.0,0.0,0.0,0.0,0.0,0.0,0.0,0.0,0.0,0.0,0.0,0.0,0.0,0.0,0.0,0.0,0.0,0.0,0.0,0.0,0.0,0.0,0.0,0.0,0.0,0.0,0.0,0.0,0.0,0.0,0.0,0.0,0.0,0.0,0.0,0.0,0.0,0.0,0.0,0.0,0.0,0.0,0.0,0.0,0.0,0.0,0.0,0.0,0.0,0.0,0.0,0.0,0.0,0.0,0.0,0.0,0.0,0.0,0.0,0.0,0.0,0.0,0.0,0.0,0.0,0.0,0.0,0.0,0.0,0.0,0.0,0.0,0.0,0.0,0.0,0.0,0.0,0.0,0.0,0.0,0.0,0.0,0.0,0.0,0.0,0.0,0.0,0.0,0.0,0.0,0.0,0.0,0.0,0.0,0.0,0.0,0.0,0.0,0.0,0.0,0.0,0.0,0.0,0.0,0.0,0.0,0.0,0.0,0.0,0.0,0.0,0.0,0.0,0.0,0.0,0.0,0.0,0.0,0.0,0.0,0.0,0.0,0.0,0.0,0.0,0.0,0.0,0.0,0.0,0.0,0.0,0.0,0.0,0.0,0.0,0.0,0.0,0.0,0.0,0.0,0.0,0.0,0.0,0.0,0.0,0.0,0.0,0.0,0.0,0.0,0.0,0.0,0.0,0.0,0.0,0.0,0.0,0.0,0.0,0.0,0.0,0.0,0.0,0.0,0.0,0.0,0.0,0.0,0.0,0.0,0.0,0.0,0.0,0.0,0.0,0.0,0.0,0.0,0.0,0.0,0.0,0.0,0.0,0.0,0.0,0.0,0.0,0.0,0.0,0.0,0.0,0.0,0.0,0.0,0.0,0.0,0.0,0.0,0.0,0.0,0.0,0.0,0.0,0.0,0.0,0.0,0.0,0.0,0.0,0.0,0.0,0.0,0.0,0.0,0.0,0.0,0.0,0.0,0.0,0.0,0.0,0.0,0.0,0.0,0.0,0.0,0.0,0.0,0.0,0.0,0.0,0.0,0.0,0.0,0.0,0.0,0.0,0.0,0.0,0.0,0.0,0.0,0.0,0.0,0.0,0.0,0.0,0.0,0.0,0.0,0.0,0.0,0.0,0.0,0.0,0.0,0.0,0.0,0.0,0.0,0.0,0.0,0.0,0.0,0.0,0.0,0.0,0.0,0.0,0.0,0.0,0.0,0.0,0.0,0.0,0.0,0.0,0.0,0.0,0.0,0.0,0.0,0.0,0.0,0.0,0.0,0.0,0.0,0.0,0.0,0.0,0.0,0.0,0.0,0.0,0.0,0.0,0.0,0.0,0.0,0.0,0.0,0.0,0.0,0.0,0.0,0.0,0.0,0.0,0.0,0.0,0.0,0.0,0.0,0.0,0.0,0.0,0.0,0.0,0.0,0.0,0.0,0.0,0.0,0.0,0.0,0.0,0.0,0.0,0.0,0.0,0.0,0.0,0.0,0.0,0.0,0.0,0.0,0.0,0.0,0.0,0.0,0.0,0.0,0.0,0.0,0.0,0.0,0.0,0.0,0.0,0.0,0.0,0.0,0.0,0.0,0.0,0.0,0.0,0.0,0.0,0.0,0.0,0.0,0.0,0.0,0.0,0.0,0.0,0.0,0.0,0.0,0.0,0.0,0.0,0.0,0.0,0.0,0.0,0.0,0.0,0.0,0.0,0.0,0.0,0.0,0.0,0.0,0.0,0.0,0.0,0.0,0.0,0.0,0.0,0.0,0.0,0.0,0.0,0.0,0.0,0.0,0.0,0.0,0.0,0.0,0.0,0.0,0.0,0.0,0.0,0.0,0.0,0.0,0.0,0.0,0.0,0.0,0.0,0.0,0.0,0.0,0.0,0.0,0.0,0.0,0.0,0.0,0.0,0.0,0.0,0.0,0.0,0.0,0.0,0.0,0.0,0.0,0.0,0.0,0.0,0.0,0.0,0.0,0.0,0.0,0.0,0.0,0.0,0.0,0.0,0.0,0.0,0.0,0.0,0.0,0.0,0.0,0.0,0.0,0.0,0.0,0.0,0.0,0.0,0.0,0.0,0.0,0.0,0.0,0.0,0.0,0.0,0.0,0.0,0.0,0.0,0.0,0.0,0.0,0.0,0.0,0.0,0.0,0.0,0.0,0.0,0.0,0.0,0.0,0.0,0.0,0.0,0.0,0.0,0.0,0.0,0.0,0.0,0.0,0.0,0.0,0.0,0.0,0.0,0.0,0.0,0.0,0.0,0.0,0.0,0.0,0.0,0.0,0.0,0.0,0.0,0.0,0.0,0.0,0.0,0.0,0.0,0.0,0.0,0.0,0.0,0.0,0.0,0.0,0.0,0.0,0.0,0.0,0.0,0.0,0.0,0.0,0.0,0.0,0.0,0.0,0.0,0.0,0.0,0.0,0.0,0.0,0.0,0.0,0.0,0.0,0.0,0.0,0.0,0.0,0.0,0.0,0.0,0.0,0.0,0.0,0.0,0.0,0.0,0.0,0.0,0.0,0.0,0.0,0.0,0.0,0.0,0.0,0.0,0.0,0.0,0.0,0.0,0.0,0.0,0.0,0.0,0.0,0.0,0.0,0.0,0.0,0.0,0.0,0.0,0.0,0.0,0.0,0.0,0.0,0.0,0.0,0.0,0.0,0.0,0.0,0.0,0.0,0.0,0.0,0.0,0.0,0.0,0.0,0.0,0.0,0.0,0.0,0.0,0.0,0.0,0.0,0.0,0.0,0.0,0.0,0.0,0.0,0.0,0.0,0.0,0.0,0.0,0.0,0.0,0.0,0.0,0.0,0.0,0.0,0.0,0.0,0.0,0.0,0.0,0.0,0.0,0.0,0.0,0.0,0.0,0.0,0.0,0.0,0.0,0.0,0.0,0.0,0.0,0.0,0.0,0.0,0.0,0.0,0.0,0.0,0.0,0.0,0.0,0.0,0.0,0.0,0.0,0.0,0.0,0.0,0.0,0.0,0.0,0.0,0.0,0.0,0.0,0.0,0.0,0.0,0.0,0.0,0.0,0.0,0.0,0.0,0.0,0.0,0.0,0.0,0.0,0.0,0.0,0.0,0.0,0.0,0.0,0.0,0.0,0.0,0.0,0.0,0.0,0.0,0.0,0.0,0.0,0.0,0.0,0.0,0.0,0.0,0.0,0.0,0.0,0.0,0.0,0.0,0.0,0.0,0.0,0.0,0.0,0.0,0.0,0.0,0.0,0.0,0.0,0.0,0.0,0.0,0.0,0.0,0.0,0.0,0.0,0.0,0.0,0.0,0.0,0.0,0.0,0.0,0.0,0.0,0.0,0.0,0.0,0.0,0.0,0.0,0.0,0.0,0.0,0.0,0.0,0.0,0.0,0.0,0.0,0.0,0.0,0.0,0.0,0.0,0.0,0.0,0.0,0.0,0.0,0.0,0.0,0.0,0.0,0.0,0.0,0.0,0.0,0.0,0.0,0.0,0.0,0.0,0.0,0.0,0.0,0.0,0.0,0.0,0.0,0.0,0.0,0.0,0.0,0.0,0.0,0.0,0.0,0.0,0.0,0.0,0.0,0.0,0.0,0.0,0.0,0.0,0.0,0.0,0.0,0.0,0.0,0.0,0.0,0.0,0.0,2.9951,0.0,0.0,0.0,0.0,0.0,0.0,0.0,0.0,0.0,0.0,0.0,0.0,0.0,0.0,0.0,0.0,0.0,0.0,0.0,0.0,0.0,0.0,0.0,0.0,0.0,0.0,0.0,0.0,0.0,0.0,0.0,0.0,0.0,0.0,0.0,0.0,0.0,0.0,0.0,0.0,0.0,0.0,0.0,0.0,0.0,0.0,0.0,0.0,0.0,0.0,0.0,0.0,0.0,0.0,0.0,0.0,0.0,0.0,0.0,0.0,0.0,0.0,0.0,0.0,0.0,0.0,0.0,0.0,0.0,0.0,0.0,0.0,0.0,0.0,0.0,0.0,0.0,0.0,0.0,0.0,0.0,0.0,0.0,0.0,0.0,0.0,0.0,0.0,0.0,0.0,0.0,0.0,0.0,0.0,0.0,0.0,0.0,0.0,0.0,0.0,0.0,0.0,0.0,0.0,0.0,0.0,0.0,0.0,0.0,0.0,3.0361,3.0361,3.0391,3.0391,3.0361,0.0,0.0,0.0,0.0,0.0,0.0,0.0,0.0,0.0,0.0,0.0,0.0,0.0,0.0,0.0,0.0,0.0,0.0,0.0,0.0,0.0,0.0,0.0,0.0,0.0,0.0,0.0,0.0,0.0,0.0,0.0,0.0,0.0,0.0,0.0,0.0,0.0,0.0,0.0,0.0,0.0,0.0,0.0,0.0,0.0,0.0,0.0,0.0,0.0,0.0,0.0,0.0,0.0,0.0,0.0,0.0,0.0,0.0,0.0,0.0,0.0,0.0,0.0,0.0,0.0,0.0,0.0,0.0,0.0,0.0,0.0,0.0,0.0,0.0,0.0,0.0,0.0,0.0,0.0,0.0,0.0,0.0,0.0,0.0,0.0,0.0,0.0,0.0,0.0,0.0,0.0,0.0,0.0,0.0,0.0,0.0,0.0,0.0,0.0,0.0,0.0,0.0,0.0,0.0,0.0,0.0,0.0,0.0,0.0,0.0,0.0,0.0,3.1016,3.1016,3.0955,0.0,0.0,0.0,0.0,0.0,0.0,0.0,0.0,0.0,0.0,0.0,0.0,0.0,0.0,0.0,0.0,0.0,0.0,0.0,0.0,0.0,0.0,0.0,0.0,0.0,0.0,0.0,0.0,0.0,0.0,0.0,0.0,0.0,0.0,0.0,0.0,0.0,0.0,0.0,0.0,0.0,0.0,0.0,0.0,0.0,0.0,0.0,0.0,0.0,0.0,0.0,0.0,0.0,0.0,0.0,0.0,0.0,0.0,0.0,0.0,0.0,0.0,0.0,0.0,0.0,0.0,0.0,0.0,0.0,0.0,0.0,0.0,0.0,0.0,0.0,0.0,0.0,0.0,0.0,0.0,0.0,0.0,0.0,0.0,0.0,0.0,0.0,0.0,0.0,0.0,0.0,0.0,0.0,0.0,0.0,0.0,0.0,0.0,0.0,0.0,0.0,0.0,0.0,0.0,0.0,0.0,0.0,0.0,0.0,0.0,3.2688,3.2652,3.2652,0.0,3.2556,0.0,0.0,0.0,0.0,0.0,0.0,0.0,0.0,0.0,0.0,0.0,0.0,0.0,0.0,0.0,0.0,0.0,0.0,0.0,0.0,0.0,0.0,0.0,0.0,0.0,0.0,0.0,0.0,0.0,0.0,0.0,0.0,0.0,0.0,0.0,0.0,0.0,0.0,0.0,0.0,0.0,0.0,0.0,0.0,0.0,0.0,0.0,0.0,0.0,0.0,0.0,0.0,0.0,0.0,0.0,0.0,0.0,0.0,0.0,0.0,0.0,0.0,0.0,0.0,0.0,0.0,0.0,0.0,0.0,0.0,0.0,0.0,0.0,0.0,0.0,0.0,0.0,0.0,0.0,0.0,0.0,0.0,0.0,0.0,0.0,0.0,0.0,0.0,0.0,0.0,0.0,0.0,0.0,0.0,0.0,0.0,0.0,0.0,0.0,0.0,0.0,0.0,0.0,0.0,0.0,0.0,0.0,0.0,0.0,0.0,3.2898,3.2898,3.2898,3.2902,0.0,0.0,0.0,0.0,0.0,0.0,0.0,0.0,0.0,0.0,0.0,0.0,0.0,0.0,0.0,0.0,0.0,0.0,0.0,0.0,0.0,0.0,0.0,0.0,0.0,0.0,0.0,0.0,0.0,0.0,0.0,0.0,0.0,0.0,0.0,0.0,0.0,0.0,0.0,0.0,0.0,0.0,0.0,0.0,0.0,0.0,0.0,0.0,0.0,0.0,0.0,0.0,0.0,0.0,0.0,0.0,0.0,0.0,0.0,0.0,0.0,0.0,0.0,0.0,0.0,0.0,0.0,0.0,0.0,0.0,0.0,0.0,0.0,0.0,0.0,0.0,0.0,0.0,0.0,0.0,0.0,0.0,0.0,0.0,0.0,0.0,0.0,0.0,0.0,0.0,0.0,0.0,0.0,0.0,0.0,0.0,0.0,0.0,0.0,0.0,0.0,0.0,0.0,0.0,0.0,0.0,0.0,0.0,0.0,0.0,3.2898,3.2898,3.2898,3.2898,3.2898,3.2898,0.0,0.0,0.0,0.0,0.0,0.0,0.0,0.0,0.0,0.0,0.0,0.0,0.0,0.0,0.0,0.0,0.0,0.0,0.0,0.0,0.0,0.0,0.0,0.0,0.0,0.0,0.0,0.0,0.0,0.0,0.0,0.0,0.0,0.0,0.0,0.0,0.0,0.0,0.0,0.0,0.0,0.0,0.0,0.0,0.0,0.0,0.0,0.0,0.0,0.0,0.0,0.0,0.0,0.0,0.0,0.0,0.0,0.0,0.0,0.0,0.0,0.0,0.0,0.0,0.0,0.0,0.0,0.0,0.0,0.0,0.0,0.0,0.0,0.0,0.0,0.0,0.0,0.0,0.0,0.0,0.0,0.0,0.0,0.0,0.0,0.0,0.0,0.0,0.0,0.0,0.0,0.0,0.0,0.0,0.0,0.0,0.0,0.0,0.0,0.0,0.0,0.0,0.0,0.0,0.0,0.0,0.0,0.0,3.2898,3.2898,3.2898,3.2898,3.2898,3.2898,0.0,0.0,0.0,0.0,0.0,0.0,0.0,0.0,0.0,0.0,0.0,0.0,0.0,0.0,0.0,0.0,0.0,0.0,0.0,0.0,0.0,0.0,0.0,0.0,0.0,0.0,0.0,0.0,0.0,0.0,0.0,0.0,0.0,0.0,0.0,0.0,0.0,0.0,0.0,0.0,0.0,0.0,0.0,0.0,0.0,0.0,0.0,0.0,0.0,0.0,0.0,0.0,0.0,0.0,0.0,0.0,0.0,0.0,0.0,0.0,0.0,0.0,0.0,0.0,0.0,0.0,0.0,0.0,0.0,0.0,0.0,0.0,0.0,0.0,0.0,0.0,0.0,0.0,0.0,0.0,0.0,0.0,0.0,0.0,0.0,0.0,0.0,0.0,0.0,0.0,0.0,0.0,0.0,0.0,0.0,0.0,0.0,0.0,0.0,0.0,0.0,0.0,0.0,0.0,0.0,0.0,0.0,0.0,0.0,3.2898,3.2898,3.2898,3.2898,3.2898,3.2898,0.0,0.0,0.0,0.0,0.0,0.0,0.0,0.0,0.0,0.0,0.0,0.0,0.0,0.0,0.0,0.0,0.0,0.0,0.0,0.0,0.0,0.0,0.0,0.0,0.0,0.0,0.0,0.0,0.0,0.0,0.0,0.0,0.0,0.0,0.0,0.0,0.0,0.0,0.0,0.0,0.0,0.0,0.0,0.0,0.0,0.0,0.0,0.0,0.0,0.0,0.0,0.0,0.0,0.0,0.0,0.0,0.0,0.0,0.0,0.0,0.0,0.0,0.0,0.0,0.0,0.0,0.0,0.0,0.0,0.0,0.0,0.0,0.0,0.0,0.0,0.0,0.0,0.0,0.0,0.0,0.0,0.0,0.0,0.0,0.0,0.0,0.0,0.0,0.0,0.0,0.0,0.0,0.0,0.0,0.0,0.0,0.0,0.0,0.0,0.0,0.0,0.0,0.0,0.0,0.0,0.0,0.0,0.0,0.0,3.2898,0.0,3.2898,3.2898,3.2898,3.2902,0.0,0.0,0.0,0.0,0.0,0.0,0.0,0.0,0.0,0.0,0.0,0.0,0.0,0.0,0.0,0.0,0.0,0.0,0.0,0.0,0.0,0.0,0.0,0.0,0.0,0.0,0.0,0.0,0.0,0.0,0.0,0.0,0.0,0.0,0.0,0.0,0.0,0.0,0.0,0.0,0.0,0.0,0.0,0.0,0.0,0.0,0.0,0.0,0.0,0.0,0.0,0.0,0.0,0.0,0.0,0.0,0.0,0.0,0.0,0.0,0.0,0.0,0.0,0.0,0.0,0.0,0.0,0.0,0.0,0.0,0.0,0.0,0.0,0.0,0.0,0.0,0.0,0.0,0.0,0.0,0.0,0.0,0.0,0.0,0.0,0.0,0.0,0.0,0.0,0.0,0.0,0.0,0.0,0.0,0.0,0.0,0.0,0.0,0.0,0.0,0.0,0.0,0.0,0.0,0.0,0.0,0.0,0.0,3.2934,3.2934,3.2938,3.3009,3.2934,3.2938,3.2905,0.0,0.0,0.0,0.0,0.0,0.0,0.0,0.0,0.0,0.0,0.0,0.0,0.0,0.0,0.0,0.0,0.0,0.0,0.0,0.0,0.0,0.0,0.0,0.0,0.0,0.0,0.0,0.0,0.0,0.0,0.0,0.0,0.0,0.0,0.0,0.0,0.0,0.0,0.0,0.0,0.0,0.0,0.0,0.0,0.0,0.0,0.0,0.0,0.0,0.0,0.0,0.0,0.0,0.0,0.0,0.0,0.0,0.0,0.0,0.0,0.0,0.0,0.0,0.0,0.0,0.0,0.0,0.0,0.0,0.0,0.0,0.0,0.0,0.0,0.0,0.0,0.0,0.0,0.0,0.0,0.0,0.0,0.0,0.0,0.0,0.0,0.0,0.0,0.0,0.0,0.0,0.0,0.0,0.0,0.0,0.0,0.0,0.0,0.0,0.0,0.0,0.0,0.0,0.0,0.0,0.0,0.0,0.0,0.0,3.3588,3.4018,3.4268,3.4268,3.3771,3.3523,0.0,0.0,0.0,0.0,0.0,0.0,0.0,0.0,0.0,0.0,0.0,0.0,0.0,0.0,0.0,0.0,0.0,0.0,0.0,0.0,0.0,0.0,0.0,0.0,0.0,0.0,0.0,0.0,0.0,0.0,0.0,0.0,0.0,0.0,0.0,0.0,0.0,0.0,0.0,0.0,0.0,0.0,0.0,0.0,0.0,0.0,0.0,0.0,0.0,0.0,0.0,0.0,0.0,0.0,0.0,0.0,0.0,0.0,0.0,0.0,0.0,0.0,0.0,0.0,0.0,0.0,0.0,0.0,0.0,0.0,0.0,0.0,0.0,0.0,0.0,0.0,0.0,0.0,0.0,0.0,0.0,0.0,0.0,0.0,0.0,0.0,0.0,0.0,0.0,0.0,0.0,0.0,0.0,0.0,0.0,0.0,0.0,0.0,0.0,0.0,0.0,0.0,0.0,0.0,0.0,0.0,0.0,0.0,0.0,3.4588,3.4729,3.4799,3.4799,3.4376,3.3988,3.3671,0.0,0.0,0.0,0.0,0.0,0.0,0.0,0.0,0.0,0.0,0.0,0.0,0.0,0.0,0.0,0.0,0.0,0.0,0.0,0.0,0.0,0.0,0.0,0.0,0.0,0.0,0.0,0.0,0.0,0.0,0.0,0.0,0.0,0.0,0.0,0.0,0.0,0.0,0.0,0.0,0.0,0.0,0.0,0.0,0.0,0.0,0.0,0.0,0.0,0.0,0.0,0.0,0.0,0.0,0.0,0.0,0.0,0.0,0.0,0.0,0.0,0.0,0.0,0.0,0.0,0.0,0.0,0.0,0.0,0.0,0.0,0.0,0.0,0.0,0.0,0.0,0.0,0.0,0.0,0.0,0.0,0.0,0.0,0.0,0.0,0.0,0.0,0.0,0.0,0.0,0.0,0.0,0.0,0.0,0.0,0.0,0.0,0.0,0.0,0.0,0.0,0.0,0.0,0.0,0.0,0.0,0.0,0.0,3.5843,3.5104,3.4719,3.4719,3.4795,3.4443,0.0,0.0,0.0,0.0,0.0,0.0,0.0,0.0,0.0,0.0,0.0,0.0,0.0,0.0,0.0,0.0,0.0,0.0,0.0,0.0,0.0,0.0,0.0,0.0,0.0,0.0,0.0,0.0,0.0,0.0,0.0,0.0,0.0,0.0,0.0,0.0,0.0,0.0,0.0,0.0,0.0,0.0,0.0,0.0,0.0,0.0,0.0,0.0,0.0,0.0,0.0,0.0,0.0,0.0,0.0,0.0,0.0,0.0,0.0,0.0,0.0,0.0,0.0,0.0,0.0,0.0,0.0,0.0,0.0,0.0,0.0,0.0,0.0,0.0,0.0,0.0,0.0,0.0,0.0,0.0,0.0,0.0,0.0,0.0,0.0,0.0,0.0,0.0,0.0,0.0,0.0,0.0,0.0,0.0,0.0,0.0,0.0,0.0,0.0,0.0,0.0,0.0,0.0,0.0,0.0,0.0,0.0,0.0,0.0,3.6261,3.6006,3.5977,3.6138,3.558,3.4955,0.0,0.0,0.0,0.0,0.0,0.0,0.0,0.0,0.0,0.0,0.0,0.0,0.0,0.0,0.0,0.0,0.0,0.0,0.0,0.0,0.0,0.0,0.0,0.0,0.0,0.0,0.0,0.0,0.0,0.0,0.0,0.0,0.0,0.0,0.0,0.0,0.0,0.0,0.0,0.0,0.0,0.0,0.0,0.0,0.0,0.0,0.0,0.0,0.0,0.0,0.0,0.0,0.0,0.0,0.0,0.0,0.0,0.0,0.0,0.0,0.0,0.0,0.0,0.0,0.0,0.0,0.0,0.0,0.0,0.0,0.0,0.0,0.0,0.0,0.0,0.0,0.0,0.0,0.0,0.0,0.0,0.0,0.0,0.0,0.0,0.0,0.0,0.0,0.0,0.0,0.0,0.0,0.0,0.0,0.0,0.0,0.0,0.0,0.0,0.0,0.0,0.0,0.0,0.0,0.0,0.0,0.0,0.0,3.5849,3.6485,3.636,3.6326,3.6485,3.6151,3.5566,0.0,0.0,0.0,0.0,0.0,0.0,0.0,0.0,0.0,0.0,0.0,0.0,0.0,0.0,0.0,0.0,0.0,0.0,0.0,0.0,0.0,0.0,0.0,0.0,0.0,0.0,0.0,0.0,0.0,0.0,0.0,0.0,0.0,0.0,0.0,0.0,0.0,0.0,0.0,0.0,0.0,0.0,0.0,0.0,0.0,0.0,0.0,0.0,0.0,0.0,0.0,0.0,0.0,0.0,0.0,0.0,0.0,0.0,0.0,0.0,0.0,0.0,0.0,0.0,0.0,0.0,0.0,0.0,0.0,0.0,0.0,0.0,0.0,0.0,0.0,0.0,0.0,0.0,0.0,0.0,0.0,0.0,0.0,0.0,0.0,0.0,0.0,0.0,0.0,0.0,0.0,0.0,0.0,0.0,0.0,0.0,0.0,0.0,0.0,0.0,0.0,0.0,0.0,0.0,0.0,0.0,0.0,0.0,3.6012,3.6624,3.6533,3.649,3.6422,3.6437,3.6104,0.0,0.0,0.0,0.0,0.0,0.0,0.0,0.0,0.0,0.0,0.0,0.0,0.0,0.0,0.0,0.0,0.0,0.0,0.0,0.0,0.0,0.0,0.0,0.0,0.0,0.0,0.0,0.0,0.0,0.0,0.0,0.0,0.0,0.0,0.0,0.0,0.0,0.0,0.0,0.0,0.0,0.0,0.0,0.0,0.0,0.0,0.0,0.0,0.0,0.0,0.0,0.0,0.0,0.0,0.0,0.0,0.0,0.0,0.0,0.0,0.0,0.0,0.0,0.0,0.0,0.0,0.0,0.0,0.0,0.0,0.0,0.0,0.0,0.0,0.0,0.0,0.0,0.0,0.0,0.0,0.0,0.0,0.0,0.0,0.0,0.0,0.0,0.0,0.0,0.0,0.0,0.0,0.0,0.0,0.0,0.0,0.0,0.0,0.0,0.0,0.0,0.0,0.0,0.0,0.0,0.0,0.0,0.0,3.7213,3.7258,3.7801,3.7836,3.7249,3.6671,3.6022,0.0,0.0,0.0,0.0,0.0,0.0,0.0,0.0,0.0,0.0,0.0,0.0,0.0,0.0,0.0,0.0,0.0,0.0,0.0,0.0,0.0,0.0,0.0,0.0,0.0,0.0,0.0,0.0,0.0,0.0,0.0,0.0,0.0,0.0,0.0,0.0,0.0,0.0,0.0,0.0,0.0,0.0,0.0,0.0,0.0,0.0,0.0,0.0,3.3305,0.0,0.0,0.0,0.0,0.0,0.0,0.0,0.0,0.0,0.0,0.0,0.0,0.0,0.0,0.0,0.0,0.0,0.0,0.0,0.0,0.0,0.0,0.0,0.0,0.0,0.0,0.0,0.0,0.0,0.0,0.0,0.0,0.0,0.0,0.0,0.0,0.0,0.0,0.0,0.0,0.0,0.0,0.0,0.0,0.0,0.0,0.0,0.0,0.0,0.0,0.0,0.0,0.0,0.0,0.0,0.0,0.0,0.0,0.0,3.7586,3.7525,3.8215,3.8387,3.8008,3.7249,3.6533,0.0,0.0,0.0,0.0,0.0,0.0,0.0,0.0,0.0,0.0,0.0,0.0,0.0,0.0,0.0,0.0,0.0,0.0,0.0,0.0,0.0,0.0,0.0,0.0,0.0,0.0,0.0,0.0,0.0,0.0,0.0,0.0,0.0,0.0,0.0,0.0,0.0,0.0,0.0,0.0,0.0,0.0,0.0,0.0,0.0,0.0,0.0,0.0,0.0,0.0,0.0,0.0,0.0,0.0,0.0,0.0,0.0,0.0,0.0,0.0,0.0,0.0,0.0,0.0,0.0,0.0,0.0,0.0,0.0,0.0,0.0,0.0,0.0,0.0,0.0,0.0,0.0,0.0,0.0,0.0,0.0,0.0,0.0,0.0,0.0,0.0,0.0,0.0,0.0,0.0,0.0,0.0,0.0,0.0,0.0,0.0,0.0,0.0,0.0,0.0,0.0,0.0,0.0,0.0,0.0,0.0,0.0,3.7158,3.7785,3.7836,3.856,3.887,3.8767,3.8043,3.7284,3.649,0.0,0.0,0.0,0.0,0.0,0.0,0.0,0.0,0.0,0.0,0.0,0.0,0.0,0.0,0.0,0.0,0.0,0.0,0.0,0.0,0.0,0.0,0.0,0.0,0.0,0.0,0.0,0.0,0.0,0.0,0.0,0.0,0.0,0.0,0.0,0.0,0.0,0.0,3.1985,3.242,0.0,0.0,0.0,0.0,0.0,0.0,0.0,0.0,3.645,0.0,0.0,0.0,0.0,0.0,0.0,0.0,0.0,0.0,0.0,0.0,0.0,0.0,0.0,0.0,0.0,0.0,0.0,0.0,0.0,0.0,0.0,0.0,0.0,0.0,0.0,0.0,0.0,0.0,0.0,0.0,0.0,0.0,0.0,0.0,0.0,0.0,0.0,0.0,0.0,0.0,0.0,0.0,0.0,0.0,0.0,0.0,0.0,0.0,0.0,0.0,0.0,0.0,0.0,0.0,0.0,3.7415,3.807,3.8653,3.9135,4.0065,4.0134,3.9375,3.8756,3.8043,3.7249,0.0,0.0,0.0,0.0,0.0,0.0,0.0,0.0,0.0,0.0,0.0,0.0,0.0,0.0,0.0,0.0,0.0,0.0,0.0,0.0,0.0,0.0,0.0,0.0,0.0,0.0,0.0,0.0,0.0,0.0,0.0,0.0,0.0,0.0,0.0,0.0,0.0,0.0,0.0,3.319,3.3989,0.0,0.0,0.0,0.0,0.0,0.0,0.0,0.0,3.599,0.0,0.0,0.0,0.0,0.0,0.0,0.0,0.0,0.0,0.0,0.0,0.0,0.0,0.0,0.0,0.0,0.0,0.0,0.0,0.0,0.0,0.0,0.0,0.0,0.0,0.0,0.0,0.0,0.0,0.0,0.0,0.0,0.0,0.0,0.0,0.0,0.0,0.0,0.0,0.0,0.0,0.0,0.0,0.0,0.0,0.0,0.0,0.0,0.0,0.0,0.0,0.0,0.0,0.0,0.0,3.7728,3.8347,3.8894,3.9512,4.035,4.0556,4.013,3.9044,3.8377,0.0,0.0,0.0,0.0,0.0,0.0,0.0,0.0,0.0,0.0,0.0,0.0,0.0,0.0,0.0,0.0,0.0,0.0,0.0,0.0,0.0,0.0,0.0,0.0,0.0,0.0,0.0,0.0,0.0,0.0,0.0,0.0,0.0,0.0,0.0,0.0,0.0,0.0,0.0,0.0,3.3853,3.4494,3.5144,0.0,0.0,0.0,0.0,0.0,0.0,3.7223,3.7163,0.0,0.0,0.0,0.0,0.0,0.0,0.0,0.0,0.0,0.0,0.0,0.0,0.0,0.0,0.0,0.0,0.0,0.0,0.0,0.0,0.0,0.0,0.0,0.0,0.0,0.0,0.0,0.0,0.0,0.0,0.0,0.0,0.0,0.0,0.0,0.0,0.0,0.0,0.0,0.0,0.0,0.0,0.0,0.0,0.0,0.0,0.0,0.0,0.0,0.0,0.0,0.0,0.0,0.0,0.0,3.793,3.8372,3.8997,3.9705,4.0371,4.068,4.0631,3.9375,3.8677,0.0,0.0,0.0,0.0,0.0,0.0,0.0,0.0,0.0,0.0,0.0,0.0,0.0,0.0,0.0,0.0,0.0,0.0,0.0,0.0,0.0,0.0,0.0,0.0,0.0,0.0,0.0,0.0,0.0,0.0,0.0,0.0,0.0,0.0,0.0,0.0,0.0,0.0,0.0,0.0,0.0,3.4849,3.5376,3.599,0.0,0.0,0.0,0.0,3.8997,3.856,0.0,0.0,0.0,0.0,0.0,0.0,0.0,0.0,0.0,0.0,0.0,0.0,0.0,0.0,0.0,0.0,0.0,0.0,0.0,0.0,0.0,0.0,0.0,0.0,0.0,0.0,0.0,0.0,0.0,0.0,0.0,0.0,0.0,0.0,0.0,0.0,0.0,0.0,0.0,0.0,0.0,0.0,0.0,0.0,0.0,0.0,0.0,0.0,0.0,0.0,0.0,0.0,0.0,0.0,0.0,0.0,3.8608,3.8649,3.9193,4.0295,4.0597,4.0666,4.0534,3.9808,3.9158,0.0,0.0,0.0,0.0,0.0,0.0,0.0,0.0,0.0,0.0,0.0,0.0,0.0,0.0,0.0,0.0,0.0,0.0,0.0,0.0,0.0,0.0,0.0,0.0,0.0,0.0,0.0,0.0,0.0,0.0,0.0,0.0,0.0,0.0,0.0,0.0,0.0,0.0,0.0,0.0,0.0,3.5408,3.5985,3.6846,3.7371,0.0,0.0,3.8481,3.8573,3.8275,0.0,0.0,0.0,0.0,0.0,0.0,0.0,0.0,0.0,0.0,0.0,0.0,0.0,0.0,0.0,0.0,0.0,0.0,0.0,0.0,0.0,0.0,0.0,0.0,0.0,0.0,0.0,0.0,0.0,0.0,0.0,0.0,0.0,0.0,0.0,0.0,0.0,0.0,0.0,0.0,0.0,0.0,0.0,0.0,0.0,0.0,0.0,0.0,0.0,0.0,0.0,0.0,0.0,0.0,0.0,3.719,3.8737,3.9008,3.9581,4.05,4.0485,4.0485,4.0485,3.9816,3.925,0.0,0.0,0.0,0.0,0.0,0.0,0.0,0.0,0.0,0.0,0.0,0.0,0.0,0.0,0.0,0.0,0.0,0.0,0.0,0.0,0.0,0.0,0.0,0.0,0.0,0.0,0.0,0.0,0.0,0.0,0.0,0.0,0.0,0.0,0.0,0.0,0.0,0.0,0.0,0.0,0.0,0.0,3.6846,3.7494,0.0,0.0,0.0,3.9542,3.9542,0.0,0.0,0.0,0.0,0.0,0.0,0.0,0.0,0.0,0.0,0.0,0.0,0.0,0.0,0.0,0.0,0.0,0.0,0.0,0.0,0.0,0.0,0.0,0.0,0.0,0.0,0.0,0.0,0.0,0.0,0.0,0.0,0.0,0.0,0.0,0.0,0.0,0.0,0.0,0.0,0.0,0.0,0.0,0.0,0.0,0.0,0.0,0.0,0.0,0.0,0.0,0.0,0.0,0.0,0.0,0.0,0.0,3.8728,3.9261,3.9795,4.0451,4.0387,4.0337,4.0436,3.9973,0.0,0.0,0.0,0.0,0.0,0.0,0.0,0.0,0.0,0.0,0.0,0.0,0.0,0.0,0.0,0.0,0.0,0.0,0.0,0.0,0.0,0.0,0.0,0.0,0.0,0.0,0.0,3.1724,0.0,0.0,0.0,0.0,0.0,0.0,0.0,0.0,0.0,0.0,0.0,0.0,0.0,0.0,3.6836,3.7402,3.8034,3.8574,0.0,0.0,4.0191,4.0191,4.0023,3.9869,0.0,0.0,0.0,0.0,0.0,0.0,0.0,0.0,0.0,0.0,0.0,0.0,0.0,0.0,0.0,0.0,0.0,0.0,0.0,0.0,0.0,0.0,0.0,0.0,0.0,0.0,0.0,0.0,0.0,0.0,0.0,0.0,0.0,0.0,0.0,0.0,0.0,0.0,0.0,0.0,0.0,0.0,0.0,0.0,0.0,0.0,0.0,0.0,0.0,0.0,0.0,0.0,0.0,0.0,0.0,3.8639,3.9181,3.9877,4.05,4.0387,4.0322,4.0288,4.0368,4.0185,0.0,0.0,0.0,0.0,0.0,0.0,0.0,0.0,0.0,0.0,0.0,0.0,0.0,0.0,0.0,0.0,0.0,0.0,0.0,0.0,0.0,0.0,0.0,0.0,0.0,0.0,0.0,0.0,0.0,0.0,0.0,0.0,0.0,0.0,0.0,0.0,0.0,0.0,0.0,0.0,0.0,3.7247,3.7463,3.8299,3.8879,0.0,0.0,3.9839,4.0011,3.978,3.9694,4.0125,0.0,0.0,0.0,0.0,0.0,0.0,0.0,0.0,0.0,0.0,0.0,0.0,0.0,0.0,0.0,0.0,0.0,0.0,0.0,0.0,0.0,0.0,0.0,0.0,0.0,0.0,0.0,0.0,0.0,0.0,0.0,0.0,0.0,0.0,0.0,0.0,0.0,0.0,0.0,0.0,0.0,0.0,0.0,0.0,0.0,0.0,0.0,0.0,0.0,0.0,0.0,0.0,0.0,3.8928,3.925,3.9821,4.0226,4.0485,4.0288,4.0238,4.0288,4.0436,4.024,0.0,0.0,0.0,0.0,0.0,0.0,0.0,0.0,0.0,0.0,0.0,0.0,0.0,0.0,0.0,0.0,0.0,0.0,0.0,0.0,0.0,0.0,0.0,0.0,0.0,0.0,0.0,0.0,3.4143,3.4248,3.4482,0.0,0.0,0.0,0.0,0.0,0.0,0.0,0.0,0.0,0.0,3.7872,3.8437,3.8781,0.0,0.0,3.9516,3.9696,3.9768,3.9978,4.0084,3.9854,4.0007,0.0,0.0,0.0,0.0,0.0,0.0,0.0,0.0,0.0,0.0,0.0,0.0,0.0,0.0,0.0,0.0,0.0,0.0,0.0,0.0,0.0,0.0,0.0,0.0,0.0,0.0,0.0,0.0,0.0,0.0,0.0,0.0,0.0,0.0,0.0,0.0,0.0,0.0,0.0,0.0,0.0,0.0,0.0,0.0,0.0,0.0,0.0,0.0,0.0,0.0,0.0,0.0,3.9547,3.9698,4.022,4.0588,4.0827,4.0578,4.0578,4.0883,4.0984,4.0842,0.0,0.0,0.0,0.0,0.0,0.0,0.0,0.0,0.0,0.0,0.0,0.0,0.0,0.0,0.0,0.0,0.0,0.0,0.0,0.0,0.0,0.0,0.0,0.0,0.0,0.0,0.0,0.0,3.5194,3.5282,3.4918,0.0,0.0,0.0,0.0,0.0,0.0,0.0,0.0,0.0,0.0,3.8611,3.91,3.9161,3.9325,3.9565,3.9625,3.9625,3.9768,4.0121,4.0247,3.9961,0.0,0.0,0.0,0.0,0.0,0.0,0.0,0.0,0.0,0.0,0.0,0.0,0.0,0.0,0.0,0.0,0.0,0.0,0.0,0.0,0.0,0.0,0.0,0.0,0.0,0.0,0.0,0.0,0.0,0.0,3.5805,0.0,0.0,0.0,0.0,0.0,0.0,0.0,0.0,0.0,0.0,0.0,0.0,0.0,0.0,0.0,0.0,0.0,0.0,0.0,0.0,0.0,0.0,4.0026,3.9733,4.0288,4.0861,4.1579,4.1325,4.1508,4.2185,4.2359,4.2176,4.1544,0.0,0.0,0.0,0.0,0.0,0.0,0.0,0.0,0.0,0.0,0.0,0.0,0.0,0.0,0.0,0.0,0.0,0.0,0.0,0.0,0.0,0.0,0.0,0.0,0.0,0.0,3.5873,3.6025,3.6064,0.0,0.0,0.0,0.0,0.0,0.0,0.0,0.0,0.0,0.0,3.8394,3.9358,3.9078,3.9415,3.9595,3.9409,3.9409,3.9553,3.994,4.0011,4.0191,0.0,0.0,0.0,0.0,0.0,0.0,0.0,0.0,0.0,0.0,0.0,0.0,0.0,0.0,0.0,0.0,0.0,0.0,0.0,0.0,0.0,0.0,0.0,0.0,0.0,0.0,0.0,3.7292,3.6861,0.0,0.0,0.0,0.0,0.0,0.0,0.0,0.0,0.0,0.0,0.0,3.9041,3.8998,0.0,0.0,0.0,0.0,0.0,0.0,0.0,0.0,0.0,0.0,0.0,0.0,4.0502,4.1085,4.1199,4.1562,4.2176,4.2019,4.2049,4.2286,4.2426,4.2261,4.1747,0.0,0.0,0.0,0.0,0.0,0.0,0.0,0.0,0.0,0.0,0.0,0.0,0.0,0.0,0.0,0.0,0.0,0.0,0.0,0.0,0.0,0.0,0.0,0.0,0.0,3.677,0.0,0.0,0.0,0.0,0.0,0.0,0.0,0.0,0.0,0.0,0.0,3.7498,3.8518,3.8959,3.923,3.9446,3.9617,3.9625,0.0,0.0,0.0,0.0,0.0,0.0,0.0,0.0,0.0,0.0,0.0,0.0,0.0,0.0,3.8616,3.8965,3.8998,3.8824,3.8675,0.0,0.0,0.0,0.0,0.0,0.0,0.0,0.0,0.0,0.0,0.0,0.0,0.0,0.0,3.8479,0.0,3.7565,0.0,0.0,0.0,0.0,0.0,0.0,0.0,0.0,3.9364,3.946,3.9614,3.9614,3.9519,0.0,3.9364,3.8726,0.0,0.0,0.0,0.0,0.0,0.0,0.0,0.0,4.1254,4.2121,4.1988,4.221,4.2872,4.2746,4.2828,4.3064,4.2988,4.272,4.245,4.1606,4.0858,0.0,0.0,0.0,0.0,0.0,0.0,0.0,0.0,0.0,0.0,0.0,0.0,0.0,0.0,0.0,0.0,0.0,0.0,0.0,0.0,0.0,0.0,0.0,3.7686,0.0,0.0,0.0,0.0,0.0,0.0,0.0,0.0,0.0,3.7796,3.781,3.824,3.9272,3.9329,3.9355,3.9636,0.0,0.0,0.0,0.0,0.0,0.0,0.0,3.9696,3.9768,3.998,4.0109,3.9992,3.9893,3.9875,3.9875,0.0,0.0,3.9753,3.969,3.9534,3.9377,3.9029,3.8772,3.8738,3.8542,3.8341,0.0,0.0,0.0,0.0,0.0,0.0,0.0,0.0,3.9287,3.9126,0.0,3.9098,0.0,0.0,0.0,0.0,0.0,3.9118,0.0,0.0,3.9905,4.0239,4.0836,4.0836,4.0491,3.9802,3.9893,3.9939,3.995,3.9565,0.0,0.0,0.0,0.0,0.0,0.0,4.2324,4.2911,4.267,4.2906,4.362,4.3491,4.3809,4.4541,4.3952,4.362,4.3552,4.2484,4.1538,4.0817,4.0262,0.0,0.0,0.0,0.0,0.0,0.0,0.0,0.0,0.0,0.0,0.0,0.0,0.0,0.0,0.0,0.0,0.0,0.0,0.0,0.0,3.793,0.0,0.0,0.0,0.0,0.0,0.0,0.0,0.0,0.0,0.0,3.8309,3.8924,3.9388,3.9253,0.0,0.0,0.0,0.0,3.9409,3.9439,3.9439,3.9481,3.9696,3.9696,3.9768,3.991,0.0,0.0,4.0401,4.0439,4.0439,4.0501,4.0646,4.0479,3.9497,3.9085,3.8828,3.8797,3.8499,3.8141,3.794,3.7926,3.7803,4.0262,0.0,0.0,0.0,0.0,3.9626,3.9791,3.987,3.9747,3.9747,3.9747,3.9199,0.0,0.0,0.0,0.0,0.0,0.0,3.9882,4.0466,4.0336,4.0426,4.0631,4.0631,4.0754,4.1062,4.1111,4.1386,4.1866,4.1759,4.1574,4.1372,0.0,0.0,0.0,0.0,4.2877,4.3352,4.3367,4.3634,4.427,4.4304,4.435,4.4553,4.4406,4.4088,4.362,4.3265,4.2791,4.2176,4.1572,0.0,0.0,0.0,0.0,0.0,0.0,0.0,0.0,0.0,0.0,0.0,0.0,0.0,0.0,0.0,0.0,0.0,0.0,0.0,3.8446,3.8473,3.8631,0.0,0.0,0.0,0.0,0.0,0.0,0.0,0.0,0.0,3.9137,3.921,3.9367,0.0,0.0,3.9481,3.9481,3.9409,3.9439,3.9439,3.9439,0.0,3.9481,3.9481,3.9481,3.9553,3.9696,3.9839,3.991,4.0051,4.0304,4.0761,4.0924,4.0893,4.0913,4.0152,3.9573,3.9404,3.9094,3.874,3.8597,3.8381,3.815,4.1312,4.1081,3.9997,3.9582,3.9662,3.9974,4.0181,4.0227,4.0181,4.0134,4.0181,3.9744,3.9537,3.9445,3.9537,0.0,0.0,0.0,4.0666,4.1062,4.1287,4.1339,4.1374,4.1374,4.1613,4.2057,4.2057,4.2262,4.2706,4.2961,4.2945,4.2755,0.0,0.0,4.3288,4.3236,4.3473,4.4028,4.4007,4.419,4.4553,4.4553,4.4553,4.4553,4.4553,4.4406,4.3986,4.3736,4.3416,4.3045,4.2484,4.2003,0.0,0.0,0.0,0.0,0.0,0.0,0.0,0.0,0.0,0.0,0.0,3.5956,0.0,0.0,0.0,0.0,3.7777,3.8104,3.9062,3.913,0.0,0.0,0.0,0.0,0.0,0.0,0.0,3.9305,3.9513,3.9616,3.9589,3.9512,3.9455,3.9707,3.9553,3.9439,3.9439,0.0,3.9439,3.9439,3.9439,3.9439,3.9439,3.9649,3.9888,4.0157,4.0261,4.0407,4.048,4.0553,4.0807,4.114,4.1157,4.1203,4.137,4.0621,4.001,4.0114,3.9817,3.9413,3.911,3.888,3.8649,4.2654,4.2552,4.1237,4.0656,4.0656,4.0656,4.0656,4.0656,4.0656,4.0607,4.0508,4.0607,4.0607,4.0508,4.0607,0.0,4.069,4.1408,4.163,4.1699,4.2347,4.2654,4.2654,4.2654,4.2688,4.2757,4.2757,4.2791,4.2893,4.3435,4.3634,4.3634,4.3148,4.32,4.3883,4.3776,4.4062,4.4776,4.4665,4.4553,4.4553,4.4553,4.4553,4.4553,4.4553,4.4553,4.4553,4.3986,4.3668,4.3634,4.3113,4.286,4.2894,0.0,0.0,0.0,0.0,0.0,0.0,0.0,0.0,0.0,0.0,0.0,0.0,0.0,0.0,0.0,3.8947,0.0,3.91,3.9646,0.0,0.0,0.0,3.9406,3.9116,3.9118,3.9237,3.9524,0.0,0.0,3.9677,3.9696,3.9696,3.9757,3.9583,3.9439,3.9439,3.9469,3.9499,3.9529,3.9559,3.9589,3.9709,4.0127,4.0666,4.1145,4.1384,4.14,4.155,4.155,4.1686,4.1701,4.152,4.1322,4.1228,4.0715,4.0371,4.0686,4.0334,3.9881,3.9396,3.9126,3.8802,4.2392,4.2359,4.2019,4.1954,4.2193,4.2193,4.2159,4.2193,4.2159,4.2142,4.2142,4.2193,4.2142,4.2142,4.2193,4.2193,4.2193,4.2296,4.2312,4.2294,4.2377,4.2392,4.2392,4.2392,4.2698,4.324,4.3274,4.3579,4.4122,4.427,4.4338,4.4338,4.4224,4.4258,4.4393,4.4393,4.4439,4.4609,4.4643,4.4553,4.4553,4.4553,4.4553,4.4553,4.4553,4.4553,4.4553,4.4473,4.4372,4.4338,4.3702,4.3401,4.3454,4.2672,0.0,0.0,0.0,0.0,0.0,0.0,0.0,0.0,0.0,3.7726,3.7901,0.0,3.8354,0.0,3.9443,3.9698,3.9526,3.9819,0.0,0.0,3.9808,3.9847,3.9803,3.9803,3.9795,3.9878,3.9738,3.9657,3.9666,3.9553,3.9691,4.0141,3.9738,3.9439,3.9439,3.9858,4.0157,4.0187,4.0576,4.0905,4.0905,4.1025,4.1205,4.1354,4.1414,4.1384,4.149,4.146,4.1534,4.1829,4.187,4.1922,4.2048,4.1762,4.1406,4.099,4.0057,3.924,3.8996,3.8669,3.8256,4.3301,4.3301,4.3301,4.341,4.3484,4.2804,4.2498,4.2498,4.2498,4.2498,4.2498,4.2498,4.2498,4.2498,4.2498,4.2498,4.2532,4.2785,4.2901,4.2935,4.322,4.3301,4.3301,4.3301,4.3538,4.3944,4.3944,4.4147,4.4553,4.4553,4.4553,4.4553,4.4553,4.4553,4.4553,4.4553,4.4553,4.4553,4.4553,4.4553,4.4553,4.4553,4.4553,4.4553,4.4553,4.4553,4.4553,4.4553,4.4553,4.4553,4.4258,4.4075,4.413,4.3469,4.2909,0.0,0.0,0.0,0.0,0.0,0.0,0.0,0.0,0.0,0.0,0.0,3.891,3.9164,3.9485,3.9696,3.9553,3.9625,3.9696,3.9696,3.9768,3.994,4.0011,4.0011,3.994,3.9839,3.9768,3.9817,3.9944,3.9901,4.0098,4.0756,4.0516,4.0277,4.0307,4.0636,4.0846,4.0846,4.1145,4.1504,4.1743,4.1803,4.1923,4.2192,4.2252,4.2252,4.2252,4.2252,4.2294,4.2436,4.2367,4.2246,4.2222,4.1951,4.1535,4.0944,4.0041,3.934,3.9059,3.8803,3.8546,4.4553,4.4553,4.4553,4.4553,4.4485,4.3132,4.2591,4.2591,4.2591,4.2591,4.2591,4.2591,4.2591,4.2591,4.2557,4.2591,4.2625,4.3267,4.3572,4.3606,4.4282,4.4553,4.4553,4.4553,4.4553,4.4553,4.4553,4.4553,4.4553,4.4553,4.4553,4.4553,4.4553,4.4553,4.4553,4.4553,4.4553,4.4553,4.4553,4.4553,4.4587,4.4654,4.4722,4.4722,4.4823,4.4857,4.4857,4.4857,4.4857,4.4857,4.4857,4.4914,4.5048,4.4347,4.3973,0.0,4.3036,0.0,0.0,0.0,0.0,0.0,0.0,0.0,0.0,3.9314,3.9273,3.9379,3.9439,3.9439,3.9439,3.9439,3.9481,3.9625,3.9787,3.9817,4.0061,4.0122,4.0111,3.9938,3.9938,4.0106,4.0501,4.0516,4.0786,4.1354,4.1474,4.1504,4.1594,4.1564,4.1504,4.1504,4.1594,4.1953,4.2372,4.2491,4.2671,4.318,4.324,4.3329,4.3269,4.3269,4.322,4.2981,4.279,4.2496,4.2034,4.1619,4.1198,4.0688,4.0,3.9508,3.9299,3.9094,3.9024,4.4553,4.4553,4.4553,4.4553,4.4553,4.4248,4.4147,4.4147,4.4147,4.4147,4.4147,4.4147,4.4147,4.4147,4.4147,4.4147,4.4147,4.4282,4.435,4.4384,4.4519,4.4553,4.4553,4.4553,4.4553,4.4553,4.4553,4.4553,4.4553,4.4553,4.4553,4.4553,4.4553,4.4553,4.4553,0.0,0.0,0.0,4.4553,4.4553,4.4587,4.5196,4.55,4.55,4.6075,0.0,4.638,4.638,4.638,4.638,4.638,0.0,0.0,0.0,0.0,0.0,0.0,0.0,0.0,0.0,0.0,0.0,4.0747,4.0225,3.9382,3.9355,3.9361,3.9409,3.9439,3.9439,3.9439,3.9439,3.9409,3.9439,3.9961,4.0291,4.0321,4.0815,4.11,4.107,4.107,4.11,4.1145,4.1205,4.1444,4.2073,4.2162,4.2402,4.2851,4.2462,4.2192,4.2192,4.2551,4.294,4.312,4.312,4.312,4.3329,4.3329,4.3329,4.3329,4.3329,4.317,4.285,4.2688,4.2526,4.1868,4.1339,4.0916,4.0488,3.9821,3.938,3.9292,3.8845,3.8304,4.4553,0.0,4.4553,4.4553,0.0,4.4553,4.4553,4.4553,4.4553,4.4553,4.4553,4.4553,4.4553,4.4553,4.4553,4.4553,4.4553,4.4553,4.4553,4.4553,4.4553,4.4553,4.4553,4.4553,4.4553,4.4553,4.4553,4.4553,4.4553,4.4553,4.4553,4.4587,4.4959,4.5128,4.5162,4.55,4.55,4.5128,4.5128,4.5297,4.5669,4.6041,4.6244,4.6244,4.6583,0.0,0.0,0.0,0.0,0.0,0.0,0.0,0.0,4.6574,0.0,4.6152,4.5844,4.5239,4.4399,4.381,4.3115,4.2222,4.1736,4.1036,4.0182,3.9998,4.0038,4.0337,4.0397,4.0397,4.0397,4.0367,4.0397,4.0397,4.0696,4.0905,4.0905,4.1175,4.1384,4.1384,4.1384,4.1474,4.1833,4.1863,4.2132,4.2731,4.2851,4.297,4.324,4.306,4.2851,4.2851,4.309,4.3329,4.3329,4.3329,4.3329,4.3329,4.3329,4.3329,4.3329,4.3329,4.317,4.2769,4.2688,4.2444,4.1702,4.1254,4.083,4.0229,3.9618,3.9114,3.8935,3.8485,3.7939,4.4553,4.4553,4.4553,4.4553,4.4553,4.4553,4.4553,4.4553,0.0,0.0,0.0,4.4553,4.4553,4.4553,4.4553,4.4553,4.4553,4.4553,4.4553,4.4553,4.4553,4.4553,4.4553,4.4553,4.4553,4.4553,4.4553,4.4654,4.479,4.479,4.4823,4.5026,4.5602,4.5906,4.594,4.6481,4.6549,4.6109,4.5974,4.6177,4.6786,4.6921,4.6989,4.6989,4.7124,4.7192,4.7192,4.7192,4.7158,4.7192,4.7192,4.7132,4.6918,4.6824,4.6675,4.6212,4.5925,4.5473,4.4782,4.4277,4.3661,4.2972,4.2352,4.1771,4.1152,4.0798,4.0786,4.1354,4.1384,4.1384,4.1384,4.1384,4.1384,4.1384,4.1474,4.1564,4.1564,4.1683,4.1803,4.1743,4.1803,4.1923,4.2462,4.2521,4.2701,4.318,4.3269,4.3329,4.3329,4.3299,4.3269,4.3299,4.3299,4.3329,4.3329,4.3329,4.3329,4.3329,4.3329,4.3329,4.3329,4.3329,4.317,4.2769,4.2688,4.2363,4.1647,4.1198,4.0745,4.017,3.9441,3.8819,3.8575,3.8239,3.7756,4.4587,4.4553,4.4553,4.4553,4.4553,4.4553,4.4553,4.4553,4.4587,4.4587,4.4553,4.4553,4.4553,4.4553,4.4553,4.4553,4.4553,4.4553,4.4553,4.4553,4.4553,4.4553,4.4553,4.4553,4.4553,4.4553,4.4587,4.4891,4.55,4.5534,4.5872,4.6413,4.6583,4.665,4.665,4.6752,4.7056,4.7564,4.6955,4.6684,4.6786,4.7428,4.7767,4.78,4.8342,4.868,4.868,4.868,4.868,4.868,4.8714,4.8619,4.8467,4.8274,4.8055,4.7703,4.7209,4.6545,4.5488,4.4802,4.3841,4.256,4.2132,4.1879,4.167,4.1415,4.1265,4.1384,4.1444,4.1384,4.1384,4.1444,4.1474,4.1474,4.1893,4.2299,4.2222,4.2671,4.297,4.297,4.306,4.303,4.309,4.315,4.318,4.3299,4.3329,4.3329,4.3329,4.3329,4.3329,4.3329,4.3329,4.3329,4.3329,4.3329,4.3329,4.3329,4.3329,4.3329,4.3329,4.3329,4.317,4.2769,4.2688,4.2363,4.1564,4.1198,4.0745,4.017,3.9441,3.8908,3.8692,3.8057,3.7505,4.4823,4.5196,4.5196,4.5432,4.5771,4.5771,4.5771,4.5771,4.5771,4.5297,4.4587,4.4553,4.479,4.5196,4.5196,4.5399,4.5771,4.5771,4.5771,4.5771,4.5771,4.5771,4.5771,4.5771,4.5771,4.5771,4.5771,4.5974,4.6244,4.6312,4.6481,4.6786,4.7192,4.7597,4.797,4.8003,4.8139,4.8477,4.7767,4.7597,4.797,4.8342,4.8511,4.8511,4.8849,4.9018,4.9018,4.9018,4.9018,4.9018,4.9018,4.8894,4.8644,4.8547,4.8292,4.7737,4.7403,4.6831,4.6025,4.5317,4.439,4.3304,4.3153,4.2924,4.2617,4.2179,4.2073,4.2402,4.2432,4.2432,4.2432,4.2432,4.2432,4.2432,4.2731,4.288,4.291,4.312,4.3329,4.3329,4.3329,4.3329,4.3329,4.3329,4.3329,4.3329,4.3329,4.3329,4.3329,4.3329,4.3329,4.3329,4.3329,4.3329,4.3329,4.3329,4.3329,4.3329,4.3329,4.3329,4.3329,4.3359,4.32,4.2769,4.2718,4.2363,4.1731,4.1254,4.083,4.0315,3.9618,3.9114,3.8602,3.8057,3.7413,4.5399,4.594,4.5974,4.6278,4.6786,4.6786,4.6786,4.6786,4.6786,4.6143,4.5162,4.5094,4.5399,4.5906,4.594,4.6244,4.6718,4.6786,4.6786,4.6786,4.6786,4.6786,4.6786,4.6786,4.6786,4.6786,4.6786,4.6853,4.7022,4.7022,4.7124,4.7327,4.7868,4.8443,4.8984,4.9018,4.9018,4.8984,4.8443,4.8443,4.8984,4.9018,4.9018,4.9018,4.9018,4.9018,4.9018,4.9018,4.9018,4.9018,4.9018,4.8861,4.8547,4.8483,4.8227,4.7537,4.7235,4.6823,4.612,4.5499,4.483,4.4065,4.3988,4.3832,4.3349,4.288,4.2791,4.324,4.3269,4.3299,4.3269,4.3299,4.3329,4.3329,4.3329,4.3299,4.3329,4.3329,4.3329,4.3329,4.3329,4.3329,4.3329,4.3329,4.3329,4.3329,4.3329,4.3329,4.3329,4.3329,4.3359,4.3479,4.3449,4.3329,4.3329,4.3329,4.3419,4.3479,4.3569,4.3718,4.3778,4.3808,4.3647,4.3382,4.3189,4.2972,4.2415,4.1909,4.1425,4.1047,4.0371,3.969,3.9108,3.8556,3.7671,4.6616,4.6684,4.6684,4.6718,4.6853,4.6819,4.6853,4.6853,4.6786,4.6752,4.6616,4.6583,4.6616,4.6684,4.6684,4.6752,4.6853,4.6786,4.6819,4.6853,4.6786,4.6786,4.6853,4.6853,4.6786,4.6853,4.6887,4.7259,4.78,4.78,4.8139,4.8714,4.8883,4.8917,4.8984,4.9018,4.9018,4.9018,4.8951,4.8951,4.9018,4.9018,4.9018,4.9018,4.9018,4.9018,4.9018,4.9018,4.9018,4.9018,4.9018,4.8894,4.8547,4.8483,4.8163,4.7537,4.7167,4.6474,4.5426,4.5204,4.483,4.4143,4.3988,4.3832,4.3329,4.3269,4.3269,4.3329,4.3329,4.3329,4.3329,4.3329,4.3329,4.3329,4.3329,4.3329,4.3329,4.3329,4.3329,4.3329,4.3329,4.3329,4.3329,4.3329,4.3329,4.3329,4.3329,4.3389,4.3449,4.3449,4.3658,4.3958,4.3778,4.3449,4.3449,4.3359,4.3688,4.4137,4.4227,4.4407,4.4736,4.4945,4.5012,4.4406,4.4364,4.4082,4.3716,4.3401,4.282,4.2121,4.1522,4.0958,4.008,3.9501,3.8782,4.7056,4.7462,4.7462,4.7699,4.8071,4.8105,4.8105,4.8105,4.8105,4.8105,4.8105,4.8105,4.7868,4.7462,4.7462,4.7699,4.8105,4.8105,4.8105,4.8105,4.8105,4.8105,4.8105,4.8105,4.8105,4.8105,4.8105,4.824,4.8511,4.8578,4.8714,4.8984,4.9018,4.9018,4.9018,4.9018,4.9018,4.9018,4.9018,4.9018,4.9018,4.9018,4.9018,4.9018,4.9018,4.9018,4.9018,4.9018,4.9018,4.9018,4.9018,4.8861,4.8483,4.8483,4.8163,4.7537,4.6925,4.612,4.5278,4.5204,4.483,4.4065,4.3988,4.3832,4.3329,4.3329,4.3329,4.3329,4.3329,4.3329,4.3329,4.3329,4.3329,4.3329,4.3329,4.3329,4.3329,4.3329,4.3329,4.3329,4.3329,4.3329,4.3329,4.3329,4.3329,4.3329,4.3359,4.3509,4.3838,4.3898,4.4197,4.4676,4.4646,4.4526,4.4466,4.4496,4.4616,4.4796,4.4885,4.5065,4.5214,4.5304,4.5191,4.5084,4.4892,4.4637,4.415,4.3777,4.3341,4.2867,4.1937,4.1082,4.071,4.0239,3.9475,4.7699,4.8173,4.8206,4.8511,4.8984,4.9018,4.9018,4.9018,4.9018,4.9018,4.9018,4.9018,4.8714,4.8274,4.8206,4.8511,4.8951,4.9018,4.9018,4.9018,4.9018,4.9018,4.9018,4.9018,4.9018,4.9018,4.8984,4.8984,4.9018,4.9018,4.9018,4.9018,4.9018,4.9018,4.9018,4.9018,4.9018,4.9018,4.9018,4.9018,4.9018,4.9018,4.9018,4.9018,4.9018,4.9018,4.9018,4.9018,4.9018,4.9018,4.9018,4.8894,4.8547,4.8483,4.8163,4.747,4.6684,4.5977,4.5352,4.5204,4.483,4.4143,4.3988,4.3832,4.3409,4.3329,4.3329,4.3329,4.3329,4.3329,4.3329,4.3329,4.3329,4.3329,4.3329,4.3329,4.3329,4.3329,4.3329,4.3329,4.3329,4.3329,4.3359,4.3509,4.3658,4.3658,4.3808,4.3988,4.4436,4.4586,4.4825,4.5454,4.5574,4.5454,4.5334,4.5185,4.5334,4.5544,4.5574,4.5663,4.5753,4.5843,4.5873,4.6062,4.5509,4.5224,4.517,4.4705,4.4004,4.3409,4.2592,4.1852,4.1734,4.1152,4.0744,4.8951,4.8951,4.8951,4.8951,4.9018,4.9018,4.9018,4.9018,4.9018,4.9018,4.9018,4.9018,4.8984,4.8917,4.8883,4.8951,4.9018,4.9018,4.9018,4.9018,4.9018,4.9018,4.9018,4.9018,4.9018,4.9018,4.9018,4.9018,4.9018,4.9018,4.9018,4.9018,4.9018,4.9018,4.9018,4.9018,4.9018,4.9018,4.9018,4.9018,4.9018,4.9018,4.9018,4.9018,4.9018,4.9018,4.9018,4.9018,4.9018,4.9018,4.9018,4.8861,4.8547,4.8483,4.8098,4.7302,4.6615,4.6048,4.5541,4.5278,4.483,4.4143,4.3988,4.3832,4.3409,4.3329,4.3329,4.3329,4.3389,4.3389,4.3419,4.3359,4.3329,4.3329,4.3329,4.3329,4.3329,4.3329,4.3329,4.3389,4.3479,4.3569,4.3449,4.3868,4.4197,4.4377,4.4766,4.5155,4.5214,4.5244,4.5574,4.6052,4.6232,4.6082,4.5484,4.5603,4.5813,4.6022,4.6322,4.6411,4.689,4.7219,4.713,4.7013,4.6661,4.6401,4.6403,4.5989,4.5245,4.4641,4.4124,4.3593,4.2834,4.2753,4.2312,4.9018,4.9018,4.9018,4.9018,4.9018,4.9018,4.9018,4.9018,4.9018,4.9018,4.9018,4.9018,4.9018,4.9018,4.9018,4.9018,4.9018,4.9018,4.9018,4.9018,4.9018,4.9018,4.9018,4.9018,4.9018,4.9018,4.9018,4.9018,4.9018,4.9018,4.9018,4.9018,4.9018,4.9018,4.9018,4.9018,4.9018,4.9018,4.9018,4.9018,4.9018,4.9018,4.9018,4.9018,4.9018,4.9018,4.9018,4.9018,4.9018,4.9018,4.9018,4.8861,4.8483,4.8098,4.7638,4.7235,4.6615,4.6048,4.5541,4.5278,4.4905,4.4297,4.4065,4.394,4.3596,4.3409,4.3329,4.3419,4.3748,4.3928,4.3868,4.3599,4.3329,4.3329,4.3359,4.3389,4.3329,4.3359,4.3479,4.3898,4.4287,4.4586,4.4526,4.4796,4.4915,4.4945,4.5155,4.5484,4.5873,4.5933,4.6172,4.6741,4.695,4.686,4.6681,4.6591,4.6711,4.68,4.698,4.698,4.7249,4.7309,4.7219,4.7103,4.7106,4.6931,4.6609,4.6195,4.5685,4.5321,4.4862,4.4425,4.3926,4.3451,4.297,4.9018,4.9018,4.9018,4.9018,4.9018,4.9018,4.9018,4.9018,4.9018,4.9018,4.9018,4.9018,4.9018,4.9018,4.9018,4.9018,4.9018,4.9018,4.9018,4.9018,4.9018,4.9018,4.9018,4.9018,4.9018,4.9018,4.9018,4.9018,4.9018,4.9018,4.9018,4.9018,4.9018,4.9018,4.9018,4.9018,4.9018,4.9018,4.9018,4.9018,4.9018,4.9018,4.9018,4.9018,4.9018,4.9018,4.9018,4.9018,4.9018,4.9018,4.9221,4.9333,4.9187,4.8696,4.8226,4.7952,4.7464,4.6861,4.6424,4.6053,4.5632,4.5094,4.4782,4.4546,4.4308,4.4068,4.3988,4.4077,4.4317,4.4616,4.4556,4.4227,4.3958,4.3958,4.3958,4.3958,4.3988,4.3988,4.4197,4.4586,4.4945,4.5214,4.5334,4.5484,4.5603,4.5633,4.5783,4.6172,4.6531,4.6651,4.6741,4.7189,4.7249,4.7249,4.71,4.704,4.704,4.713,4.716,4.7279,4.7309,4.7309,4.7309,4.7222,4.7222,4.7019,4.6756,4.6314,4.5956,4.5685,4.523,4.4862,4.4303,4.3737,4.3259,4.9018,4.9018,4.9018,4.9018,4.9018,4.9018,4.9018,4.9018,4.9018,4.9018,4.9018,4.9018,4.9018,4.9018,4.9018,4.9018,4.9018,4.9018,4.9018,4.9018,4.9018,4.9018,4.9018,4.9018,4.9018,4.9018,4.9018,4.9018,4.9018,4.9018,4.9018,4.9018,4.9018,4.9018,4.9018,4.9018,4.9018,4.9018,4.9018,4.9018,4.9018,4.9052,4.912,4.9086,4.9154,4.9187,4.912,4.9086,4.9154,4.9221,4.9763,5.0281,5.0425,5.0192,4.9918,4.9403,4.8933,4.8496,4.8052,4.7383,4.6827,4.6357,4.6112,4.5667,4.5475,4.5259,4.5095,4.5065,4.5214,4.5304,4.5304,4.5304,4.5214,4.5244,4.5065,4.5065,4.5125,4.5244,4.5274,4.5304,4.5454,4.5364,4.5484,4.5933,4.6292,4.6411,4.6741,4.707,4.713,4.713,4.7249,4.7279,4.7309,4.7309,4.7309,4.7309,4.7309,4.7309,4.7279,4.7309,4.7309,4.7309,4.7309,4.7309,4.7309,4.7135,4.6931,4.6491,4.6225,4.5956,4.5595,4.523,4.4676,4.4115,4.3642,4.9018,4.9018,4.9018,4.9018,4.9018,4.9018,4.9018,4.9018,4.9018,4.9018,4.9018,4.9018,4.9018,4.9018,4.9018,4.9018,4.9018,4.9018,4.9018,4.9052,4.9018,4.9018,4.9018,4.9018,4.9018,4.9018,4.9018,4.9018,4.9018,4.9052,4.9018,4.9018,4.9052,4.9018,4.9052,4.9018,4.9018,4.9018,4.9018,4.9018,4.9052,4.9526,4.9763,4.9796,5.0236,5.0541,5.0507,5.0033,4.9999,5.0439,5.0744,5.0787,5.0693,5.0391,5.0017,4.9599,4.8997,4.8593,4.8147,4.7617,4.7107,4.6762,4.6314,4.5961,4.591,4.5612,4.5334,4.5394,4.5693,4.5992,4.6082,4.6441,4.6262,4.5394,4.5274,4.5364,4.5454,4.5753,4.5963,4.6052,4.6381,4.6651,4.6681,4.692,4.692,4.695,4.716,4.7309,4.7309,4.7309,4.7309,4.7309,4.7309,4.7309,4.7309,4.7309,4.7309,4.7309,4.7309,4.7309,4.7309,4.7309,4.7309,4.7309,4.7309,4.7222,4.6931,4.6756,4.6491,4.6225,4.5866,4.5413,4.4954,4.449,4.4021,4.9424,4.9424,4.9729,4.983,4.983,4.983,4.983,4.983,4.983,4.983,4.983,4.983,4.983,4.983,4.983,4.983,4.983,4.983,4.983,4.9695,4.9154,4.9018,4.9018,4.9018,4.9018,4.9086,4.9289,4.939,4.9424,4.9695,4.983,4.983,4.983,4.9864,4.983,4.983,4.983,4.983,4.983,4.983,4.9932,5.027,5.0507,5.0574,5.098,5.1319,5.1522,5.115,5.098,5.1251,5.1454,5.1528,5.1463,5.136,5.0982,5.0457,4.9953,4.9544,4.9094,4.8544,4.798,4.7743,4.7099,4.672,4.6637,4.6274,4.6052,4.6142,4.6441,4.6681,4.677,4.701,4.686,4.6172,4.6082,4.6022,4.6112,4.6411,4.6651,4.677,4.704,4.7249,4.7309,4.7309,4.7309,4.7309,4.7309,4.7309,4.7309,4.7309,4.7309,4.7309,4.7309,4.7309,4.7309,4.7309,4.7309,4.7309,4.7309,4.7309,4.7309,4.7309,4.7309,4.7309,4.7309,4.7309,4.7106,4.6931,4.6726,4.6403,4.6135,4.5776,4.5321,4.4862,4.4303,5.0135,5.0236,5.0913,5.1116,5.1082,5.1082,5.1048,5.115,5.1116,5.1082,5.1116,5.1014,5.1082,5.115,5.098,5.098,5.1183,5.1048,5.098,5.0676,4.9932,4.9357,4.939,4.939,4.9424,4.9424,4.9898,5.0135,5.0202,5.071,5.1217,5.1048,5.098,5.115,5.098,5.115,5.1048,5.098,5.1082,5.1082,5.1082,5.1251,5.1285,5.1285,5.1454,5.1792,5.2266,5.23,5.1995,5.1555,5.2097,5.2438,5.2771,5.2903,5.2387,5.1638,5.1614,5.1038,5.0493,4.9679,4.9313,4.896,4.8306,4.7964,4.7782,4.7352,4.704,4.707,4.716,4.7249,4.7249,4.7279,4.7249,4.7279,4.707,4.71,4.7249,4.7249,4.7189,4.7219,4.7309,4.7309,4.7309,4.7309,4.7309,4.7309,4.7309,4.7309,4.7309,4.7309,4.7309,4.7309,4.7309,4.7309,4.7309,4.7309,4.7309,4.7309,4.7309,4.7309,4.7309,4.7309,4.7309,4.7309,4.7309,4.7309,4.7193,4.7106,4.6931,4.6668,4.6314,4.6046,4.5595,4.5138,4.4583,5.0913,5.0947,5.1116,5.1217,5.1217,5.1217,5.1251,5.1217,5.1251,5.1352,5.1251,5.1217,5.1319,5.1251,5.1251,5.1217,5.1319,5.1285,5.1217,5.1183,5.0879,5.0642,5.0642,5.0608,5.0608,5.0608,5.0744,5.0913,5.0947,5.1217,5.1319,5.1217,5.1352,5.1285,5.1217,5.1319,5.1217,5.1217,5.1251,5.1285,5.1386,5.1792,5.2029,5.2063,5.257,5.2942,5.3179,5.3179,5.3145,5.2942,5.3044,5.3045,5.2939,5.2903,5.2553,5.1908,5.1647,5.1275,5.0634,5.001,4.9501,4.9259,4.8635,4.8133,4.7964,4.7709,4.7452,4.7396,4.7309,4.7309,4.7309,4.7309,4.7309,4.7309,4.7309,4.7309,4.7309,4.7309,4.7309,4.7309,4.7309,4.7309,4.7309,4.7309,4.7309,4.7309,4.7309,4.7309,4.7309,4.7309,4.7309,4.7309,4.7309,4.7309,4.7309,4.7309,4.7309,4.7309,4.7309,4.7309,4.7309,4.7309,4.7309,4.7309,4.7309,4.7309,4.7309,4.7222,4.7019,4.6844,4.658,4.6225,4.5866,4.5413,4.4769,5.1691,5.1691,5.2063,5.2164,5.2198,5.2198,5.2164,5.2164,5.2164,5.2198,5.2164,5.2198,5.2198,5.2164,5.2198,5.2198,5.2164,5.2164,5.2198,5.2198,5.2198,5.1826,5.1386,5.1217,5.1217,5.1285,5.1522,5.1657,5.1758,5.1995,5.2164,5.2232,5.2164,5.2164,5.2266,5.2164,5.2164,5.2198,5.2198,5.2164,5.2232,5.257,5.2739,5.2875,5.3315,5.3518,5.3518,5.3518,5.3518,5.3484,5.3484,5.3348,5.3041,5.2972,5.2624,5.2053,5.1794,5.135,5.0743,5.0168,4.9661,4.9259,4.8769,4.8301,4.8049,4.7794,4.7538,4.7309,4.7309,4.7309,4.7309,4.7309,4.7309,4.7309,4.7309,4.7309,4.7309,4.7309,4.7309,4.7309,4.7309,4.7309,4.7309,4.7309,4.7309,4.7309,4.7309,4.7309,4.7309,4.7309,4.7309,4.7309,4.7309,4.7309,4.7309,4.7309,4.7309,4.7309,4.7309,4.7309,4.7309,4.7309,4.7309,4.7309,4.7309,4.7309,4.7309,4.7309,4.7135,4.6931,4.6785,4.6491,4.6046,4.5504,4.4862,5.2401,5.2503,5.3179,5.3518,5.345,5.3484,5.3348,5.345,5.3348,5.3382,5.3348,5.345,5.3281,5.3518,5.3213,5.3416,5.3416,5.3247,5.3348,5.3315,5.3213,5.2739,5.1792,5.1758,5.1725,5.1758,5.2198,5.2367,5.2536,5.3112,5.3416,5.3281,5.3315,5.345,5.3247,5.3348,5.3484,5.3315,5.3247,5.3213,5.3213,5.3315,5.3348,5.3382,5.3416,5.3518,5.3518,5.3518,5.3518,5.3518,5.3518,5.3348,5.3179,5.2972,5.2694,5.2307,5.1908,5.1499,5.0972,5.048,4.9979,4.9452,4.8965,4.8469,4.8049,4.7794,4.7568,4.7309,4.7309,4.7309,4.7309,4.7309,4.7309,4.7309,4.7309,4.7309,4.7309,4.7309,4.7309,4.7309,4.7309,4.7309,4.7309,4.7309,4.7309,4.7309,4.7309,4.7309,4.7309,4.7309,4.7309,4.7309,4.7309,4.7309,4.7309,4.7309,4.7309,4.7309,4.7309,4.7309,4.7309,4.7309,4.7309,4.7309,4.7309,4.7309,4.7309,4.7222,4.7222,4.7019,4.6844,4.658,4.6225,4.5595,4.4926,5.3247,5.3281,5.345,5.3518,5.3518,5.3518,5.3518,5.3518,5.3518,5.3518,5.3518,5.3518,5.3518,5.3518,5.3518,5.3518,5.3518,5.3518,5.3518,5.3518,5.3518,5.3382,5.2976,5.2909,5.2942,5.2976,5.3112,5.3213,5.3315,5.3348,5.3518,5.3518,5.3518,5.3518,5.3518,5.3518,5.3518,5.3518,5.3518,5.3518,5.3518,5.3518,5.3518,5.3518,5.3518,5.3518,5.3518,5.3518,5.3518,5.3518,5.3518,5.3416,5.3179,5.3041,5.2764,5.2378,5.198,5.1614,5.1092,5.0557,5.0058,4.9613,4.9128,4.8635,4.8049,4.7964,4.7709,4.7396,4.7309,4.7309,4.7309,4.7309,4.7309,4.7309,4.7309,4.7309,4.7309,4.7309,4.7309,4.7309,4.7309,4.7309,4.7309,4.7309,4.7309,4.7309,4.7309,4.7309,4.7309,4.7309,4.7309,4.7309,4.7309,4.7309,4.7309,4.7309,4.7309,4.7309,4.7309,4.7309,4.7309,4.7309,4.7309,4.7309,4.7309,4.7309,4.7309,4.7309,4.7222,4.7048,4.6844,4.658,4.6225,4.5566,4.4926,5.3518,5.3518,5.3518,5.3518,5.3518,5.3518,5.3518,5.3518,5.3518,5.3518,5.3518,5.3518,5.3518,5.3518,5.3518,5.3518,5.3518,5.3518,5.3518,5.3518,5.3518,5.3518,5.3518,5.3518,5.3518,5.3518,5.3484,5.3518,5.3518,5.3518,5.3518,5.3518,5.3518,5.3518,5.3518,5.3518,5.3518,5.3518,5.3518,5.3518,5.3518,5.3518,5.3518,5.3518,5.3518,5.3518,5.3518,5.3518,5.3518,5.3518,5.3518,5.345,5.328,5.3075,5.2834,5.2553,5.2053,5.1721,5.1242,5.0788,5.0246,4.9773,4.9372,4.8883,4.8385,4.8133,4.7794,4.7538,4.7396,4.7309,4.7309,4.7309,4.7309,4.7309,4.7309,4.7309,4.7309,4.7309,4.7309,4.7309,4.7309,4.7309,4.7309,4.7309,4.7309,4.7309,4.7309,4.7309,4.7309,4.7309,4.7309,4.7309,4.7309,4.7309,4.7309,4.7309,4.7309,4.7309,4.7309,4.7309,4.7309,4.7309,4.7309,4.7309,4.7309,4.7309,4.7309,4.7309,4.7222,4.7019,4.6844,4.658,4.6225,4.5566,4.5046,5.3518,5.3518,5.3518,5.3518,5.3518,5.3518,5.3518,5.3518,5.3518,5.3518,5.3518,5.3518,5.3518,5.3518,5.3518,5.3518,5.3518,5.3518,5.3518,5.3518,5.3518,5.3518,5.3518,5.3518,5.3518,5.3518,5.3518,5.3518,5.3518,5.3518,5.3518,5.3518,5.3518,5.3518,5.3518,5.3518,5.3518,5.3518,5.3518,5.3518,5.3518,5.3518,5.3518,5.3518,5.3518,5.3518,5.3518,5.3518,5.3518,5.3518,5.3518,5.3518,5.345,5.3212,5.2903,5.2834,5.2269,5.1835,5.1499,5.0972,5.0434,5.001,4.9533,4.9097,4.8604,4.8218,4.788,4.7624,4.7482,4.7309,4.7309,4.7309,4.7309,4.7309,4.7309,4.7309,4.7309,4.7309,4.7309,4.7309,4.7309,4.7309,4.7309,4.7309,4.7309,4.7309,4.7309,4.7309,4.7309,4.7309,4.7309,4.7309,4.7309,4.7309,4.7309,4.7309,4.7309,4.7309,4.7309,4.7309,4.7309,4.7309,4.7309,4.7309,4.7309,4.7309,4.7309,4.7309,4.7222,4.6931,4.6756,4.6491,4.6135,4.5566,4.5046,5.3518,5.3518,5.3518,5.3518,5.3518,5.3518,5.3518,5.3518,5.3518,5.3518,5.3518,5.3518,5.3518,5.3518,5.3518,5.3518,5.3518,5.3518,5.3518,5.3518,5.3518,5.3518,5.3518,5.3518,5.3518,5.3518,5.3518,5.3518,5.3518,5.3518,5.3518,5.3518,5.3518,5.3518,5.3518,5.3518,5.3518,5.3518,5.3518,5.3518,5.3518,5.3518,5.3518,5.3518,5.3518,5.3518,5.3518,5.3518,5.3518,5.3518,5.3518,5.3518,5.3416,5.328,5.3041,5.2834,5.2449,5.202,5.1721,5.1199,5.0634,5.0136,4.9661,4.9097,4.8687,4.8218,4.788,4.7624,4.7396,4.7309,4.7309,4.7309,4.7309,4.7309,4.7309,4.7309,4.7309,4.7309,4.7309,4.7309,4.7309,4.7309,4.7309,4.7309,4.7309,4.7309,4.7309,4.7309,4.7309,4.7309,4.7309,4.7309,4.7309,4.7309,4.7309,4.7309,4.7309,4.7309,4.7309,4.7309,4.7309,4.7309,4.7309,4.7309,4.7309,4.7309,4.7309,4.7309,4.7135,4.6931,4.6668,4.6491,4.5956,4.5413,4.4833,5.3518,5.3518,5.3518,5.3518,5.3518,5.3518,5.3518,5.3518,5.3518,5.3518,5.3518,5.3518,5.3518,5.3518,5.3518,5.3518,5.3518,5.3518,5.3518,5.3518,5.3518,5.3518,5.3518,5.3518,5.3518,5.3518,5.3518,5.3518,5.3518,5.3518,5.3518,5.3518,5.3518,5.3518,5.3518,5.3518,5.3518,5.3518,5.3518,5.3518,5.3518,5.3518,5.3518,5.3518,5.3518,5.3518,5.3518,5.3518,5.3518,5.3518,5.3518,5.3518,5.3518,5.3416,5.3212,5.2903,5.252,5.2164,5.1835,5.135,5.0864,5.0402,4.9852,4.934,4.8934,4.8469,4.788,4.7538,4.7396,4.7309,4.7309,4.7309,4.7309,4.7309,4.7309,4.7309,4.7309,4.7309,4.7309,4.7309,4.7309,4.7309,4.7309,4.7309,4.7309,4.7309,4.7309,4.7309,4.7309,4.7309,4.7309,4.7309,4.7309,4.7309,4.7309,4.7309,4.7309,4.7309,4.7309,4.7309,4.7309,4.7309,4.7309,4.7309,4.7309,4.7309,4.7309,4.7309,4.7048,4.6844,4.6668,4.6403,4.5866,4.5321,4.4769,5.3518,5.3518,5.3518,5.3518,5.3518,5.3518,5.3518,5.3518,5.3518,5.3518,5.3518,5.3518,5.3518,5.3518,5.3518,5.3518,5.3518,5.3518,5.3518,5.3518,5.3518,5.3518,5.3518,5.3518,5.3518,5.3518,5.3518,5.3518,5.3518,5.3518,5.3518,5.3518,5.3518,5.3518,5.3518,5.3518,5.3518,5.3518,5.3518,5.3518,5.3518,5.3518,5.3518,5.3518,5.3518,5.3518,5.3518,5.3518,5.3518,5.3518,5.3518,5.3518,5.3518,5.3518,5.3348,5.2972,5.259,5.2269,5.1908,5.1499,5.1124,5.0666,5.001,4.9582,4.9097,4.8521,4.7794,4.7452,4.7309,4.7309,4.7309,4.7309,4.7309,4.7309,4.7309,4.7309,4.7309,4.7309,4.7309,4.7309,4.7309,4.7309,4.7309,4.7309,4.7309,4.7309,4.7309,4.7309,4.7309,4.7309,4.7309,4.7309,4.7309,4.7309,4.7309,4.7309,4.7309,4.7309,4.7309,4.7309,4.7309,4.7309,4.7309,4.7309,4.7309,4.7309,4.7309,4.7222,4.7048,4.6844,4.6668,4.6225,4.5595,4.5138,4.4676,5.3518,5.3518,5.3518,5.3518,5.3518,5.3518,5.3518,5.3518,5.3518,5.3518,5.3518,5.3518,5.3518,5.3518,5.3518,5.3518,5.3518,5.3518,5.3518,5.3518,5.3518,5.3518,5.3518,5.3518,5.3518,5.3518,5.3518,5.3518,5.3518,5.3518,5.3518,5.3518,5.3518,5.3518,5.3518,5.3518,5.3518,5.3518,5.3518,5.3518,5.3518,5.3518,5.3518,5.3518,5.3518,5.3518,5.3518,5.3518,5.3518,5.3518,5.3518,5.3518,5.3518,5.3518,5.3348,5.3212,5.2972,5.2694,5.2164,5.1762,5.1275,5.082,5.0246,4.9741,4.9097,4.8552,4.788,4.7624,4.7366,4.7309,4.7309,4.7309,4.7309,4.7309,4.7309,4.7309,4.7309,4.7309,4.7309,4.7309,4.7309,4.7309,4.7309,4.7309,4.7309,4.7309,4.7309,4.7309,4.7309,4.7309,4.7309,4.7309,4.7309,4.7309,4.7309,4.7309,4.7309,4.7309,4.7309,4.7309,4.7309,4.7309,4.7309,4.7309,4.7309,4.7309,4.7309,4.7222,4.7048,4.6873,4.6697,4.6046,4.5293,4.4954,4.4724,5.3551,5.3518,5.3518,5.3518,5.3518,5.3518,5.3518,5.3518,5.3518,5.3518,5.3518,5.3518,5.3518,5.3518,5.3518,5.3518,5.3518,5.3518,5.3518,5.3518,5.3518,5.3518,5.3518,5.3518,5.3518,5.3518,5.3518,5.3518,5.3518,5.3518,5.3518,5.3518,5.3518,5.3518,5.3518,5.3518,5.3518,5.3518,5.3518,5.3518,5.3518,5.3518,5.3518,5.3518,5.3518,5.3518,5.3518,5.3518,5.3518,5.3518,5.3518,5.3518,5.3518,5.3518,5.345,5.3348,5.3041,5.2694,5.2307,5.1908,5.1466,5.1016,5.0448,4.9741,4.9015,4.8385,4.788,4.7624,4.7396,4.7309,4.7309,4.7309,4.7309,4.7309,4.7309,4.7309,4.7309,4.7309,4.7309,4.7309,4.7309,4.7309,4.7309,4.7309,4.7309,4.7309,4.7309,4.7309,4.7309,4.7309,4.7309,4.7309,4.7309,4.7309,4.7309,4.7309,4.7309,4.7309,4.7309,4.7309,4.7309,4.7309,4.7309,4.7309,4.7309,4.7309,4.7309,4.7222,4.7135,4.6873,4.6609,4.6043,4.5493,4.5373,4.5071,5.3651,5.3551,5.3518,5.3518,5.3518,5.3518,5.3518,5.3518,5.3518,5.3518,5.3518,5.3518,5.3518,5.3518,5.3518,5.3518,5.3518,5.3518,5.3518,5.3518,5.3518,5.3518,5.3518,5.3518,5.3518,5.3518,5.3518,5.3518,5.3518,5.3518,5.3518,5.3518,5.3518,5.3518,5.3518,5.3518,5.3518,5.3518,5.3518,5.3518,5.3518,5.3518,5.3518,5.3518,5.3518,5.3518,5.3518,5.3518,5.3518,5.3518,5.3518,5.3518,5.3518,5.3518,5.3518,5.3416,5.311,5.2834,5.2483,5.2053,5.1721,5.1167,5.0448,4.9661,4.8934,4.8385,4.7964,4.7709,4.7482,4.7309,4.7309,4.7309,4.7309,4.7309,4.7309,4.7309,4.7309,4.7309,4.7309,4.7309,4.7309,4.7309,4.7309,4.7309,4.7309,4.7309,4.7309,4.7309,4.7309,4.7309,4.7309,4.7309,4.7309,4.7309,4.7309,4.7309,4.7309,4.7309,4.7309,4.7309,4.7309,4.7309,4.7309,4.7309,4.7339,4.7309,4.7309,4.7222,4.7135,4.6933,4.6638,4.6308,4.5965,4.5808,4.5288,5.3849,5.3651,5.3551,5.3518,5.3518,5.3518,5.3518,5.3518,5.3518,5.3518,5.3518,5.3518,5.3518,5.3518,5.3518,5.3518,5.3518,5.3518,5.3518,5.3518,5.3518,5.3518,5.3518,5.3518,5.3518,5.3518,5.3518,5.3518,5.3518,5.3518,5.3518,5.3518,5.3518,5.3518,5.3518,5.3518,5.3518,5.3518,5.3518,5.3518,5.3518,5.3518,5.3518,5.3518,5.3518,5.3518,5.3518,5.3518,5.3518,5.3518,5.3518,5.3518,5.3518,5.3518,5.3518,5.3416,5.328,5.2972,5.2694,5.2197,5.1762,5.1167,5.048,4.9613,4.9178,4.8469,4.8049,4.788,4.7568,4.7396,4.7309,4.7309,4.7309,4.7309,4.7309,4.7309,4.7309,4.7309,4.7309,4.7309,4.7309,4.7309,4.7309,4.7309,4.7309,4.7309,4.7309,4.7309,4.7309,4.7309,4.7309,4.7309,4.7309,4.7309,4.7309,4.7309,4.7309,4.7309,4.7309,4.7309,4.7309,4.7309,4.7309,4.7369,4.7399,4.7339,4.7429,4.7698,4.7642,4.7081,4.6784,4.6741,4.6375,4.6011,4.5283,5.4045,5.3849,5.3717,5.3551,5.3518,5.3518,5.3518,5.3518,5.3518,5.3518,5.3518,5.3518,5.3518,5.3518,5.3518,5.3518,5.3518,5.3518,5.3518,5.3518,5.3518,5.3518,5.3518,5.3518,5.3518,5.3518,5.3518,5.3518,5.3518,5.3518,5.3518,5.3518,5.3518,5.3518,5.3518,5.3518,5.3518,5.3518,5.3518,5.3518,5.3518,5.3518,5.3518,5.3518,5.3518,5.3518,5.3518,5.3518,5.3518,5.3518,5.3518,5.3518,5.3518,5.3518,5.3518,5.3518,5.3348,5.311,5.2903,5.234,5.1835,5.1016,5.0324,4.9693,4.934,4.8635,4.8218,4.7964,4.7709,4.7452,4.7309,4.7309,4.7309,4.7309,4.7309,4.7309,4.7309,4.7309,4.7309,4.7309,4.7309,4.7309,4.7309,4.7309,4.7309,4.7309,4.7309,4.7309,4.7309,4.7309,4.7309,4.7309,4.7309,4.7309,4.7309,4.7309,4.7309,4.7309,4.7309,4.7309,4.7309,4.7309,4.7339,4.7399,4.7668,4.7848,4.8087,4.8327,4.8149,4.7524,4.7457,4.7614,4.7081,4.6349,4.5614,5.4303,5.411,5.3915,5.3717,5.3551,5.3484,5.3518,5.3518,5.3518,5.3518,5.3518,5.3518,5.3518,5.3518,5.3518,5.3518,5.3518,5.3518,5.3518,5.3518,5.3518,5.3518,5.3518,5.3518,5.3518,5.3518,5.3518,5.3518,5.3518,5.3518,5.3518,5.3518,5.3518,5.3518,5.3518,5.3518,5.3518,5.3518,5.3518,5.3518,5.3518,5.3518,5.3518,5.3518,5.3518,5.3518,5.3518,5.3518,5.3518,5.3518,5.3518,5.3518,5.3518,5.3518,5.3518,5.345,5.3348,5.3212,5.2903,5.2412,5.1762,5.1048,5.0402,4.9821,4.9259,4.88,4.8301,4.7964,4.7709,4.7538,4.7309,4.7309,4.7309,4.7309,4.7309,4.7309,4.7309,4.7309,4.7309,4.7309,4.7309,4.7309,4.7309,4.7309,4.7309,4.7309,4.7309,4.7309,4.7309,4.7309,4.7309,4.7309,4.7309,4.7309,4.7309,4.7309,4.7309,4.7309,4.7309,4.7309,4.7309,4.7399,4.7578,4.7788,4.8087,4.8446,4.8775,4.9045,4.8655,4.8056,4.8038,4.7998,4.7685,4.6901,4.6223,5.4655,5.4431,5.411,5.3849,5.3717,5.3551,5.3518,5.3518,5.3518,5.3518,5.3518,5.3518,5.3518,5.3518,5.3518,5.3518,5.3518,5.3518,5.3518,5.3518,5.3518,5.3518,5.3518,5.3518,5.3518,5.3518,5.3518,5.3518,5.3518,5.3518,5.3518,5.3518,5.3518,5.3518,5.3518,5.3518,5.3518,5.3518,5.3518,5.3518,5.3518,5.3518,5.3518,5.3518,5.3518,5.3518,5.3518,5.3518,5.3518,5.3518,5.3518,5.3518,5.3518,5.3518,5.3518,5.3518,5.3518,5.328,5.2903,5.2197,5.1573,5.0972,5.0448,4.99,4.934,4.8883,4.8355,4.8049,4.7794,4.7538,4.7396,4.7309,4.7309,4.7309,4.7309,4.7309,4.7309,4.7309,4.7309,4.7309,4.7309,4.7309,4.7309,4.7309,4.7309,4.7309,4.7309,4.7309,4.7309,4.7309,4.7309,4.7309,4.7309,4.7309,4.7309,4.7309,4.7309,4.7309,4.7399,4.7519,4.7728,4.7967,4.8147,4.8267,4.8686,4.9194,4.9494,4.9763,4.9215,4.8845,4.8201,4.8052,4.7841,4.7383,4.6556,5.478,5.4655,5.4303,5.4045,5.3849,5.3618,5.3518,5.3518,5.3518,5.3518,5.3518,5.3518,5.3518,5.3518,5.3518,5.3518,5.3518,5.3518,5.3518,5.3518,5.3518,5.3518,5.3518,5.3518,5.3518,5.3518,5.3518,5.3518,5.3518,5.3518,5.3518,5.3518,5.3518,5.3518,5.3518,5.3518,5.3518,5.3518,5.3518,5.3518,5.3518,5.3518,5.3518,5.3518,5.3518,5.3518,5.3518,5.3518,5.3518,5.3518,5.3518,5.3518,5.3518,5.3518,5.3518,5.3518,5.3518,5.328,5.2834,5.2269,5.1614,5.1059,5.0525,4.9979,4.934,4.9047,4.8552,4.8133,4.788,4.7624,4.7396,4.7309,4.7309,4.7309,4.7309,4.7309,4.7309,4.7309,4.7309,4.7309,4.7309,4.7429,4.7459,4.7698,4.7728,4.7638,4.7668,4.7429,4.7339,4.7309,4.7309,4.7309,4.7309,4.7309,4.7339,4.7578,4.7638,4.7638,4.7818,4.8027,4.8267,4.8536,4.8775,4.8955,4.9434,4.9942,5.003,5.0054,5.007,4.9647,4.8913,4.8226,4.7982,4.7438,4.6637,5.4965,5.4842,5.4431,5.4239,5.4045,5.3751,5.3551,5.3518,5.3518,5.3518,5.3518,5.3518,5.3518,5.3518,5.3518,5.3518,5.3518,5.3518,5.3518,5.3518,5.3518,5.3518,5.3518,5.3518,5.3518,5.3518,5.3518,5.3518,5.3518,5.3518,5.3518,5.3518,5.3518,5.3518,5.3518,5.3518,5.3518,5.3518,5.3518,5.3518,5.3518,5.3518,5.3518,5.3518,5.3518,5.3518,5.3518,5.3518,5.3518,5.3518,5.3518,5.3518,5.3518,5.3518,5.3518,5.3518,5.328,5.3144,5.2764,5.2197,5.1614,5.1135,5.0602,5.0058,4.9452,4.921,4.8635,4.8301,4.8049,4.7709,4.7396,4.7309,4.7309,4.7309,4.7369,4.7369,4.7369,4.7369,4.7578,4.7549,4.7668,4.7728,4.7848,4.8027,4.8267,4.8147,4.8057,4.7758,4.7489,4.7489,4.7519,4.7519,4.7638,4.7758,4.7908,4.8117,4.8117,4.7997,4.8267,4.8626,4.8835,4.9134,4.9374,4.9673,5.0152,5.0418,5.0351,5.0372,5.0235,4.9844,4.9259,4.8696,4.8179,4.7363,4.656,5.5294,5.4992,5.462,5.4367,5.4175,5.3849,5.3584,5.3518,5.3518,5.3518,5.3518,5.3518,5.3518,5.3518,5.3518,5.3518,5.3518,5.3518,5.3518,5.3518,5.3518,5.3518,5.3518,5.3518,5.3518,5.3518,5.3518,5.3518,5.3518,5.3518,5.3518,5.3518,5.3518,5.3518,5.3518,5.3518,5.3518,5.3518,5.3518,5.3518,5.3518,5.3518,5.3518,5.3518,5.3518,5.3518,5.3518,5.3518,5.3518,5.3518,5.3518,5.3518,5.3518,5.3518,5.3518,5.345,5.3144,5.2972,5.2764,5.2197,5.1614,5.1135,5.0711,5.0168,4.9613,4.921,4.88,4.8301,4.7964,4.7709,4.7396,4.7396,4.7309,4.7369,4.7429,4.7459,4.7489,4.7638,4.7908,4.8087,4.8267,4.8416,4.8716,4.8925,4.8805,4.8745,4.8596,4.8386,4.8117,4.7908,4.7908,4.7938,4.8057,4.8297,4.8476,4.8656,4.8686,4.8566,4.8985,4.9344,4.9553,4.9763,5.0092,5.0421,5.084,5.0956,5.0644,5.0389,5.022,4.9795,4.9207,4.871,4.8106,4.7157,4.635,5.5448,5.5329,5.4904,5.4592,5.4367,5.3915,5.3584,5.3484,5.3518,5.3518,5.3518,5.3518,5.3518,5.3518,5.3518,5.3518,5.3518,5.3518,5.3518,5.3518,5.3518,5.3518,5.3518,5.3518,5.3518,5.3518,5.3518,5.3518,5.3518,5.3518,5.3518,5.3518,5.3518,5.3518,5.3551,5.3518,5.3585,5.3585,5.3619,5.3518,5.3518,5.3518,5.3551,5.3585,5.3619,5.3619,5.3687,5.3687,5.3687,5.3619,5.3551,5.3518,5.3518,5.3518,5.3518,5.3416,5.3144,5.2903,5.2764,5.2197,5.1614,5.1135,5.0602,5.0058,4.9501,4.9178,4.8852,4.8385,4.7964,4.7739,4.7602,4.7489,4.7549,4.7698,4.7818,4.7997,4.8057,4.8267,4.8566,4.8835,4.9015,4.9224,4.9523,4.9464,4.9374,4.9314,4.9224,4.9075,4.8805,4.8566,4.8386,4.8386,4.8656,4.8955,4.9015,4.9164,4.9164,4.9224,4.9673,4.9972,5.0122,5.0361,5.078,5.099,5.1109,5.0917,5.0662,5.0405,5.0309,4.9698,4.9108,4.8509,4.7903,4.7053,4.6218,5.5625,5.5448,5.5088,5.4683,5.4367,5.4045,5.3783,5.3618,5.3518,5.3518,5.3518,5.3518,5.3518,5.3518,5.3518,5.3518,5.3518,5.3518,5.3518,5.3518,5.3518,5.3518,5.3518,5.3518,5.3518,5.3518,5.3518,5.3518,5.3518,5.3518,5.3518,5.3518,5.3518,5.3721,5.389,5.4059,5.4194,5.4126,5.3957,5.3619,5.3551,5.3585,5.3653,5.3923,5.3923,5.4059,5.4296,5.4296,5.4329,5.4363,5.4363,5.4397,5.4296,5.4194,5.3619,5.3483,5.3144,5.2834,5.2624,5.2125,5.1614,5.1092,5.0557,4.9979,4.9501,4.921,4.8718,4.8218,4.8079,4.797,4.7809,4.7728,4.7908,4.8087,4.8386,4.8656,4.8835,4.9045,4.9314,4.9613,4.9823,5.0032,5.0092,5.0002,5.0062,5.0212,5.0272,5.0212,4.9793,4.9314,4.9045,4.8925,4.9284,4.9643,4.9703,4.9793,4.9972,5.0122,5.0391,5.0661,5.072,5.078,5.102,5.1109,5.1199,5.0947,5.0596,5.0501,5.0309,4.96,4.8909,4.8409,4.7801,4.695,4.6218,5.5764,5.5507,5.5113,5.4745,5.4303,5.4239,5.4045,5.3717,5.3618,5.3484,5.3518,5.3518,5.3518,5.3518,5.3518,5.3518,5.3518,5.3518,5.3518,5.3518,5.3518,5.3518,5.3518,5.3518,5.3518,5.3518,5.3518,5.3518,5.3518,5.3653,5.3788,5.3619,5.3822,5.416,5.4634,5.4702,5.4871,5.5074,5.4566,5.4059,5.3923,5.3856,5.3991,5.4566,5.4769,5.4905,5.5412,5.5649,5.5716,5.5683,5.5649,5.5547,5.531,5.504,5.4295,5.3784,5.3578,5.3298,5.2942,5.254,5.1922,5.1371,5.0639,5.0311,4.9984,4.9388,4.8859,4.856,4.848,4.8494,4.8443,4.8356,4.8506,4.8745,4.9045,4.9254,4.9404,4.9673,5.0032,5.0301,5.0481,5.069,5.072,5.0631,5.0571,5.093,5.102,5.096,5.072,5.0092,4.9853,4.9613,4.9942,5.0331,5.0391,5.0541,5.087,5.1079,5.1109,5.1079,5.099,5.1079,5.1199,5.1229,5.1229,5.0947,5.0692,5.0501,5.0212,4.9305,4.871,4.8308,4.7671,4.6846,4.6218,5.6106,5.5764,5.5234,5.4869,5.4655,5.4303,5.411,5.3915,5.3717,5.3618,5.3518,5.3518,5.3518,5.3518,5.3518,5.3518,5.3518,5.3518,5.3518,5.3518,5.3518,5.3518,5.3518,5.3518,5.3518,5.3518,5.3518,5.3551,5.3687,5.3991,5.4329,5.4397,5.4668,5.5141,5.5412,5.5446,5.5615,5.5953,5.5615,5.5175,5.5175,5.5175,5.5344,5.5446,5.5513,5.5547,5.5852,5.5818,5.575,5.5716,5.5716,5.5683,5.5683,5.5513,5.5238,5.4895,5.4481,5.4128,5.3691,5.3288,5.2834,5.2313,5.1789,5.1367,5.0778,4.9956,4.9412,4.9108,4.8914,4.8982,4.9044,4.9104,4.9164,4.9464,4.9703,4.9853,5.0002,5.0361,5.072,5.09,5.1109,5.1169,5.1199,5.1229,5.1229,5.1199,5.1199,5.1169,5.1139,5.078,5.069,5.0541,5.072,5.096,5.099,5.099,5.1169,5.1229,5.1169,5.1199,5.1229,5.1229,5.1229,5.1229,5.1135,5.0852,5.0662,5.0596,4.999,4.9207,4.8581,4.8308,4.7466,4.6742,4.6112,5.6273,5.6049,5.5472,5.5088,5.478,5.4592,5.4303,5.411,5.3915,5.3717,5.3618,5.3551,5.3518,5.3518,5.3518,5.3518,5.3518,5.3518,5.3518,5.3518,5.3518,5.3518,5.3518,5.3518,5.3518,5.3518,5.3551,5.3619,5.3957,5.4296,5.4634,5.5074,5.5615,5.5919,5.6122,5.6224,5.6359,5.6697,5.6596,5.6596,5.6461,5.619,5.6021,5.6021,5.6224,5.6325,5.663,5.6664,5.6697,5.6697,5.6765,5.6461,5.6393,5.6224,5.5845,5.5362,5.5013,5.4862,5.4411,5.3989,5.3636,5.3038,5.2295,5.156,5.1172,5.0406,5.0013,4.9667,4.9398,4.9373,4.9644,4.9703,5.0032,5.0331,5.0481,5.0631,5.069,5.084,5.102,5.1079,5.1199,5.1199,5.1229,5.1229,5.1229,5.1229,5.1229,5.1229,5.1229,5.1229,5.1229,5.1229,5.1229,5.1229,5.1139,5.1139,5.1199,5.1229,5.1229,5.1229,5.1229,5.1229,5.1229,5.1229,5.1135,5.0947,5.0787,5.0596,4.999,4.9108,4.8681,4.828,4.7466,4.6719,4.6301,5.6437,5.6328,5.5706,5.5269,5.4904,5.478,5.4557,5.4239,5.4045,5.3849,5.3717,5.3551,5.3518,5.3518,5.3518,5.3518,5.3518,5.3518,5.3518,5.3518,5.3518,5.3518,5.3518,5.3518,5.3518,5.3585,5.3687,5.4059,5.4465,5.4938,5.5446,5.5784,5.6055,5.6325,5.6765,5.7002,5.7171,5.7442,5.7577,5.7712,5.7306,5.6731,5.6664,5.6799,5.7002,5.7306,5.7679,5.7848,5.7848,5.778,5.7645,5.7374,5.7103,5.6934,5.6448,5.5962,5.5716,5.524,5.4612,5.4326,5.379,5.3166,5.2302,5.1831,5.1585,5.1159,5.0753,5.0425,5.0064,4.9975,5.0214,5.0421,5.075,5.096,5.1079,5.1139,5.1169,5.1199,5.1199,5.1229,5.1229,5.1229,5.1229,5.1229,5.1229,5.1229,5.1229,5.1229,5.1229,5.1229,5.1229,5.1229,5.1229,5.1229,5.1229,5.1229,5.1229,5.1229,5.1229,5.1229,5.1229,5.1229,5.1229,5.1229,5.1135,5.0852,5.0662,5.0501,4.9795,4.9108,4.8581,4.8106,4.7474,4.6828,4.6464,5.6707,5.6328,5.5742,5.5448,5.5329,5.4965,5.4655,5.4431,5.411,5.3915,5.3717,5.3551,5.3518,5.3518,5.3518,5.3518,5.3518,5.3518,5.3518,5.3518,5.3518,5.3518,5.3518,5.3518,5.3518,5.3721,5.4025,5.4465,5.5074,5.5852,5.6393,5.6596,5.7239,5.7442,5.7509,5.7679,5.7679,5.7881,5.7881,5.7881,5.7881,5.7543,5.7611,5.7645,5.7679,5.778,5.7881,5.7881,5.7881,5.7881,5.7881,5.7746,5.7645,5.7543,5.7156,5.6768,5.6519,5.6103,5.5534,5.5063,5.4552,5.4077,5.3461,5.2895,5.2523,5.1966,5.1667,5.1395,5.1091,5.0816,5.09,5.09,5.1139,5.1139,5.1199,5.1199,5.1199,5.1229,5.1229,5.1229,5.1229,5.1229,5.1229,5.1229,5.1229,5.1229,5.1229,5.1229,5.1229,5.1229,5.1229,5.1229,5.1229,5.1229,5.1229,5.1229,5.1229,5.1229,5.1229,5.1229,5.1229,5.1229,5.1229,5.1229,5.1011,5.0822,5.0567,5.0309,4.9698,4.9108,4.8481,4.8004,4.7398,4.6941,4.6652]},{"header":{"parameterUnit":"m.s-1","parameterCategory":1,"la1":31.0,"la2":29.5877,"lo1":-88.7671,"lo2":-86.6584,"dy":0.0162,"dx":0.0185,"nx":115,"ny":88,"refTime":"2023-11-20T12:00:00:Z","depth":0,"parameterNumber":3,"parameterNumberName":"V-component_of_WINDS"},"data":[0.0,0.0,0.0,0.0,0.0,0.0,0.0,0.0,0.0,0.0,0.0,0.0,0.0,0.0,0.0,0.0,0.0,0.0,0.0,0.0,0.0,0.0,0.0,0.0,0.0,0.0,0.0,0.0,0.0,0.0,0.0,0.0,0.0,0.0,0.0,0.0,0.0,0.0,0.0,0.0,0.0,0.0,0.0,0.0,0.0,0.0,0.0,0.0,0.0,0.0,0.0,0.0,0.0,0.0,0.0,0.0,0.0,0.0,0.0,0.0,0.0,0.0,0.0,0.0,0.0,0.0,0.0,0.0,0.0,0.0,0.0,0.0,0.0,0.0,0.0,0.0,0.0,0.0,0.0,0.0,0.0,0.0,0.0,0.0,0.0,0.0,0.0,0.0,0.0,0.0,0.0,0.0,0.0,0.0,0.0,0.0,0.0,0.0,0.0,0.0,0.0,0.0,0.0,0.0,0.0,0.0,0.0,0.0,0.0,0.0,0.0,0.0,0.0,0.0,0.0,0.0,0.0,0.0,0.0,0.0,0.0,0.0,0.0,0.0,0.0,0.0,0.0,0.0,0.0,0.0,0.0,0.0,0.0,0.0,0.0,0.0,0.0,0.0,0.0,0.0,0.0,0.0,0.0,0.0,0.0,0.0,0.0,0.0,0.0,0.0,0.0,0.0,0.0,0.0,0.0,0.0,0.0,0.0,0.0,0.0,0.0,0.0,0.0,0.0,0.0,0.0,0.0,0.0,0.0,0.0,0.0,0.0,0.0,0.0,0.0,0.0,0.0,0.0,0.0,0.0,0.0,0.0,0.0,0.0,0.0,0.0,0.0,0.0,0.0,0.0,0.0,0.0,0.0,0.0,0.0,0.0,0.0,0.0,0.0,0.0,0.0,0.0,0.0,0.0,0.0,0.0,0.0,0.0,0.0,0.0,0.0,0.0,0.0,0.0,0.0,0.0,0.0,0.0,0.0,0.0,0.0,0.0,0.0,0.0,0.0,0.0,0.0,0.0,0.0,0.0,0.0,0.0,0.0,0.0,0.0,0.0,0.0,0.0,0.0,0.0,0.0,0.0,0.0,0.0,0.0,0.0,0.0,0.0,0.0,0.0,0.0,0.0,0.0,0.0,0.0,0.0,0.0,0.0,0.0,0.0,0.0,0.0,0.0,0.0,0.0,0.0,0.0,0.0,0.0,0.0,0.0,0.0,0.0,0.0,0.0,0.0,0.0,0.0,0.0,0.0,0.0,0.0,0.0,0.0,0.0,0.0,0.0,0.0,0.0,0.0,0.0,0.0,0.0,0.0,0.0,0.0,0.0,0.0,0.0,0.0,0.0,0.0,0.0,0.0,0.0,0.0,0.0,0.0,0.0,0.0,0.0,0.0,0.0,0.0,0.0,0.0,0.0,0.0,0.0,0.0,0.0,0.0,0.0,0.0,0.0,0.0,0.0,0.0,0.0,0.0,0.0,0.0,0.0,0.0,0.0,0.0,0.0,0.0,0.0,0.0,0.0,0.0,0.0,0.0,0.0,0.0,0.0,0.0,0.0,0.0,0.0,0.0,0.0,0.0,0.0,0.0,0.0,0.0,0.0,0.0,0.0,0.0,0.0,0.0,0.0,0.0,0.0,0.0,0.0,0.0,0.0,0.0,0.0,0.0,0.0,0.0,0.0,0.0,0.0,0.0,0.0,0.0,0.0,0.0,0.0,0.0,0.0,0.0,0.0,0.0,0.0,0.0,0.0,0.0,0.0,0.0,0.0,0.0,0.0,0.0,0.0,0.0,0.0,0.0,0.0,0.0,0.0,0.0,0.0,0.0,0.0,0.0,0.0,0.0,0.0,0.0,0.0,0.0,0.0,0.0,0.0,0.0,0.0,0.0,0.0,0.0,0.0,0.0,0.0,0.0,0.0,0.0,0.0,0.0,0.0,0.0,0.0,0.0,0.0,0.0,0.0,0.0,0.0,0.0,0.0,0.0,0.0,0.0,0.0,0.0,0.0,0.0,0.0,0.0,0.0,0.0,0.0,0.0,0.0,0.0,0.0,0.0,0.0,0.0,0.0,0.0,0.0,0.0,0.0,0.0,0.0,0.0,0.0,0.0,0.0,0.0,0.0,0.0,0.0,0.0,0.0,0.0,0.0,0.0,0.0,0.0,0.0,0.0,0.0,0.0,0.0,0.0,0.0,0.0,0.0,0.0,0.0,0.0,0.0,0.0,0.0,0.0,0.0,0.0,0.0,0.0,0.0,0.0,0.0,0.0,0.0,0.0,0.0,0.0,0.0,0.0,0.0,0.0,0.0,0.0,0.0,0.0,0.0,0.0,0.0,0.0,0.0,0.0,0.0,0.0,0.0,0.0,0.0,0.0,0.0,0.0,0.0,0.0,0.0,0.0,0.0,0.0,0.0,0.0,0.0,0.0,0.0,0.0,0.0,0.0,0.0,0.0,0.0,0.0,0.0,0.0,0.0,0.0,0.0,0.0,0.0,0.0,0.0,0.0,0.0,0.0,0.0,0.0,0.0,0.0,0.0,0.0,0.0,0.0,0.0,0.0,0.0,0.0,0.0,0.0,0.0,0.0,0.0,0.0,0.0,0.0,0.0,0.0,0.0,0.0,0.0,0.0,0.0,0.0,0.0,0.0,0.0,0.0,0.0,0.0,0.0,0.0,0.0,0.0,0.0,0.0,0.0,0.0,0.0,0.0,0.0,0.0,0.0,0.0,0.0,0.0,0.0,0.0,0.0,0.0,0.0,0.0,0.0,0.0,0.0,0.0,0.0,0.0,0.0,0.0,0.0,0.0,0.0,0.0,0.0,0.0,0.0,0.0,0.0,0.0,0.0,0.0,0.0,0.0,0.0,0.0,0.0,0.0,0.0,0.0,0.0,0.0,0.0,0.0,0.0,0.0,0.0,0.0,0.0,0.0,0.0,0.0,0.0,0.0,0.0,0.0,0.0,0.0,0.0,0.0,0.0,0.0,0.0,0.0,0.0,0.0,0.0,0.0,0.0,0.0,0.0,0.0,0.0,0.0,0.0,0.0,0.0,0.0,0.0,0.0,0.0,0.0,0.0,0.0,0.0,0.0,0.0,0.0,0.0,0.0,0.0,0.0,0.0,0.0,0.0,0.0,0.0,0.0,0.0,0.0,0.0,0.0,0.0,0.0,0.0,0.0,0.0,0.0,0.0,0.0,0.0,0.0,0.0,0.0,0.0,0.0,0.0,0.0,0.0,0.0,0.0,0.0,0.0,0.0,0.0,0.0,0.0,0.0,0.0,0.0,0.0,0.0,0.0,0.0,0.0,0.0,0.0,0.0,0.0,0.0,0.0,0.0,0.0,0.0,0.0,0.0,0.0,0.0,0.0,0.0,0.0,0.0,0.0,0.0,0.0,0.0,0.0,0.0,0.0,0.0,0.0,0.0,0.0,0.0,0.0,0.0,0.0,0.0,0.0,0.0,0.0,0.0,0.0,0.0,0.0,0.0,0.0,0.0,0.0,0.0,0.0,0.0,0.0,0.0,0.0,0.0,0.0,0.0,0.0,0.0,0.0,0.0,0.0,0.0,0.0,0.0,0.0,0.0,0.0,0.0,0.0,0.0,0.0,0.0,0.0,0.0,0.0,0.0,0.0,0.0,0.0,0.0,0.0,0.0,0.0,0.0,0.0,0.0,0.0,0.0,0.0,0.0,0.0,0.0,0.0,0.0,0.0,0.0,0.0,0.0,0.0,0.0,0.0,0.0,0.0,0.0,0.0,0.0,0.0,0.0,0.0,0.0,0.0,0.0,0.0,0.0,0.0,0.0,0.0,0.0,0.0,0.0,0.0,0.0,0.0,0.0,0.0,0.0,0.0,0.0,0.0,0.0,0.0,0.0,0.0,0.0,0.0,0.0,0.0,0.0,0.0,0.0,0.0,0.0,0.0,0.0,0.0,0.0,0.0,0.0,0.0,0.0,0.0,0.0,0.0,0.0,0.0,0.0,0.0,0.0,0.0,0.0,0.0,0.0,0.0,0.0,0.0,0.0,0.0,0.0,0.0,0.0,0.0,0.0,0.0,0.0,0.0,0.0,0.0,0.0,0.0,0.0,0.0,0.0,0.0,0.0,0.0,0.0,0.0,0.0,0.0,0.0,0.0,0.0,0.0,0.0,0.0,0.0,0.0,0.0,0.0,0.0,0.0,0.0,0.0,0.0,0.0,0.0,0.0,0.0,0.0,0.0,0.0,0.0,0.0,0.0,0.0,0.0,0.0,0.0,0.0,0.0,0.0,0.0,0.0,0.0,-1.3966,0.0,0.0,0.0,0.0,0.0,0.0,0.0,0.0,0.0,0.0,0.0,0.0,0.0,0.0,0.0,0.0,0.0,0.0,0.0,0.0,0.0,0.0,0.0,0.0,0.0,0.0,0.0,0.0,0.0,0.0,0.0,0.0,0.0,0.0,0.0,0.0,0.0,0.0,0.0,0.0,0.0,0.0,0.0,0.0,0.0,0.0,0.0,0.0,0.0,0.0,0.0,0.0,0.0,0.0,0.0,0.0,0.0,0.0,0.0,0.0,0.0,0.0,0.0,0.0,0.0,0.0,0.0,0.0,0.0,0.0,0.0,0.0,0.0,0.0,0.0,0.0,0.0,0.0,0.0,0.0,0.0,0.0,0.0,0.0,0.0,0.0,0.0,0.0,0.0,0.0,0.0,0.0,0.0,0.0,0.0,0.0,0.0,0.0,0.0,0.0,0.0,0.0,0.0,0.0,0.0,0.0,0.0,0.0,0.0,0.0,-1.3916,-1.3916,-1.385,-1.385,-1.3916,0.0,0.0,0.0,0.0,0.0,0.0,0.0,0.0,0.0,0.0,0.0,0.0,0.0,0.0,0.0,0.0,0.0,0.0,0.0,0.0,0.0,0.0,0.0,0.0,0.0,0.0,0.0,0.0,0.0,0.0,0.0,0.0,0.0,0.0,0.0,0.0,0.0,0.0,0.0,0.0,0.0,0.0,0.0,0.0,0.0,0.0,0.0,0.0,0.0,0.0,0.0,0.0,0.0,0.0,0.0,0.0,0.0,0.0,0.0,0.0,0.0,0.0,0.0,0.0,0.0,0.0,0.0,0.0,0.0,0.0,0.0,0.0,0.0,0.0,0.0,0.0,0.0,0.0,0.0,0.0,0.0,0.0,0.0,0.0,0.0,0.0,0.0,0.0,0.0,0.0,0.0,0.0,0.0,0.0,0.0,0.0,0.0,0.0,0.0,0.0,0.0,0.0,0.0,0.0,0.0,0.0,0.0,0.0,0.0,0.0,0.0,0.0,-1.389,-1.389,-1.4026,0.0,0.0,0.0,0.0,0.0,0.0,0.0,0.0,0.0,0.0,0.0,0.0,0.0,0.0,0.0,0.0,0.0,0.0,0.0,0.0,0.0,0.0,0.0,0.0,0.0,0.0,0.0,0.0,0.0,0.0,0.0,0.0,0.0,0.0,0.0,0.0,0.0,0.0,0.0,0.0,0.0,0.0,0.0,0.0,0.0,0.0,0.0,0.0,0.0,0.0,0.0,0.0,0.0,0.0,0.0,0.0,0.0,0.0,0.0,0.0,0.0,0.0,0.0,0.0,0.0,0.0,0.0,0.0,0.0,0.0,0.0,0.0,0.0,0.0,0.0,0.0,0.0,0.0,0.0,0.0,0.0,0.0,0.0,0.0,0.0,0.0,0.0,0.0,0.0,0.0,0.0,0.0,0.0,0.0,0.0,0.0,0.0,0.0,0.0,0.0,0.0,0.0,0.0,0.0,0.0,0.0,0.0,0.0,0.0,0.0,-1.4554,-1.4538,-1.4538,0.0,-1.4751,0.0,0.0,0.0,0.0,0.0,0.0,0.0,0.0,0.0,0.0,0.0,0.0,0.0,0.0,0.0,0.0,0.0,0.0,0.0,0.0,0.0,0.0,0.0,0.0,0.0,0.0,0.0,0.0,0.0,0.0,0.0,0.0,0.0,0.0,0.0,0.0,0.0,0.0,0.0,0.0,0.0,0.0,0.0,0.0,0.0,0.0,0.0,0.0,0.0,0.0,0.0,0.0,0.0,0.0,0.0,0.0,0.0,0.0,0.0,0.0,0.0,0.0,0.0,0.0,0.0,0.0,0.0,0.0,0.0,0.0,0.0,0.0,0.0,0.0,0.0,0.0,0.0,0.0,0.0,0.0,0.0,0.0,0.0,0.0,0.0,0.0,0.0,0.0,0.0,0.0,0.0,0.0,0.0,0.0,0.0,0.0,0.0,0.0,0.0,0.0,0.0,0.0,0.0,0.0,0.0,0.0,0.0,0.0,0.0,0.0,-1.4561,-1.4561,-1.4561,-1.4649,0.0,0.0,0.0,0.0,0.0,0.0,0.0,0.0,0.0,0.0,0.0,0.0,0.0,0.0,0.0,0.0,0.0,0.0,0.0,0.0,0.0,0.0,0.0,0.0,0.0,0.0,0.0,0.0,0.0,0.0,0.0,0.0,0.0,0.0,0.0,0.0,0.0,0.0,0.0,0.0,0.0,0.0,0.0,0.0,0.0,0.0,0.0,0.0,0.0,0.0,0.0,0.0,0.0,0.0,0.0,0.0,0.0,0.0,0.0,0.0,0.0,0.0,0.0,0.0,0.0,0.0,0.0,0.0,0.0,0.0,0.0,0.0,0.0,0.0,0.0,0.0,0.0,0.0,0.0,0.0,0.0,0.0,0.0,0.0,0.0,0.0,0.0,0.0,0.0,0.0,0.0,0.0,0.0,0.0,0.0,0.0,0.0,0.0,0.0,0.0,0.0,0.0,0.0,0.0,0.0,0.0,0.0,0.0,0.0,0.0,-1.4561,-1.4561,-1.4561,-1.4561,-1.4561,-1.4561,0.0,0.0,0.0,0.0,0.0,0.0,0.0,0.0,0.0,0.0,0.0,0.0,0.0,0.0,0.0,0.0,0.0,0.0,0.0,0.0,0.0,0.0,0.0,0.0,0.0,0.0,0.0,0.0,0.0,0.0,0.0,0.0,0.0,0.0,0.0,0.0,0.0,0.0,0.0,0.0,0.0,0.0,0.0,0.0,0.0,0.0,0.0,0.0,0.0,0.0,0.0,0.0,0.0,0.0,0.0,0.0,0.0,0.0,0.0,0.0,0.0,0.0,0.0,0.0,0.0,0.0,0.0,0.0,0.0,0.0,0.0,0.0,0.0,0.0,0.0,0.0,0.0,0.0,0.0,0.0,0.0,0.0,0.0,0.0,0.0,0.0,0.0,0.0,0.0,0.0,0.0,0.0,0.0,0.0,0.0,0.0,0.0,0.0,0.0,0.0,0.0,0.0,0.0,0.0,0.0,0.0,0.0,0.0,-1.4561,-1.4561,-1.4561,-1.4561,-1.4561,-1.4561,0.0,0.0,0.0,0.0,0.0,0.0,0.0,0.0,0.0,0.0,0.0,0.0,0.0,0.0,0.0,0.0,0.0,0.0,0.0,0.0,0.0,0.0,0.0,0.0,0.0,0.0,0.0,0.0,0.0,0.0,0.0,0.0,0.0,0.0,0.0,0.0,0.0,0.0,0.0,0.0,0.0,0.0,0.0,0.0,0.0,0.0,0.0,0.0,0.0,0.0,0.0,0.0,0.0,0.0,0.0,0.0,0.0,0.0,0.0,0.0,0.0,0.0,0.0,0.0,0.0,0.0,0.0,0.0,0.0,0.0,0.0,0.0,0.0,0.0,0.0,0.0,0.0,0.0,0.0,0.0,0.0,0.0,0.0,0.0,0.0,0.0,0.0,0.0,0.0,0.0,0.0,0.0,0.0,0.0,0.0,0.0,0.0,0.0,0.0,0.0,0.0,0.0,0.0,0.0,0.0,0.0,0.0,0.0,0.0,-1.4561,-1.4561,-1.4561,-1.4561,-1.4561,-1.4561,0.0,0.0,0.0,0.0,0.0,0.0,0.0,0.0,0.0,0.0,0.0,0.0,0.0,0.0,0.0,0.0,0.0,0.0,0.0,0.0,0.0,0.0,0.0,0.0,0.0,0.0,0.0,0.0,0.0,0.0,0.0,0.0,0.0,0.0,0.0,0.0,0.0,0.0,0.0,0.0,0.0,0.0,0.0,0.0,0.0,0.0,0.0,0.0,0.0,0.0,0.0,0.0,0.0,0.0,0.0,0.0,0.0,0.0,0.0,0.0,0.0,0.0,0.0,0.0,0.0,0.0,0.0,0.0,0.0,0.0,0.0,0.0,0.0,0.0,0.0,0.0,0.0,0.0,0.0,0.0,0.0,0.0,0.0,0.0,0.0,0.0,0.0,0.0,0.0,0.0,0.0,0.0,0.0,0.0,0.0,0.0,0.0,0.0,0.0,0.0,0.0,0.0,0.0,0.0,0.0,0.0,0.0,0.0,0.0,-1.4561,0.0,-1.4561,-1.4561,-1.4561,-1.4649,0.0,0.0,0.0,0.0,0.0,0.0,0.0,0.0,0.0,0.0,0.0,0.0,0.0,0.0,0.0,0.0,0.0,0.0,0.0,0.0,0.0,0.0,0.0,0.0,0.0,0.0,0.0,0.0,0.0,0.0,0.0,0.0,0.0,0.0,0.0,0.0,0.0,0.0,0.0,0.0,0.0,0.0,0.0,0.0,0.0,0.0,0.0,0.0,0.0,0.0,0.0,0.0,0.0,0.0,0.0,0.0,0.0,0.0,0.0,0.0,0.0,0.0,0.0,0.0,0.0,0.0,0.0,0.0,0.0,0.0,0.0,0.0,0.0,0.0,0.0,0.0,0.0,0.0,0.0,0.0,0.0,0.0,0.0,0.0,0.0,0.0,0.0,0.0,0.0,0.0,0.0,0.0,0.0,0.0,0.0,0.0,0.0,0.0,0.0,0.0,0.0,0.0,0.0,0.0,0.0,0.0,0.0,0.0,-1.4577,-1.4577,-1.4665,-1.4697,-1.4577,-1.4665,-1.4737,0.0,0.0,0.0,0.0,0.0,0.0,0.0,0.0,0.0,0.0,0.0,0.0,0.0,0.0,0.0,0.0,0.0,0.0,0.0,0.0,0.0,0.0,0.0,0.0,0.0,0.0,0.0,0.0,0.0,0.0,0.0,0.0,0.0,0.0,0.0,0.0,0.0,0.0,0.0,0.0,0.0,0.0,0.0,0.0,0.0,0.0,0.0,0.0,0.0,0.0,0.0,0.0,0.0,0.0,0.0,0.0,0.0,0.0,0.0,0.0,0.0,0.0,0.0,0.0,0.0,0.0,0.0,0.0,0.0,0.0,0.0,0.0,0.0,0.0,0.0,0.0,0.0,0.0,0.0,0.0,0.0,0.0,0.0,0.0,0.0,0.0,0.0,0.0,0.0,0.0,0.0,0.0,0.0,0.0,0.0,0.0,0.0,0.0,0.0,0.0,0.0,0.0,0.0,0.0,0.0,0.0,0.0,0.0,0.0,-1.5219,-1.5593,-1.5798,-1.5798,-1.5569,-1.5454,0.0,0.0,0.0,0.0,0.0,0.0,0.0,0.0,0.0,0.0,0.0,0.0,0.0,0.0,0.0,0.0,0.0,0.0,0.0,0.0,0.0,0.0,0.0,0.0,0.0,0.0,0.0,0.0,0.0,0.0,0.0,0.0,0.0,0.0,0.0,0.0,0.0,0.0,0.0,0.0,0.0,0.0,0.0,0.0,0.0,0.0,0.0,0.0,0.0,0.0,0.0,0.0,0.0,0.0,0.0,0.0,0.0,0.0,0.0,0.0,0.0,0.0,0.0,0.0,0.0,0.0,0.0,0.0,0.0,0.0,0.0,0.0,0.0,0.0,0.0,0.0,0.0,0.0,0.0,0.0,0.0,0.0,0.0,0.0,0.0,0.0,0.0,0.0,0.0,0.0,0.0,0.0,0.0,0.0,0.0,0.0,0.0,0.0,0.0,0.0,0.0,0.0,0.0,0.0,0.0,0.0,0.0,0.0,0.0,-1.6221,-1.6472,-1.6598,-1.6598,-1.6305,-1.612,-1.606,0.0,0.0,0.0,0.0,0.0,0.0,0.0,0.0,0.0,0.0,0.0,0.0,0.0,0.0,0.0,0.0,0.0,0.0,0.0,0.0,0.0,0.0,0.0,0.0,0.0,0.0,0.0,0.0,0.0,0.0,0.0,0.0,0.0,0.0,0.0,0.0,0.0,0.0,0.0,0.0,0.0,0.0,0.0,0.0,0.0,0.0,0.0,0.0,0.0,0.0,0.0,0.0,0.0,0.0,0.0,0.0,0.0,0.0,0.0,0.0,0.0,0.0,0.0,0.0,0.0,0.0,0.0,0.0,0.0,0.0,0.0,0.0,0.0,0.0,0.0,0.0,0.0,0.0,0.0,0.0,0.0,0.0,0.0,0.0,0.0,0.0,0.0,0.0,0.0,0.0,0.0,0.0,0.0,0.0,0.0,0.0,0.0,0.0,0.0,0.0,0.0,0.0,0.0,0.0,0.0,0.0,0.0,0.0,-1.7579,-1.7311,-1.7121,-1.7121,-1.6877,-1.6706,0.0,0.0,0.0,0.0,0.0,0.0,0.0,0.0,0.0,0.0,0.0,0.0,0.0,0.0,0.0,0.0,0.0,0.0,0.0,0.0,0.0,0.0,0.0,0.0,0.0,0.0,0.0,0.0,0.0,0.0,0.0,0.0,0.0,0.0,0.0,0.0,0.0,0.0,0.0,0.0,0.0,0.0,0.0,0.0,0.0,0.0,0.0,0.0,0.0,0.0,0.0,0.0,0.0,0.0,0.0,0.0,0.0,0.0,0.0,0.0,0.0,0.0,0.0,0.0,0.0,0.0,0.0,0.0,0.0,0.0,0.0,0.0,0.0,0.0,0.0,0.0,0.0,0.0,0.0,0.0,0.0,0.0,0.0,0.0,0.0,0.0,0.0,0.0,0.0,0.0,0.0,0.0,0.0,0.0,0.0,0.0,0.0,0.0,0.0,0.0,0.0,0.0,0.0,0.0,0.0,0.0,0.0,0.0,0.0,-1.8576,-1.8644,-1.853,-1.8215,-1.7934,-1.7523,0.0,0.0,0.0,0.0,0.0,0.0,0.0,0.0,0.0,0.0,0.0,0.0,0.0,0.0,0.0,0.0,0.0,0.0,0.0,0.0,0.0,0.0,0.0,0.0,0.0,0.0,0.0,0.0,0.0,0.0,0.0,0.0,0.0,0.0,0.0,0.0,0.0,0.0,0.0,0.0,0.0,0.0,0.0,0.0,0.0,0.0,0.0,0.0,0.0,0.0,0.0,0.0,0.0,0.0,0.0,0.0,0.0,0.0,0.0,0.0,0.0,0.0,0.0,0.0,0.0,0.0,0.0,0.0,0.0,0.0,0.0,0.0,0.0,0.0,0.0,0.0,0.0,0.0,0.0,0.0,0.0,0.0,0.0,0.0,0.0,0.0,0.0,0.0,0.0,0.0,0.0,0.0,0.0,0.0,0.0,0.0,0.0,0.0,0.0,0.0,0.0,0.0,0.0,0.0,0.0,0.0,0.0,0.0,-1.8266,-1.8993,-1.9231,-1.9213,-1.8993,-1.8619,-1.8219,0.0,0.0,0.0,0.0,0.0,0.0,0.0,0.0,0.0,0.0,0.0,0.0,0.0,0.0,0.0,0.0,0.0,0.0,0.0,0.0,0.0,0.0,0.0,0.0,0.0,0.0,0.0,0.0,0.0,0.0,0.0,0.0,0.0,0.0,0.0,0.0,0.0,0.0,0.0,0.0,0.0,0.0,0.0,0.0,0.0,0.0,0.0,0.0,0.0,0.0,0.0,0.0,0.0,0.0,0.0,0.0,0.0,0.0,0.0,0.0,0.0,0.0,0.0,0.0,0.0,0.0,0.0,0.0,0.0,0.0,0.0,0.0,0.0,0.0,0.0,0.0,0.0,0.0,0.0,0.0,0.0,0.0,0.0,0.0,0.0,0.0,0.0,0.0,0.0,0.0,0.0,0.0,0.0,0.0,0.0,0.0,0.0,0.0,0.0,0.0,0.0,0.0,0.0,0.0,0.0,0.0,0.0,0.0,-1.8547,-1.9065,-1.9323,-1.9402,-1.9366,-1.917,-1.8795,0.0,0.0,0.0,0.0,0.0,0.0,0.0,0.0,0.0,0.0,0.0,0.0,0.0,0.0,0.0,0.0,0.0,0.0,0.0,0.0,0.0,0.0,0.0,0.0,0.0,0.0,0.0,0.0,0.0,0.0,0.0,0.0,0.0,0.0,0.0,0.0,0.0,0.0,0.0,0.0,0.0,0.0,0.0,0.0,0.0,0.0,0.0,0.0,0.0,0.0,0.0,0.0,0.0,0.0,0.0,0.0,0.0,0.0,0.0,0.0,0.0,0.0,0.0,0.0,0.0,0.0,0.0,0.0,0.0,0.0,0.0,0.0,0.0,0.0,0.0,0.0,0.0,0.0,0.0,0.0,0.0,0.0,0.0,0.0,0.0,0.0,0.0,0.0,0.0,0.0,0.0,0.0,0.0,0.0,0.0,0.0,0.0,0.0,0.0,0.0,0.0,0.0,0.0,0.0,0.0,0.0,0.0,0.0,-1.9372,-1.9706,-2.0099,-2.0118,-1.9806,-1.9396,-1.8952,0.0,0.0,0.0,0.0,0.0,0.0,0.0,0.0,0.0,0.0,0.0,0.0,0.0,0.0,0.0,0.0,0.0,0.0,0.0,0.0,0.0,0.0,0.0,0.0,0.0,0.0,0.0,0.0,0.0,0.0,0.0,0.0,0.0,0.0,0.0,0.0,0.0,0.0,0.0,0.0,0.0,0.0,0.0,0.0,0.0,0.0,0.0,0.0,-1.9423,0.0,0.0,0.0,0.0,0.0,0.0,0.0,0.0,0.0,0.0,0.0,0.0,0.0,0.0,0.0,0.0,0.0,0.0,0.0,0.0,0.0,0.0,0.0,0.0,0.0,0.0,0.0,0.0,0.0,0.0,0.0,0.0,0.0,0.0,0.0,0.0,0.0,0.0,0.0,0.0,0.0,0.0,0.0,0.0,0.0,0.0,0.0,0.0,0.0,0.0,0.0,0.0,0.0,0.0,0.0,0.0,0.0,0.0,0.0,-1.967,-1.9952,-2.0319,-2.0411,-2.0209,-1.9806,-1.9323,0.0,0.0,0.0,0.0,0.0,0.0,0.0,0.0,0.0,0.0,0.0,0.0,0.0,0.0,0.0,0.0,0.0,0.0,0.0,0.0,0.0,0.0,0.0,0.0,0.0,0.0,0.0,0.0,0.0,0.0,0.0,0.0,0.0,0.0,0.0,0.0,0.0,0.0,0.0,0.0,0.0,0.0,0.0,0.0,0.0,0.0,0.0,0.0,0.0,0.0,0.0,0.0,0.0,0.0,0.0,0.0,0.0,0.0,0.0,0.0,0.0,0.0,0.0,0.0,0.0,0.0,0.0,0.0,0.0,0.0,0.0,0.0,0.0,0.0,0.0,0.0,0.0,0.0,0.0,0.0,0.0,0.0,0.0,0.0,0.0,0.0,0.0,0.0,0.0,0.0,0.0,0.0,0.0,0.0,0.0,0.0,0.0,0.0,0.0,0.0,0.0,0.0,0.0,0.0,0.0,0.0,0.0,-1.9138,-1.988,-2.0118,-2.0503,-2.0668,-2.0613,-2.0228,-1.9824,-1.9402,0.0,0.0,0.0,0.0,0.0,0.0,0.0,0.0,0.0,0.0,0.0,0.0,0.0,0.0,0.0,0.0,0.0,0.0,0.0,0.0,0.0,0.0,0.0,0.0,0.0,0.0,0.0,0.0,0.0,0.0,0.0,0.0,0.0,0.0,0.0,0.0,0.0,0.0,-1.9123,-2.0357,0.0,0.0,0.0,0.0,0.0,0.0,0.0,0.0,-2.4126,0.0,0.0,0.0,0.0,0.0,0.0,0.0,0.0,0.0,0.0,0.0,0.0,0.0,0.0,0.0,0.0,0.0,0.0,0.0,0.0,0.0,0.0,0.0,0.0,0.0,0.0,0.0,0.0,0.0,0.0,0.0,0.0,0.0,0.0,0.0,0.0,0.0,0.0,0.0,0.0,0.0,0.0,0.0,0.0,0.0,0.0,0.0,0.0,0.0,0.0,0.0,0.0,0.0,0.0,0.0,0.0,-1.9064,-1.9924,-2.066,-2.1248,-2.1415,-2.1452,-2.1379,-2.0716,-2.0228,-1.9806,0.0,0.0,0.0,0.0,0.0,0.0,0.0,0.0,0.0,0.0,0.0,0.0,0.0,0.0,0.0,0.0,0.0,0.0,0.0,0.0,0.0,0.0,0.0,0.0,0.0,0.0,0.0,0.0,0.0,0.0,0.0,0.0,0.0,0.0,0.0,0.0,0.0,0.0,0.0,-2.176,-2.2818,0.0,0.0,0.0,0.0,0.0,0.0,0.0,0.0,-2.439,0.0,0.0,0.0,0.0,0.0,0.0,0.0,0.0,0.0,0.0,0.0,0.0,0.0,0.0,0.0,0.0,0.0,0.0,0.0,0.0,0.0,0.0,0.0,0.0,0.0,0.0,0.0,0.0,0.0,0.0,0.0,0.0,0.0,0.0,0.0,0.0,0.0,0.0,0.0,0.0,0.0,0.0,0.0,0.0,0.0,0.0,0.0,0.0,0.0,0.0,0.0,0.0,0.0,0.0,0.0,-1.9224,-2.0069,-2.0789,-2.1453,-2.1794,-2.1906,-2.1789,-2.1089,-2.0513,0.0,0.0,0.0,0.0,0.0,0.0,0.0,0.0,0.0,0.0,0.0,0.0,0.0,0.0,0.0,0.0,0.0,0.0,0.0,0.0,0.0,0.0,0.0,0.0,0.0,0.0,0.0,0.0,0.0,0.0,0.0,0.0,0.0,0.0,0.0,0.0,0.0,0.0,0.0,0.0,-2.3158,-2.4153,-2.4723,0.0,0.0,0.0,0.0,0.0,0.0,-2.692,-2.6265,0.0,0.0,0.0,0.0,0.0,0.0,0.0,0.0,0.0,0.0,0.0,0.0,0.0,0.0,0.0,0.0,0.0,0.0,0.0,0.0,0.0,0.0,0.0,0.0,0.0,0.0,0.0,0.0,0.0,0.0,0.0,0.0,0.0,0.0,0.0,0.0,0.0,0.0,0.0,0.0,0.0,0.0,0.0,0.0,0.0,0.0,0.0,0.0,0.0,0.0,0.0,0.0,0.0,0.0,0.0,-1.9431,-2.0189,-2.0845,-2.1671,-2.1919,-2.2087,-2.2176,-2.1379,-2.0782,0.0,0.0,0.0,0.0,0.0,0.0,0.0,0.0,0.0,0.0,0.0,0.0,0.0,0.0,0.0,0.0,0.0,0.0,0.0,0.0,0.0,0.0,0.0,0.0,0.0,0.0,0.0,0.0,0.0,0.0,0.0,0.0,0.0,0.0,0.0,0.0,0.0,0.0,0.0,0.0,0.0,-2.5203,-2.5939,-2.6753,0.0,0.0,0.0,0.0,-2.9253,-2.8794,0.0,0.0,0.0,0.0,0.0,0.0,0.0,0.0,0.0,0.0,0.0,0.0,0.0,0.0,0.0,0.0,0.0,0.0,0.0,0.0,0.0,0.0,0.0,0.0,0.0,0.0,0.0,0.0,0.0,0.0,0.0,0.0,0.0,0.0,0.0,0.0,0.0,0.0,0.0,0.0,0.0,0.0,0.0,0.0,0.0,0.0,0.0,0.0,0.0,0.0,0.0,0.0,0.0,0.0,0.0,0.0,-1.9991,-2.0334,-2.1059,-2.2221,-2.2157,-2.2195,-2.2353,-2.1727,-2.104,0.0,0.0,0.0,0.0,0.0,0.0,0.0,0.0,0.0,0.0,0.0,0.0,0.0,0.0,0.0,0.0,0.0,0.0,0.0,0.0,0.0,0.0,0.0,0.0,0.0,0.0,0.0,0.0,0.0,0.0,0.0,0.0,0.0,0.0,0.0,0.0,0.0,0.0,0.0,0.0,0.0,-2.5962,-2.6628,-2.8018,-2.9066,0.0,0.0,-2.993,-3.0001,-2.9237,0.0,0.0,0.0,0.0,0.0,0.0,0.0,0.0,0.0,0.0,0.0,0.0,0.0,0.0,0.0,0.0,0.0,0.0,0.0,0.0,0.0,0.0,0.0,0.0,0.0,0.0,0.0,0.0,0.0,0.0,0.0,0.0,0.0,0.0,0.0,0.0,0.0,0.0,0.0,0.0,0.0,0.0,0.0,0.0,0.0,0.0,0.0,0.0,0.0,0.0,0.0,0.0,0.0,0.0,0.0,-1.8644,-2.0165,-2.0741,-2.1491,-2.2334,-2.2441,-2.2441,-2.2441,-2.1957,-2.12,0.0,0.0,0.0,0.0,0.0,0.0,0.0,0.0,0.0,0.0,0.0,0.0,0.0,0.0,0.0,0.0,0.0,0.0,0.0,0.0,0.0,0.0,0.0,0.0,0.0,0.0,0.0,0.0,0.0,0.0,0.0,0.0,0.0,0.0,0.0,0.0,0.0,0.0,0.0,0.0,0.0,0.0,-2.8018,-2.9162,0.0,0.0,0.0,-3.1172,-3.1172,0.0,0.0,0.0,0.0,0.0,0.0,0.0,0.0,0.0,0.0,0.0,0.0,0.0,0.0,0.0,0.0,0.0,0.0,0.0,0.0,0.0,0.0,0.0,0.0,0.0,0.0,0.0,0.0,0.0,0.0,0.0,0.0,0.0,0.0,0.0,0.0,0.0,0.0,0.0,0.0,0.0,0.0,0.0,0.0,0.0,0.0,0.0,0.0,0.0,0.0,0.0,0.0,0.0,0.0,0.0,0.0,0.0,-2.0268,-2.1096,-2.1832,-2.2422,-2.2618,-2.2706,-2.253,-2.2157,0.0,0.0,0.0,0.0,0.0,0.0,0.0,0.0,0.0,0.0,0.0,0.0,0.0,0.0,0.0,0.0,0.0,0.0,0.0,0.0,0.0,0.0,0.0,0.0,0.0,0.0,0.0,-2.0504,0.0,0.0,0.0,0.0,0.0,0.0,0.0,0.0,0.0,0.0,0.0,0.0,0.0,0.0,-2.7382,-2.909,-3.0119,-3.0821,0.0,0.0,-3.2113,-3.2113,-3.1129,-3.0044,0.0,0.0,0.0,0.0,0.0,0.0,0.0,0.0,0.0,0.0,0.0,0.0,0.0,0.0,0.0,0.0,0.0,0.0,0.0,0.0,0.0,0.0,0.0,0.0,0.0,0.0,0.0,0.0,0.0,0.0,0.0,0.0,0.0,0.0,0.0,0.0,0.0,0.0,0.0,0.0,0.0,0.0,0.0,0.0,0.0,0.0,0.0,0.0,0.0,0.0,0.0,0.0,0.0,0.0,0.0,-2.0437,-2.1163,-2.1764,-2.2334,-2.2618,-2.2813,-2.2794,-2.2492,-2.1933,0.0,0.0,0.0,0.0,0.0,0.0,0.0,0.0,0.0,0.0,0.0,0.0,0.0,0.0,0.0,0.0,0.0,0.0,0.0,0.0,0.0,0.0,0.0,0.0,0.0,0.0,0.0,0.0,0.0,0.0,0.0,0.0,0.0,0.0,0.0,0.0,0.0,0.0,0.0,0.0,0.0,-2.7941,-2.9138,-3.0601,-3.1625,0.0,0.0,-3.255,-3.24,-3.1501,-3.0596,-2.9963,0.0,0.0,0.0,0.0,0.0,0.0,0.0,0.0,0.0,0.0,0.0,0.0,0.0,0.0,0.0,0.0,0.0,0.0,0.0,0.0,0.0,0.0,0.0,0.0,0.0,0.0,0.0,0.0,0.0,0.0,0.0,0.0,0.0,0.0,0.0,0.0,0.0,0.0,0.0,0.0,0.0,0.0,0.0,0.0,0.0,0.0,0.0,0.0,0.0,0.0,0.0,0.0,0.0,-1.9621,-2.0869,-2.1621,-2.2183,-2.2441,-2.2794,-2.2882,-2.2794,-2.253,-2.2077,0.0,0.0,0.0,0.0,0.0,0.0,0.0,0.0,0.0,0.0,0.0,0.0,0.0,0.0,0.0,0.0,0.0,0.0,0.0,0.0,0.0,0.0,0.0,0.0,0.0,0.0,0.0,0.0,-2.458,-2.4768,-2.471,0.0,0.0,0.0,0.0,0.0,0.0,0.0,0.0,0.0,0.0,-2.8799,-3.0302,-3.1125,0.0,0.0,-3.2574,-3.2723,-3.2636,-3.1942,-3.1177,-3.0581,-2.9334,0.0,0.0,0.0,0.0,0.0,0.0,0.0,0.0,0.0,0.0,0.0,0.0,0.0,0.0,0.0,0.0,0.0,0.0,0.0,0.0,0.0,0.0,0.0,0.0,0.0,0.0,0.0,0.0,0.0,0.0,0.0,0.0,0.0,0.0,0.0,0.0,0.0,0.0,0.0,0.0,0.0,0.0,0.0,0.0,0.0,0.0,0.0,0.0,0.0,0.0,0.0,0.0,-2.0042,-2.1108,-2.1951,-2.2498,-2.2631,-2.3075,-2.331,-2.3248,-2.307,-2.2523,0.0,0.0,0.0,0.0,0.0,0.0,0.0,0.0,0.0,0.0,0.0,0.0,0.0,0.0,0.0,0.0,0.0,0.0,0.0,0.0,0.0,0.0,0.0,0.0,0.0,0.0,0.0,0.0,-2.5923,-2.587,-2.4907,0.0,0.0,0.0,0.0,0.0,0.0,0.0,0.0,0.0,0.0,-2.9761,-3.1101,-3.1712,-3.2129,-3.276,-3.281,-3.281,-3.2636,-3.2201,-3.1728,-3.1081,0.0,0.0,0.0,0.0,0.0,0.0,0.0,0.0,0.0,0.0,0.0,0.0,0.0,0.0,0.0,0.0,0.0,0.0,0.0,0.0,0.0,0.0,0.0,0.0,0.0,0.0,0.0,0.0,0.0,0.0,-1.4194,0.0,0.0,0.0,0.0,0.0,0.0,0.0,0.0,0.0,0.0,0.0,0.0,0.0,0.0,0.0,0.0,0.0,0.0,0.0,0.0,0.0,0.0,-2.0394,-2.1126,-2.1989,-2.265,-2.3047,-2.35,-2.3965,-2.4355,-2.421,-2.3741,-2.3028,0.0,0.0,0.0,0.0,0.0,0.0,0.0,0.0,0.0,0.0,0.0,0.0,0.0,0.0,0.0,0.0,0.0,0.0,0.0,0.0,0.0,0.0,0.0,0.0,0.0,0.0,-2.6909,-2.6901,-2.6322,0.0,0.0,0.0,0.0,0.0,0.0,0.0,0.0,0.0,0.0,-2.9594,-3.1027,-3.1504,-3.2204,-3.2785,-3.3068,-3.3068,-3.2896,-3.2487,-3.24,-3.2113,0.0,0.0,0.0,0.0,0.0,0.0,0.0,0.0,0.0,0.0,0.0,0.0,0.0,0.0,0.0,0.0,0.0,0.0,0.0,0.0,0.0,0.0,0.0,0.0,0.0,0.0,0.0,-1.6409,-1.6028,0.0,0.0,0.0,0.0,0.0,0.0,0.0,0.0,0.0,0.0,0.0,-1.9571,-1.9657,0.0,0.0,0.0,0.0,0.0,0.0,0.0,0.0,0.0,0.0,0.0,0.0,-2.0748,-2.2076,-2.2603,-2.3157,-2.3741,-2.4016,-2.4277,-2.4414,-2.4249,-2.3668,-2.2903,0.0,0.0,0.0,0.0,0.0,0.0,0.0,0.0,0.0,0.0,0.0,0.0,0.0,0.0,0.0,0.0,0.0,0.0,0.0,0.0,0.0,0.0,0.0,0.0,0.0,-2.7208,0.0,0.0,0.0,0.0,0.0,0.0,0.0,0.0,0.0,0.0,0.0,-2.8257,-2.969,-3.0713,-3.1626,-3.2228,-3.2513,-3.281,0.0,0.0,0.0,0.0,0.0,0.0,0.0,0.0,0.0,0.0,0.0,0.0,0.0,0.0,-2.6914,-2.6406,-2.6428,-2.6683,-2.683,0.0,0.0,0.0,0.0,0.0,0.0,0.0,0.0,0.0,0.0,0.0,0.0,0.0,0.0,-1.8045,0.0,-1.7417,0.0,0.0,0.0,0.0,0.0,0.0,0.0,0.0,-2.0057,-2.0214,-2.0512,-2.0512,-2.0354,0.0,-2.0057,-1.9414,0.0,0.0,0.0,0.0,0.0,0.0,0.0,0.0,-2.159,-2.287,-2.3275,-2.376,-2.4256,-2.4555,-2.4727,-2.4863,-2.4446,-2.4047,-2.3409,-2.259,-2.1839,0.0,0.0,0.0,0.0,0.0,0.0,0.0,0.0,0.0,0.0,0.0,0.0,0.0,0.0,0.0,0.0,0.0,0.0,0.0,0.0,0.0,0.0,0.0,-2.8527,0.0,0.0,0.0,0.0,0.0,0.0,0.0,0.0,0.0,-2.7461,-2.8363,-2.9475,-3.0821,-3.1565,-3.2154,-3.2673,0.0,0.0,0.0,0.0,0.0,0.0,0.0,-3.2723,-3.2636,-3.2376,-3.1904,-3.1105,-3.0336,-2.9776,-2.9776,0.0,0.0,-2.8487,-2.8441,-2.8723,-2.8872,-2.9277,-2.9616,-2.9725,-2.9978,-3.0361,0.0,0.0,0.0,0.0,0.0,0.0,0.0,0.0,-1.9162,-1.9401,0.0,-1.9281,0.0,0.0,0.0,0.0,0.0,-1.9504,0.0,0.0,-2.0884,-2.1171,-2.1713,-2.1713,-2.153,-2.1163,-2.0989,-2.0902,-2.0797,-1.9834,0.0,0.0,0.0,0.0,0.0,0.0,-2.2741,-2.3299,-2.3897,-2.4275,-2.4679,-2.4983,-2.5293,-2.5586,-2.5121,-2.4679,-2.464,-2.3428,-2.2553,-2.2162,-2.1295,0.0,0.0,0.0,0.0,0.0,0.0,0.0,0.0,0.0,0.0,0.0,0.0,0.0,0.0,0.0,0.0,0.0,0.0,0.0,0.0,-2.9237,0.0,0.0,0.0,0.0,0.0,0.0,0.0,0.0,0.0,0.0,-2.8347,-2.9867,-3.1051,-3.1223,0.0,0.0,0.0,0.0,-3.3068,-3.3093,-3.3093,-3.2982,-3.2723,-3.2723,-3.2636,-3.2463,0.0,0.0,-3.1849,-3.1737,-3.1737,-3.1785,-3.1472,-3.092,-2.9628,-2.9721,-2.9928,-2.9904,-3.035,-3.0611,-3.086,-3.1125,-3.158,-2.0959,0.0,0.0,0.0,0.0,-1.9973,-2.0165,-2.0096,-2.0252,-2.0252,-2.0252,-1.9865,0.0,0.0,0.0,0.0,0.0,0.0,-2.1094,-2.1743,-2.1901,-2.2064,-2.2176,-2.2176,-2.2358,-2.2528,-2.2438,-2.2588,-2.285,-2.2555,-2.1989,-2.1194,0.0,0.0,0.0,0.0,-2.3523,-2.4278,-2.4411,-2.4813,-2.5431,-2.545,-2.5605,-2.5723,-2.5509,-2.5198,-2.4679,-2.4354,-2.3841,-2.3258,-2.2572,0.0,0.0,0.0,0.0,0.0,0.0,0.0,0.0,0.0,0.0,0.0,0.0,0.0,0.0,0.0,0.0,0.0,0.0,0.0,-3.0037,-3.0194,-3.0182,0.0,0.0,0.0,0.0,0.0,0.0,0.0,0.0,0.0,-3.0167,-3.0772,-3.1455,0.0,0.0,-3.2982,-3.2982,-3.3068,-3.3093,-3.3093,-3.3093,0.0,-3.2982,-3.2982,-3.2982,-3.2896,-3.2723,-3.255,-3.2463,-3.2288,-3.2347,-3.2714,-3.2698,-3.2674,-3.2836,-3.2225,-3.1761,-3.1908,-3.2226,-3.2651,-3.2819,-3.3071,-3.3457,-2.2314,-2.15,-2.1044,-2.0825,-2.0757,-2.1255,-2.1365,-2.1277,-2.1365,-2.1452,-2.1365,-2.1021,-2.0912,-2.1084,-2.0912,0.0,0.0,0.0,-2.2195,-2.2528,-2.2768,-2.2915,-2.2934,-2.2934,-2.3066,-2.3312,-2.3312,-2.3426,-2.3672,-2.3937,-2.3805,-2.3094,0.0,0.0,-2.3749,-2.3843,-2.4222,-2.491,-2.5025,-2.5257,-2.5723,-2.5723,-2.5723,-2.5723,-2.5723,-2.5509,-2.514,-2.487,-2.4563,-2.4107,-2.3428,-2.2924,0.0,0.0,0.0,0.0,0.0,0.0,0.0,0.0,0.0,0.0,0.0,-2.3239,0.0,0.0,0.0,0.0,-2.8987,-2.9904,-3.1211,-3.1126,0.0,0.0,0.0,0.0,0.0,0.0,0.0,-2.9753,-3.0319,-3.0951,-3.149,-3.1712,-3.2093,-3.2587,-3.2896,-3.3093,-3.3093,0.0,-3.3093,-3.3093,-3.3093,-3.3093,-3.3093,-3.3269,-3.347,-3.3696,-3.3633,-3.3457,-3.3369,-3.3281,-3.3341,-3.3612,-3.3776,-3.3966,-3.456,-3.4237,-3.3871,-3.3809,-3.4158,-3.4564,-3.4907,-3.5162,-3.5416,-2.3765,-2.3708,-2.2858,-2.2536,-2.2536,-2.2536,-2.2536,-2.2536,-2.2536,-2.2625,-2.2802,-2.2625,-2.2625,-2.2802,-2.2625,0.0,-2.2555,-2.2953,-2.3195,-2.3233,-2.3594,-2.3765,-2.3765,-2.3765,-2.3784,-2.3822,-2.3822,-2.3841,-2.3898,-2.4449,-2.4813,-2.4813,-2.4164,-2.407,-2.445,-2.4641,-2.4929,-2.5333,-2.5528,-2.5723,-2.5723,-2.5723,-2.5723,-2.5723,-2.5723,-2.5723,-2.5723,-2.514,-2.4832,-2.4813,-2.4145,-2.3636,-2.3411,0.0,0.0,0.0,0.0,0.0,0.0,0.0,0.0,0.0,0.0,0.0,0.0,0.0,0.0,0.0,-3.098,0.0,-3.1663,-3.2105,0.0,0.0,0.0,-3.0649,-2.9744,-2.9612,-2.9972,-3.0879,0.0,0.0,-3.2562,-3.2723,-3.2723,-3.2773,-3.2921,-3.3093,-3.3093,-3.3119,-3.3144,-3.3169,-3.3194,-3.3219,-3.3319,-3.3671,-3.4123,-3.4525,-3.4726,-3.4585,-3.4404,-3.4404,-3.4363,-3.4529,-3.4685,-3.4981,-3.5212,-3.5863,-3.6191,-3.5838,-3.5999,-3.6384,-3.6737,-3.6967,-3.7308,-2.4229,-2.421,-2.4016,-2.3736,-2.3388,-2.3388,-2.3369,-2.3388,-2.3369,-2.348,-2.348,-2.3388,-2.348,-2.348,-2.3388,-2.3388,-2.3388,-2.3687,-2.3817,-2.3929,-2.4098,-2.4229,-2.4229,-2.4229,-2.4404,-2.4714,-2.4733,-2.4908,-2.5218,-2.5431,-2.547,-2.547,-2.5276,-2.5295,-2.5373,-2.5373,-2.5528,-2.5625,-2.5645,-2.5723,-2.5723,-2.5723,-2.5723,-2.5723,-2.5723,-2.5723,-2.5723,-2.5548,-2.5489,-2.547,-2.4851,-2.443,-2.4336,-2.3653,0.0,0.0,0.0,0.0,0.0,0.0,0.0,0.0,0.0,-2.6416,-2.8045,0.0,-2.9965,0.0,-3.1798,-3.229,-3.2438,-3.2389,0.0,0.0,-3.2092,-3.1981,-3.1661,-3.1661,-3.1796,-3.2005,-3.2179,-3.2401,-3.2698,-3.2896,-3.3158,-3.3533,-3.3345,-3.3093,-3.3093,-3.3445,-3.3696,-3.3721,-3.4048,-3.4324,-3.4324,-3.4424,-3.4575,-3.47,-3.4751,-3.4726,-3.466,-3.4635,-3.4851,-3.5411,-3.5603,-3.5963,-3.6713,-3.7274,-3.761,-3.7891,-3.7517,-3.7075,-3.7331,-3.767,-3.8089,-2.5,-2.5,-2.5,-2.4811,-2.4602,-2.4217,-2.4044,-2.4044,-2.4044,-2.4044,-2.4044,-2.4044,-2.4044,-2.4044,-2.4044,-2.4044,-2.4063,-2.433,-2.452,-2.4539,-2.4828,-2.5,-2.5,-2.5,-2.5137,-2.5371,-2.5371,-2.5488,-2.5723,-2.5723,-2.5723,-2.5723,-2.5723,-2.5723,-2.5723,-2.5723,-2.5723,-2.5723,-2.5723,-2.5723,-2.5723,-2.5723,-2.5723,-2.5723,-2.5723,-2.5723,-2.5723,-2.5723,-2.5723,-2.5723,-2.5295,-2.5064,-2.4967,-2.4469,-2.403,0.0,0.0,0.0,0.0,0.0,0.0,0.0,0.0,0.0,0.0,0.0,-3.1089,-3.2141,-3.2549,-3.2723,-3.2896,-3.281,-3.2723,-3.2723,-3.2636,-3.2487,-3.24,-3.24,-3.2487,-3.255,-3.2636,-3.2823,-3.3221,-3.3333,-3.3646,-3.4198,-3.3997,-3.3796,-3.3822,-3.4098,-3.4274,-3.4274,-3.4525,-3.4826,-3.5027,-3.5077,-3.5177,-3.5403,-3.5454,-3.5454,-3.5454,-3.5454,-3.5646,-3.6084,-3.6345,-3.6724,-3.752,-3.7939,-3.8395,-3.8854,-3.8836,-3.8659,-3.8889,-3.9143,-3.9396,-2.5723,-2.5723,-2.5723,-2.5723,-2.5684,-2.4902,-2.459,-2.459,-2.459,-2.459,-2.459,-2.459,-2.459,-2.459,-2.457,-2.459,-2.4609,-2.498,-2.5156,-2.5176,-2.5566,-2.5723,-2.5723,-2.5723,-2.5723,-2.5723,-2.5723,-2.5723,-2.5723,-2.5723,-2.5723,-2.5723,-2.5723,-2.5723,-2.5723,-2.5723,-2.5723,-2.5723,-2.5723,-2.5723,-2.5742,-2.5781,-2.582,-2.582,-2.5879,-2.5898,-2.5898,-2.5898,-2.5898,-2.5898,-2.5898,-2.58,-2.5487,-2.5218,-2.5006,0.0,-2.5224,0.0,0.0,0.0,0.0,0.0,0.0,0.0,0.0,-3.1272,-3.1945,-3.3043,-3.3093,-3.3093,-3.3093,-3.3093,-3.2982,-3.281,-3.2798,-3.2823,-3.2586,-3.2635,-3.2772,-3.2922,-3.2922,-3.3208,-3.3834,-3.3997,-3.4223,-3.47,-3.4801,-3.4826,-3.4901,-3.4876,-3.4826,-3.4826,-3.4901,-3.5203,-3.5554,-3.5655,-3.5805,-3.6232,-3.6282,-3.6358,-3.6307,-3.6307,-3.6427,-3.6709,-3.6871,-3.7268,-3.7848,-3.8304,-3.8756,-3.9292,-3.9826,-4.0204,-4.0518,-4.0661,-4.0944,-2.5723,-2.5723,-2.5723,-2.5723,-2.5723,-2.5547,-2.5488,-2.5488,-2.5488,-2.5488,-2.5488,-2.5488,-2.5488,-2.5488,-2.5488,-2.5488,-2.5488,-2.5566,-2.5605,-2.5625,-2.5703,-2.5723,-2.5723,-2.5723,-2.5723,-2.5723,-2.5723,-2.5723,-2.5723,-2.5723,-2.5723,-2.5723,-2.5723,-2.5723,-2.5723,0.0,0.0,0.0,-2.5723,-2.5723,-2.5742,-2.6094,-2.6269,-2.6269,-2.6602,0.0,-2.6777,-2.6777,-2.6777,-2.6777,-2.6777,0.0,0.0,0.0,0.0,0.0,0.0,0.0,0.0,0.0,0.0,0.0,-3.0566,-3.0866,-3.1186,-3.2154,-3.2882,-3.3068,-3.3093,-3.3093,-3.3093,-3.3093,-3.3068,-3.3093,-3.3383,-3.3658,-3.3683,-3.3945,-3.4335,-3.431,-3.431,-3.4335,-3.4525,-3.4575,-3.4776,-3.5303,-3.5378,-3.5579,-3.5956,-3.5629,-3.5403,-3.5403,-3.5705,-3.6031,-3.6182,-3.6182,-3.6182,-3.6358,-3.6358,-3.6358,-3.6358,-3.6358,-3.6546,-3.6922,-3.7108,-3.7294,-3.8031,-3.8549,-3.8997,-3.9441,-4.017,-4.0602,-4.0688,-4.1114,-4.1619,-2.5723,0.0,-2.5723,-2.5723,0.0,-2.5723,-2.5723,-2.5723,-2.5723,-2.5723,-2.5723,-2.5723,-2.5723,-2.5723,-2.5723,-2.5723,-2.5723,-2.5723,-2.5723,-2.5723,-2.5723,-2.5723,-2.5723,-2.5723,-2.5723,-2.5723,-2.5723,-2.5723,-2.5723,-2.5723,-2.5723,-2.5742,-2.5957,-2.6055,-2.6074,-2.6269,-2.6269,-2.6055,-2.6055,-2.6152,-2.6367,-2.6582,-2.6699,-2.6699,-2.6894,0.0,0.0,0.0,0.0,0.0,0.0,0.0,0.0,-2.7298,0.0,-2.8006,-2.8507,-2.9098,-2.9667,-3.0392,-3.1038,-3.1529,-3.217,-3.2495,-3.225,-3.2972,-3.3596,-3.3847,-3.3897,-3.3897,-3.3897,-3.3872,-3.3897,-3.3897,-3.4148,-3.4324,-3.4324,-3.455,-3.4726,-3.4726,-3.4726,-3.4801,-3.5102,-3.5127,-3.5353,-3.5855,-3.5956,-3.6056,-3.6282,-3.6132,-3.5956,-3.5956,-3.6157,-3.6358,-3.6358,-3.6358,-3.6358,-3.6358,-3.6358,-3.6358,-3.6358,-3.6358,-3.6546,-3.7015,-3.7108,-3.7387,-3.8213,-3.8639,-3.9087,-3.9706,-4.0315,-4.0859,-4.1029,-4.1451,-4.1951,-2.5723,-2.5723,-2.5723,-2.5723,-2.5723,-2.5723,-2.5723,-2.5723,0.0,0.0,0.0,-2.5723,-2.5723,-2.5723,-2.5723,-2.5723,-2.5723,-2.5723,-2.5723,-2.5723,-2.5723,-2.5723,-2.5723,-2.5723,-2.5723,-2.5723,-2.5723,-2.5781,-2.5859,-2.5859,-2.5879,-2.5996,-2.6328,-2.6504,-2.6523,-2.6836,-2.6875,-2.6621,-2.6543,-2.666,-2.7012,-2.709,-2.7129,-2.7129,-2.7207,-2.7246,-2.7246,-2.7246,-2.7226,-2.7246,-2.7246,-2.7349,-2.7637,-2.7719,-2.8045,-2.8876,-2.9258,-2.9813,-3.0634,-3.1292,-3.2014,-3.2676,-3.3538,-3.3826,-3.3473,-3.3781,-3.4223,-3.47,-3.4726,-3.4726,-3.4726,-3.4726,-3.4726,-3.4726,-3.4801,-3.4876,-3.4876,-3.4977,-3.5077,-3.5027,-3.5077,-3.5177,-3.5629,-3.568,-3.583,-3.6232,-3.6307,-3.6358,-3.6358,-3.6332,-3.6307,-3.6332,-3.6332,-3.6358,-3.6358,-3.6358,-3.6358,-3.6358,-3.6358,-3.6358,-3.6358,-3.6358,-3.6546,-3.7015,-3.7108,-3.7479,-3.833,-3.8756,-3.9176,-3.9821,-4.0488,-4.1085,-4.1367,-4.1731,-4.2117,-2.5742,-2.5723,-2.5723,-2.5723,-2.5723,-2.5723,-2.5723,-2.5723,-2.5742,-2.5742,-2.5723,-2.5723,-2.5723,-2.5723,-2.5723,-2.5723,-2.5723,-2.5723,-2.5723,-2.5723,-2.5723,-2.5723,-2.5723,-2.5723,-2.5723,-2.5723,-2.5742,-2.5918,-2.6269,-2.6289,-2.6484,-2.6797,-2.6894,-2.6934,-2.6934,-2.6992,-2.7168,-2.7461,-2.7109,-2.6953,-2.7012,-2.7383,-2.7578,-2.7598,-2.791,-2.8105,-2.8105,-2.8105,-2.8105,-2.8105,-2.8125,-2.8212,-2.8549,-2.872,-2.9161,-2.9808,-3.0512,-3.0954,-3.1263,-3.2104,-3.2887,-3.3401,-3.3814,-3.4065,-3.4198,-3.4445,-3.4625,-3.4726,-3.4776,-3.4726,-3.4726,-3.4776,-3.4801,-3.4801,-3.5152,-3.5336,-3.5429,-3.5805,-3.6056,-3.6056,-3.6132,-3.6107,-3.6157,-3.6207,-3.6232,-3.6332,-3.6358,-3.6358,-3.6358,-3.6358,-3.6358,-3.6358,-3.6358,-3.6358,-3.6358,-3.6358,-3.6358,-3.6358,-3.6358,-3.6358,-3.6358,-3.6358,-3.6546,-3.7015,-3.7108,-3.7479,-3.8421,-3.8756,-3.9176,-3.9821,-4.0488,-4.1001,-4.1311,-4.1897,-4.2392,-2.5879,-2.6094,-2.6094,-2.623,-2.6426,-2.6426,-2.6426,-2.6426,-2.6426,-2.6152,-2.5742,-2.5723,-2.5859,-2.6094,-2.6094,-2.6211,-2.6426,-2.6426,-2.6426,-2.6426,-2.6426,-2.6426,-2.6426,-2.6426,-2.6426,-2.6426,-2.6426,-2.6543,-2.6699,-2.6738,-2.6836,-2.7012,-2.7246,-2.748,-2.7695,-2.7715,-2.7793,-2.7988,-2.7578,-2.748,-2.7695,-2.791,-2.8008,-2.8008,-2.8203,-2.8301,-2.8301,-2.8301,-2.8301,-2.8301,-2.8301,-2.8514,-2.894,-2.9026,-2.9448,-3.0412,-3.0931,-3.144,-3.1929,-3.2925,-3.3908,-3.46,-3.4789,-3.5071,-3.5444,-3.5236,-3.5303,-3.5579,-3.5604,-3.5604,-3.5604,-3.5604,-3.5604,-3.5604,-3.5855,-3.5981,-3.6006,-3.6182,-3.6358,-3.6358,-3.6358,-3.6358,-3.6358,-3.6358,-3.6358,-3.6358,-3.6358,-3.6358,-3.6358,-3.6358,-3.6358,-3.6358,-3.6358,-3.6358,-3.6358,-3.6358,-3.6358,-3.6358,-3.6358,-3.6358,-3.6358,-3.6383,-3.6572,-3.7015,-3.7134,-3.7479,-3.8239,-3.8639,-3.9087,-3.9618,-4.0315,-4.0859,-4.1396,-4.1897,-4.2474,-2.6211,-2.6523,-2.6543,-2.6719,-2.7012,-2.7012,-2.7012,-2.7012,-2.7012,-2.6641,-2.6074,-2.6035,-2.6211,-2.6504,-2.6523,-2.6699,-2.6973,-2.7012,-2.7012,-2.7012,-2.7012,-2.7012,-2.7012,-2.7012,-2.7012,-2.7012,-2.7012,-2.7051,-2.7148,-2.7148,-2.7207,-2.7324,-2.7637,-2.7969,-2.8281,-2.8301,-2.8301,-2.8281,-2.7969,-2.7969,-2.8281,-2.8301,-2.8301,-2.8301,-2.8301,-2.8301,-2.8301,-2.8301,-2.8301,-2.8301,-2.8301,-2.8495,-2.9026,-2.9132,-2.9554,-3.0724,-3.1116,-3.1732,-3.2745,-3.3668,-3.4555,-3.5524,-3.562,-3.5812,-3.6213,-3.5981,-3.5906,-3.6282,-3.6307,-3.6332,-3.6307,-3.6332,-3.6358,-3.6358,-3.6358,-3.6332,-3.6358,-3.6358,-3.6358,-3.6358,-3.6358,-3.6358,-3.6358,-3.6358,-3.6358,-3.6358,-3.6358,-3.6358,-3.6358,-3.6358,-3.6383,-3.6483,-3.6458,-3.6358,-3.6358,-3.6358,-3.6433,-3.6483,-3.6558,-3.6684,-3.6734,-3.6759,-3.695,-3.7381,-3.7544,-3.7852,-3.8358,-3.891,-3.9483,-3.9987,-4.0725,-4.128,-4.1938,-4.2447,-4.2767,-2.6914,-2.6953,-2.6953,-2.6973,-2.7051,-2.7031,-2.7051,-2.7051,-2.7012,-2.6992,-2.6914,-2.6894,-2.6914,-2.6953,-2.6953,-2.6992,-2.7051,-2.7012,-2.7031,-2.7051,-2.7012,-2.7012,-2.7051,-2.7051,-2.7012,-2.7051,-2.707,-2.7285,-2.7598,-2.7598,-2.7793,-2.8125,-2.8223,-2.8242,-2.8281,-2.8301,-2.8301,-2.8301,-2.8262,-2.8262,-2.8301,-2.8301,-2.8301,-2.8301,-2.8301,-2.8301,-2.8301,-2.8301,-2.8301,-2.8301,-2.8301,-2.8514,-2.9026,-2.9132,-2.9659,-3.0724,-3.1219,-3.224,-3.3767,-3.4064,-3.4555,-3.5428,-3.562,-3.5812,-3.6358,-3.6307,-3.6307,-3.6358,-3.6358,-3.6358,-3.6358,-3.6358,-3.6358,-3.6358,-3.6358,-3.6358,-3.6358,-3.6358,-3.6358,-3.6358,-3.6358,-3.6358,-3.6358,-3.6358,-3.6358,-3.6358,-3.6358,-3.6408,-3.6458,-3.6458,-3.6634,-3.6885,-3.6734,-3.6458,-3.6458,-3.6383,-3.6659,-3.7036,-3.7111,-3.7262,-3.7538,-3.7713,-3.7937,-3.7927,-3.8395,-3.8659,-3.919,-3.977,-4.0281,-4.0675,-4.1341,-4.2228,-4.3169,-4.3488,-4.3452,-2.7168,-2.7402,-2.7402,-2.7539,-2.7754,-2.7773,-2.7773,-2.7773,-2.7773,-2.7773,-2.7773,-2.7773,-2.7637,-2.7402,-2.7402,-2.7539,-2.7773,-2.7773,-2.7773,-2.7773,-2.7773,-2.7773,-2.7773,-2.7773,-2.7773,-2.7773,-2.7773,-2.7851,-2.8008,-2.8047,-2.8125,-2.8281,-2.8301,-2.8301,-2.8301,-2.8301,-2.8301,-2.8301,-2.8301,-2.8301,-2.8301,-2.8301,-2.8301,-2.8301,-2.8301,-2.8301,-2.8301,-2.8301,-2.8301,-2.8301,-2.8301,-2.8495,-2.9132,-2.9132,-2.9659,-3.0724,-3.1651,-3.2745,-3.3965,-3.4064,-3.4555,-3.5524,-3.562,-3.5812,-3.6358,-3.6358,-3.6358,-3.6358,-3.6358,-3.6358,-3.6358,-3.6358,-3.6358,-3.6358,-3.6358,-3.6358,-3.6358,-3.6358,-3.6358,-3.6358,-3.6358,-3.6358,-3.6358,-3.6358,-3.6358,-3.6358,-3.6383,-3.6508,-3.6784,-3.6835,-3.7086,-3.7487,-3.7462,-3.7362,-3.7312,-3.7337,-3.7437,-3.7588,-3.7663,-3.7814,-3.7939,-3.8015,-3.8088,-3.8336,-3.8681,-3.8974,-3.9232,-3.9764,-4.0239,-4.0857,-4.1755,-4.2542,-4.2899,-4.3341,-4.3459,-2.7539,-2.7812,-2.7832,-2.8008,-2.8281,-2.8301,-2.8301,-2.8301,-2.8301,-2.8301,-2.8301,-2.8301,-2.8125,-2.7871,-2.7832,-2.8008,-2.8262,-2.8301,-2.8301,-2.8301,-2.8301,-2.8301,-2.8301,-2.8301,-2.8301,-2.8301,-2.8281,-2.8281,-2.8301,-2.8301,-2.8301,-2.8301,-2.8301,-2.8301,-2.8301,-2.8301,-2.8301,-2.8301,-2.8301,-2.8301,-2.8301,-2.8301,-2.8301,-2.8301,-2.8301,-2.8301,-2.8301,-2.8301,-2.8301,-2.8301,-2.8301,-2.8514,-2.9026,-2.9132,-2.9659,-3.0827,-3.1936,-3.2946,-3.3866,-3.4064,-3.4555,-3.5428,-3.562,-3.5812,-3.6263,-3.6358,-3.6358,-3.6358,-3.6358,-3.6358,-3.6358,-3.6358,-3.6358,-3.6358,-3.6358,-3.6358,-3.6358,-3.6358,-3.6358,-3.6358,-3.6358,-3.6358,-3.6383,-3.6508,-3.6634,-3.6634,-3.6759,-3.691,-3.7287,-3.7412,-3.7613,-3.814,-3.8241,-3.814,-3.804,-3.7914,-3.804,-3.8216,-3.8241,-3.8316,-3.8391,-3.8467,-3.8492,-3.8995,-3.9041,-3.9312,-3.9788,-4.0076,-4.0499,-4.1194,-4.2038,-4.2775,-4.3216,-4.3556,-4.3884,-2.8262,-2.8262,-2.8262,-2.8262,-2.8301,-2.8301,-2.8301,-2.8301,-2.8301,-2.8301,-2.8301,-2.8301,-2.8281,-2.8242,-2.8223,-2.8262,-2.8301,-2.8301,-2.8301,-2.8301,-2.8301,-2.8301,-2.8301,-2.8301,-2.8301,-2.8301,-2.8301,-2.8301,-2.8301,-2.8301,-2.8301,-2.8301,-2.8301,-2.8301,-2.8301,-2.8301,-2.8301,-2.8301,-2.8301,-2.8301,-2.8301,-2.8301,-2.8301,-2.8301,-2.8301,-2.8301,-2.8301,-2.8301,-2.8301,-2.8301,-2.8301,-2.8495,-2.9026,-2.9132,-2.9764,-3.1013,-3.2037,-3.2846,-3.3545,-3.3965,-3.4555,-3.5428,-3.562,-3.5812,-3.6263,-3.6358,-3.6358,-3.6358,-3.6408,-3.6408,-3.6433,-3.6383,-3.6358,-3.6358,-3.6358,-3.6358,-3.6358,-3.6358,-3.6358,-3.6408,-3.6483,-3.6558,-3.6458,-3.681,-3.7086,-3.7236,-3.7563,-3.7889,-3.7939,-3.7965,-3.8241,-3.8642,-3.8793,-3.8668,-3.8165,-3.8266,-3.8442,-3.8617,-3.8868,-3.8944,-3.9346,-3.9622,-3.9546,-3.9624,-3.9677,-3.9981,-4.0337,-4.0867,-4.1459,-4.1994,-4.2424,-4.3026,-4.3398,-4.4079,-4.4394,-2.8301,-2.8301,-2.8301,-2.8301,-2.8301,-2.8301,-2.8301,-2.8301,-2.8301,-2.8301,-2.8301,-2.8301,-2.8301,-2.8301,-2.8301,-2.8301,-2.8301,-2.8301,-2.8301,-2.8301,-2.8301,-2.8301,-2.8301,-2.8301,-2.8301,-2.8301,-2.8301,-2.8301,-2.8301,-2.8301,-2.8301,-2.8301,-2.8301,-2.8301,-2.8301,-2.8301,-2.8301,-2.8301,-2.8301,-2.8301,-2.8301,-2.8301,-2.8301,-2.8301,-2.8301,-2.8301,-2.8301,-2.8301,-2.8301,-2.8301,-2.8301,-2.8495,-2.9132,-2.9764,-3.0495,-3.1116,-3.2037,-3.2846,-3.3545,-3.3965,-3.4457,-3.5235,-3.5524,-3.5741,-3.6098,-3.6263,-3.6358,-3.6433,-3.6709,-3.686,-3.681,-3.6584,-3.6358,-3.6358,-3.6383,-3.6408,-3.6358,-3.6383,-3.6483,-3.6835,-3.7161,-3.7412,-3.7362,-3.7588,-3.7688,-3.7713,-3.7889,-3.8165,-3.8492,-3.8542,-3.8743,-3.922,-3.9396,-3.932,-3.917,-3.9094,-3.9195,-3.927,-3.9421,-3.9421,-3.9647,-3.9697,-3.9622,-3.9699,-3.9878,-4.0083,-4.0338,-4.087,-4.1498,-4.1895,-4.2387,-4.29,-4.3355,-4.3832,-4.4303,-2.8301,-2.8301,-2.8301,-2.8301,-2.8301,-2.8301,-2.8301,-2.8301,-2.8301,-2.8301,-2.8301,-2.8301,-2.8301,-2.8301,-2.8301,-2.8301,-2.8301,-2.8301,-2.8301,-2.8301,-2.8301,-2.8301,-2.8301,-2.8301,-2.8301,-2.8301,-2.8301,-2.8301,-2.8301,-2.8301,-2.8301,-2.8301,-2.8301,-2.8301,-2.8301,-2.8301,-2.8301,-2.8301,-2.8301,-2.8301,-2.8301,-2.8301,-2.8301,-2.8301,-2.8301,-2.8301,-2.8301,-2.8301,-2.8301,-2.8301,-2.8418,-2.877,-2.9554,-3.0429,-3.1169,-3.1589,-3.2317,-3.3118,-3.3729,-3.4233,-3.4857,-3.5549,-3.5942,-3.6234,-3.6525,-3.6814,-3.691,-3.6985,-3.7186,-3.7437,-3.7387,-3.7111,-3.6885,-3.6885,-3.6885,-3.6885,-3.691,-3.691,-3.7086,-3.7412,-3.7713,-3.7939,-3.804,-3.8165,-3.8266,-3.8291,-3.8417,-3.8743,-3.9044,-3.9145,-3.922,-3.9597,-3.9647,-3.9647,-3.9521,-3.9471,-3.9471,-3.9546,-3.9572,-3.9672,-3.9697,-3.9697,-3.9697,-3.98,-3.98,-3.9981,-4.0287,-4.0795,-4.1198,-4.1498,-4.1993,-4.2387,-4.297,-4.3546,-4.4021,-2.8301,-2.8301,-2.8301,-2.8301,-2.8301,-2.8301,-2.8301,-2.8301,-2.8301,-2.8301,-2.8301,-2.8301,-2.8301,-2.8301,-2.8301,-2.8301,-2.8301,-2.8301,-2.8301,-2.8301,-2.8301,-2.8301,-2.8301,-2.8301,-2.8301,-2.8301,-2.8301,-2.8301,-2.8301,-2.8301,-2.8301,-2.8301,-2.8301,-2.8301,-2.8301,-2.8301,-2.8301,-2.8301,-2.8301,-2.8301,-2.8301,-2.832,-2.8359,-2.834,-2.8379,-2.8398,-2.8359,-2.834,-2.8379,-2.8418,-2.873,-2.947,-3.0299,-3.0908,-3.1496,-3.2083,-3.3005,-3.3643,-3.4275,-3.5062,-3.5608,-3.6218,-3.6844,-3.7146,-3.732,-3.7642,-3.7839,-3.7814,-3.7939,-3.8015,-3.8015,-3.8015,-3.7939,-3.7965,-3.7814,-3.7814,-3.7864,-3.7965,-3.799,-3.8015,-3.814,-3.8065,-3.8165,-3.8542,-3.8843,-3.8944,-3.922,-3.9496,-3.9546,-3.9546,-3.9647,-3.9672,-3.9697,-3.9697,-3.9697,-3.9697,-3.9697,-3.9697,-3.9672,-3.9697,-3.9697,-3.9697,-3.9697,-3.9697,-3.9697,-3.9903,-4.0083,-4.0593,-4.0896,-4.1198,-4.1597,-4.1993,-4.2582,-4.3163,-4.3642,-2.8301,-2.8301,-2.8301,-2.8301,-2.8301,-2.8301,-2.8301,-2.8301,-2.8301,-2.8301,-2.8301,-2.8301,-2.8301,-2.8301,-2.8301,-2.8301,-2.8301,-2.8301,-2.8301,-2.832,-2.8301,-2.8301,-2.8301,-2.8301,-2.8301,-2.8301,-2.8301,-2.8301,-2.8301,-2.832,-2.8301,-2.8301,-2.832,-2.8301,-2.832,-2.8301,-2.8301,-2.8301,-2.8301,-2.8301,-2.832,-2.8594,-2.873,-2.875,-2.9004,-2.918,-2.916,-2.8887,-2.8867,-2.9121,-2.9297,-2.9767,-3.046,-3.1031,-3.1558,-3.221,-3.3049,-3.371,-3.4343,-3.5074,-3.5821,-3.6207,-3.684,-3.7218,-3.7343,-3.7767,-3.804,-3.809,-3.8341,-3.8592,-3.8668,-3.8969,-3.8818,-3.809,-3.799,-3.8065,-3.814,-3.8391,-3.8567,-3.8642,-3.8919,-3.9145,-3.917,-3.9371,-3.9371,-3.9396,-3.9572,-3.9697,-3.9697,-3.9697,-3.9697,-3.9697,-3.9697,-3.9697,-3.9697,-3.9697,-3.9697,-3.9697,-3.9697,-3.9697,-3.9697,-3.9697,-3.9697,-3.9697,-3.9697,-3.98,-4.0083,-4.0287,-4.0593,-4.0896,-4.1298,-4.1796,-4.2289,-4.2776,-4.3259,-2.8535,-2.8535,-2.8711,-2.8769,-2.8769,-2.8769,-2.8769,-2.8769,-2.8769,-2.8769,-2.8769,-2.8769,-2.8769,-2.8769,-2.8769,-2.8769,-2.8769,-2.8769,-2.8769,-2.8691,-2.8379,-2.8301,-2.8301,-2.8301,-2.8301,-2.834,-2.8457,-2.8516,-2.8535,-2.8691,-2.8769,-2.8769,-2.8769,-2.8789,-2.8769,-2.8769,-2.8769,-2.8769,-2.8769,-2.8769,-2.8828,-2.9023,-2.916,-2.9199,-2.9434,-2.9629,-2.9746,-2.9531,-2.9434,-2.959,-2.9707,-3.0201,-3.0922,-3.132,-3.1857,-3.2611,-3.3378,-3.4051,-3.4696,-3.5594,-3.6156,-3.6469,-3.7297,-3.7833,-3.7935,-3.8315,-3.8642,-3.8718,-3.8969,-3.917,-3.9245,-3.9446,-3.932,-3.8743,-3.8668,-3.8617,-3.8693,-3.8944,-3.9145,-3.9245,-3.9471,-3.9647,-3.9697,-3.9697,-3.9697,-3.9697,-3.9697,-3.9697,-3.9697,-3.9697,-3.9697,-3.9697,-3.9697,-3.9697,-3.9697,-3.9697,-3.9697,-3.9697,-3.9697,-3.9697,-3.9697,-3.9697,-3.9697,-3.9697,-3.9697,-3.9697,-3.9878,-4.0083,-4.0262,-4.0694,-4.0997,-4.1398,-4.1895,-4.2387,-4.297,-2.8945,-2.9004,-2.9394,-2.9512,-2.9492,-2.9492,-2.9473,-2.9531,-2.9512,-2.9492,-2.9512,-2.9453,-2.9492,-2.9531,-2.9434,-2.9434,-2.9551,-2.9473,-2.9434,-2.9258,-2.8828,-2.8496,-2.8516,-2.8516,-2.8535,-2.8535,-2.8809,-2.8945,-2.8984,-2.9277,-2.957,-2.9473,-2.9434,-2.9531,-2.9434,-2.9531,-2.9473,-2.9434,-2.9492,-2.9492,-2.9492,-2.959,-2.9609,-2.9609,-2.9707,-2.9902,-3.0176,-3.0195,-3.0019,-2.9766,-3.0078,-3.0734,-3.1552,-3.1787,-3.226,-3.3374,-3.384,-3.4425,-3.5356,-3.6094,-3.6657,-3.7062,-3.7911,-3.8841,-3.8693,-3.9034,-3.9471,-3.9496,-3.9572,-3.9647,-3.9647,-3.9672,-3.9647,-3.9672,-3.9496,-3.9521,-3.9647,-3.9647,-3.9597,-3.9622,-3.9697,-3.9697,-3.9697,-3.9697,-3.9697,-3.9697,-3.9697,-3.9697,-3.9697,-3.9697,-3.9697,-3.9697,-3.9697,-3.9697,-3.9697,-3.9697,-3.9697,-3.9697,-3.9697,-3.9697,-3.9697,-3.9697,-3.9697,-3.9697,-3.9697,-3.9697,-3.9775,-3.9878,-4.0083,-4.0389,-4.0795,-4.1097,-4.1597,-4.2092,-4.2679,-2.9394,-2.9414,-2.9512,-2.957,-2.957,-2.957,-2.959,-2.957,-2.959,-2.9648,-2.959,-2.957,-2.9629,-2.959,-2.959,-2.957,-2.9629,-2.9609,-2.957,-2.9551,-2.9375,-2.9238,-2.9238,-2.9219,-2.9219,-2.9219,-2.9297,-2.9394,-2.9414,-2.957,-2.9629,-2.957,-2.9648,-2.9609,-2.957,-2.9629,-2.957,-2.957,-2.959,-2.9609,-2.9668,-2.9902,-3.0039,-3.0059,-3.0351,-3.0566,-3.0703,-3.0703,-3.0684,-3.0566,-3.0625,-3.109,-3.1652,-3.1787,-3.2363,-3.3388,-3.3861,-3.4423,-3.529,-3.6168,-3.6796,-3.712,-3.7998,-3.8631,-3.8841,-3.9154,-3.9465,-3.9594,-3.9697,-3.9697,-3.9697,-3.9697,-3.9697,-3.9697,-3.9697,-3.9697,-3.9697,-3.9697,-3.9697,-3.9697,-3.9697,-3.9697,-3.9697,-3.9697,-3.9697,-3.9697,-3.9697,-3.9697,-3.9697,-3.9697,-3.9697,-3.9697,-3.9697,-3.9697,-3.9697,-3.9697,-3.9697,-3.9697,-3.9697,-3.9697,-3.9697,-3.9697,-3.9697,-3.9697,-3.9697,-3.9697,-3.9697,-3.98,-3.9981,-4.0185,-4.0491,-4.0896,-4.1298,-4.1796,-4.2484,-2.9844,-2.9844,-3.0059,-3.0117,-3.0137,-3.0137,-3.0117,-3.0117,-3.0117,-3.0137,-3.0117,-3.0137,-3.0137,-3.0117,-3.0137,-3.0137,-3.0117,-3.0117,-3.0137,-3.0137,-3.0137,-2.9922,-2.9668,-2.957,-2.957,-2.9609,-2.9746,-2.9824,-2.9883,-3.0019,-3.0117,-3.0156,-3.0117,-3.0117,-3.0176,-3.0117,-3.0117,-3.0137,-3.0137,-3.0117,-3.0156,-3.0351,-3.0449,-3.0527,-3.0781,-3.0898,-3.0898,-3.0898,-3.0898,-3.0879,-3.0879,-3.1112,-3.1556,-3.1672,-3.2248,-3.3161,-3.3636,-3.4311,-3.5202,-3.595,-3.658,-3.712,-3.7761,-3.8421,-3.8736,-3.905,-3.9362,-3.9697,-3.9697,-3.9697,-3.9697,-3.9697,-3.9697,-3.9697,-3.9697,-3.9697,-3.9697,-3.9697,-3.9697,-3.9697,-3.9697,-3.9697,-3.9697,-3.9697,-3.9697,-3.9697,-3.9697,-3.9697,-3.9697,-3.9697,-3.9697,-3.9697,-3.9697,-3.9697,-3.9697,-3.9697,-3.9697,-3.9697,-3.9697,-3.9697,-3.9697,-3.9697,-3.9697,-3.9697,-3.9697,-3.9697,-3.9697,-3.9697,-3.9903,-4.0083,-4.0313,-4.0593,-4.1097,-4.1696,-4.2387,-3.0254,-3.0312,-3.0703,-3.0898,-3.0859,-3.0879,-3.0801,-3.0859,-3.0801,-3.082,-3.0801,-3.0859,-3.0762,-3.0898,-3.0723,-3.084,-3.084,-3.0742,-3.0801,-3.0781,-3.0723,-3.0449,-2.9902,-2.9883,-2.9863,-2.9883,-3.0137,-3.0234,-3.0332,-3.0664,-3.084,-3.0762,-3.0781,-3.0859,-3.0742,-3.0801,-3.0879,-3.0781,-3.0742,-3.0723,-3.0723,-3.0781,-3.0801,-3.082,-3.084,-3.0898,-3.0898,-3.0898,-3.0898,-3.0898,-3.0898,-3.1112,-3.1325,-3.1672,-3.2133,-3.2685,-3.3388,-3.4086,-3.4869,-3.5511,-3.6145,-3.6928,-3.7572,-3.821,-3.8736,-3.905,-3.9387,-3.9697,-3.9697,-3.9697,-3.9697,-3.9697,-3.9697,-3.9697,-3.9697,-3.9697,-3.9697,-3.9697,-3.9697,-3.9697,-3.9697,-3.9697,-3.9697,-3.9697,-3.9697,-3.9697,-3.9697,-3.9697,-3.9697,-3.9697,-3.9697,-3.9697,-3.9697,-3.9697,-3.9697,-3.9697,-3.9697,-3.9697,-3.9697,-3.9697,-3.9697,-3.9697,-3.9697,-3.9697,-3.9697,-3.9697,-3.9697,-3.98,-3.98,-3.9981,-4.0185,-4.0491,-4.0896,-4.1597,-4.2262,-3.0742,-3.0762,-3.0859,-3.0898,-3.0898,-3.0898,-3.0898,-3.0898,-3.0898,-3.0898,-3.0898,-3.0898,-3.0898,-3.0898,-3.0898,-3.0898,-3.0898,-3.0898,-3.0898,-3.0898,-3.0898,-3.082,-3.0586,-3.0547,-3.0566,-3.0586,-3.0664,-3.0723,-3.0781,-3.0801,-3.0898,-3.0898,-3.0898,-3.0898,-3.0898,-3.0898,-3.0898,-3.0898,-3.0898,-3.0898,-3.0898,-3.0898,-3.0898,-3.0898,-3.0898,-3.0898,-3.0898,-3.0898,-3.0898,-3.0898,-3.0898,-3.0995,-3.1325,-3.1556,-3.2018,-3.2571,-3.3275,-3.384,-3.4624,-3.54,-3.6036,-3.6712,-3.7358,-3.7998,-3.8736,-3.8841,-3.9154,-3.9594,-3.9697,-3.9697,-3.9697,-3.9697,-3.9697,-3.9697,-3.9697,-3.9697,-3.9697,-3.9697,-3.9697,-3.9697,-3.9697,-3.9697,-3.9697,-3.9697,-3.9697,-3.9697,-3.9697,-3.9697,-3.9697,-3.9697,-3.9697,-3.9697,-3.9697,-3.9697,-3.9697,-3.9697,-3.9697,-3.9697,-3.9697,-3.9697,-3.9697,-3.9697,-3.9697,-3.9697,-3.9697,-3.9697,-3.9697,-3.9697,-3.98,-4.0006,-4.0185,-4.0491,-4.0896,-4.1571,-4.2262,-3.0898,-3.0898,-3.0898,-3.0898,-3.0898,-3.0898,-3.0898,-3.0898,-3.0898,-3.0898,-3.0898,-3.0898,-3.0898,-3.0898,-3.0898,-3.0898,-3.0898,-3.0898,-3.0898,-3.0898,-3.0898,-3.0898,-3.0898,-3.0898,-3.0898,-3.0898,-3.0879,-3.0898,-3.0898,-3.0898,-3.0898,-3.0898,-3.0898,-3.0898,-3.0898,-3.0898,-3.0898,-3.0898,-3.0898,-3.0898,-3.0898,-3.0898,-3.0898,-3.0898,-3.0898,-3.0898,-3.0898,-3.0898,-3.0898,-3.0898,-3.0898,-3.1015,-3.1228,-3.1576,-3.1903,-3.2363,-3.3161,-3.3749,-3.4401,-3.5069,-3.584,-3.6495,-3.7036,-3.7679,-3.8315,-3.8631,-3.905,-3.9362,-3.9594,-3.9697,-3.9697,-3.9697,-3.9697,-3.9697,-3.9697,-3.9697,-3.9697,-3.9697,-3.9697,-3.9697,-3.9697,-3.9697,-3.9697,-3.9697,-3.9697,-3.9697,-3.9697,-3.9697,-3.9697,-3.9697,-3.9697,-3.9697,-3.9697,-3.9697,-3.9697,-3.9697,-3.9697,-3.9697,-3.9697,-3.9697,-3.9697,-3.9697,-3.9697,-3.9697,-3.9697,-3.9697,-3.9697,-3.9697,-3.98,-3.9981,-4.0185,-4.0491,-4.0896,-4.1571,-4.219,-3.0898,-3.0898,-3.0898,-3.0898,-3.0898,-3.0898,-3.0898,-3.0898,-3.0898,-3.0898,-3.0898,-3.0898,-3.0898,-3.0898,-3.0898,-3.0898,-3.0898,-3.0898,-3.0898,-3.0898,-3.0898,-3.0898,-3.0898,-3.0898,-3.0898,-3.0898,-3.0898,-3.0898,-3.0898,-3.0898,-3.0898,-3.0898,-3.0898,-3.0898,-3.0898,-3.0898,-3.0898,-3.0898,-3.0898,-3.0898,-3.0898,-3.0898,-3.0898,-3.0898,-3.0898,-3.0898,-3.0898,-3.0898,-3.0898,-3.0898,-3.0898,-3.0898,-3.1015,-3.1344,-3.1787,-3.1903,-3.282,-3.3501,-3.4086,-3.4869,-3.5643,-3.6168,-3.682,-3.7334,-3.7974,-3.8526,-3.8945,-3.9258,-3.949,-3.9697,-3.9697,-3.9697,-3.9697,-3.9697,-3.9697,-3.9697,-3.9697,-3.9697,-3.9697,-3.9697,-3.9697,-3.9697,-3.9697,-3.9697,-3.9697,-3.9697,-3.9697,-3.9697,-3.9697,-3.9697,-3.9697,-3.9697,-3.9697,-3.9697,-3.9697,-3.9697,-3.9697,-3.9697,-3.9697,-3.9697,-3.9697,-3.9697,-3.9697,-3.9697,-3.9697,-3.9697,-3.9697,-3.9697,-3.98,-4.0083,-4.0287,-4.0593,-4.0997,-4.1571,-4.219,-3.0898,-3.0898,-3.0898,-3.0898,-3.0898,-3.0898,-3.0898,-3.0898,-3.0898,-3.0898,-3.0898,-3.0898,-3.0898,-3.0898,-3.0898,-3.0898,-3.0898,-3.0898,-3.0898,-3.0898,-3.0898,-3.0898,-3.0898,-3.0898,-3.0898,-3.0898,-3.0898,-3.0898,-3.0898,-3.0898,-3.0898,-3.0898,-3.0898,-3.0898,-3.0898,-3.0898,-3.0898,-3.0898,-3.0898,-3.0898,-3.0898,-3.0898,-3.0898,-3.0898,-3.0898,-3.0898,-3.0898,-3.0898,-3.0898,-3.0898,-3.0898,-3.0898,-3.0995,-3.1228,-3.1556,-3.1903,-3.2457,-3.314,-3.3749,-3.4534,-3.529,-3.5927,-3.658,-3.7334,-3.7868,-3.8526,-3.8945,-3.9258,-3.9594,-3.9697,-3.9697,-3.9697,-3.9697,-3.9697,-3.9697,-3.9697,-3.9697,-3.9697,-3.9697,-3.9697,-3.9697,-3.9697,-3.9697,-3.9697,-3.9697,-3.9697,-3.9697,-3.9697,-3.9697,-3.9697,-3.9697,-3.9697,-3.9697,-3.9697,-3.9697,-3.9697,-3.9697,-3.9697,-3.9697,-3.9697,-3.9697,-3.9697,-3.9697,-3.9697,-3.9697,-3.9697,-3.9697,-3.9697,-3.9903,-4.0083,-4.0389,-4.0593,-4.1198,-4.1796,-4.236,-3.0898,-3.0898,-3.0898,-3.0898,-3.0898,-3.0898,-3.0898,-3.0898,-3.0898,-3.0898,-3.0898,-3.0898,-3.0898,-3.0898,-3.0898,-3.0898,-3.0898,-3.0898,-3.0898,-3.0898,-3.0898,-3.0898,-3.0898,-3.0898,-3.0898,-3.0898,-3.0898,-3.0898,-3.0898,-3.0898,-3.0898,-3.0898,-3.0898,-3.0898,-3.0898,-3.0898,-3.0898,-3.0898,-3.0898,-3.0898,-3.0898,-3.0898,-3.0898,-3.0898,-3.0898,-3.0898,-3.0898,-3.0898,-3.0898,-3.0898,-3.0898,-3.0898,-3.0898,-3.0995,-3.1344,-3.1787,-3.2342,-3.2913,-3.3501,-3.4311,-3.4958,-3.5621,-3.6386,-3.7012,-3.7548,-3.821,-3.8945,-3.9362,-3.9594,-3.9697,-3.9697,-3.9697,-3.9697,-3.9697,-3.9697,-3.9697,-3.9697,-3.9697,-3.9697,-3.9697,-3.9697,-3.9697,-3.9697,-3.9697,-3.9697,-3.9697,-3.9697,-3.9697,-3.9697,-3.9697,-3.9697,-3.9697,-3.9697,-3.9697,-3.9697,-3.9697,-3.9697,-3.9697,-3.9697,-3.9697,-3.9697,-3.9697,-3.9697,-3.9697,-3.9697,-3.9697,-3.9697,-3.9697,-4.0006,-4.0185,-4.0389,-4.0694,-4.1298,-4.1895,-4.2484,-3.0898,-3.0898,-3.0898,-3.0898,-3.0898,-3.0898,-3.0898,-3.0898,-3.0898,-3.0898,-3.0898,-3.0898,-3.0898,-3.0898,-3.0898,-3.0898,-3.0898,-3.0898,-3.0898,-3.0898,-3.0898,-3.0898,-3.0898,-3.0898,-3.0898,-3.0898,-3.0898,-3.0898,-3.0898,-3.0898,-3.0898,-3.0898,-3.0898,-3.0898,-3.0898,-3.0898,-3.0898,-3.0898,-3.0898,-3.0898,-3.0898,-3.0898,-3.0898,-3.0898,-3.0898,-3.0898,-3.0898,-3.0898,-3.0898,-3.0898,-3.0898,-3.0898,-3.0898,-3.0898,-3.1112,-3.1672,-3.2227,-3.282,-3.3388,-3.4086,-3.4646,-3.5312,-3.6168,-3.6688,-3.7334,-3.808,-3.905,-3.9465,-3.9697,-3.9697,-3.9697,-3.9697,-3.9697,-3.9697,-3.9697,-3.9697,-3.9697,-3.9697,-3.9697,-3.9697,-3.9697,-3.9697,-3.9697,-3.9697,-3.9697,-3.9697,-3.9697,-3.9697,-3.9697,-3.9697,-3.9697,-3.9697,-3.9697,-3.9697,-3.9697,-3.9697,-3.9697,-3.9697,-3.9697,-3.9697,-3.9697,-3.9697,-3.9697,-3.9697,-3.9697,-3.9697,-3.9697,-3.98,-4.0006,-4.0185,-4.0389,-4.0896,-4.1597,-4.2092,-4.2582,-3.0898,-3.0898,-3.0898,-3.0898,-3.0898,-3.0898,-3.0898,-3.0898,-3.0898,-3.0898,-3.0898,-3.0898,-3.0898,-3.0898,-3.0898,-3.0898,-3.0898,-3.0898,-3.0898,-3.0898,-3.0898,-3.0898,-3.0898,-3.0898,-3.0898,-3.0898,-3.0898,-3.0898,-3.0898,-3.0898,-3.0898,-3.0898,-3.0898,-3.0898,-3.0898,-3.0898,-3.0898,-3.0898,-3.0898,-3.0898,-3.0898,-3.0898,-3.0898,-3.0898,-3.0898,-3.0898,-3.0898,-3.0898,-3.0898,-3.0898,-3.0898,-3.0898,-3.0898,-3.0898,-3.1112,-3.1344,-3.1672,-3.2133,-3.2913,-3.3614,-3.4423,-3.5091,-3.584,-3.6472,-3.7334,-3.8104,-3.8945,-3.9258,-3.9569,-3.9697,-3.9697,-3.9697,-3.9697,-3.9697,-3.9697,-3.9697,-3.9697,-3.9697,-3.9697,-3.9697,-3.9697,-3.9697,-3.9697,-3.9697,-3.9697,-3.9697,-3.9697,-3.9697,-3.9697,-3.9697,-3.9697,-3.9697,-3.9697,-3.9697,-3.9697,-3.9697,-3.9697,-3.9697,-3.9697,-3.9697,-3.9697,-3.9697,-3.9697,-3.9697,-3.9697,-3.9697,-3.9697,-3.98,-4.0006,-4.0211,-4.0415,-4.1097,-4.1868,-4.2289,-4.2814,-3.0762,-3.0898,-3.0898,-3.0898,-3.0898,-3.0898,-3.0898,-3.0898,-3.0898,-3.0898,-3.0898,-3.0898,-3.0898,-3.0898,-3.0898,-3.0898,-3.0898,-3.0898,-3.0898,-3.0898,-3.0898,-3.0898,-3.0898,-3.0898,-3.0898,-3.0898,-3.0898,-3.0898,-3.0898,-3.0898,-3.0898,-3.0898,-3.0898,-3.0898,-3.0898,-3.0898,-3.0898,-3.0898,-3.0898,-3.0898,-3.0898,-3.0898,-3.0898,-3.0898,-3.0898,-3.0898,-3.0898,-3.0898,-3.0898,-3.0898,-3.0898,-3.0898,-3.0898,-3.0898,-3.1015,-3.1112,-3.1556,-3.2133,-3.2685,-3.3388,-3.4065,-3.4736,-3.5488,-3.6472,-3.7441,-3.8315,-3.8945,-3.9258,-3.9594,-3.9697,-3.9697,-3.9697,-3.9697,-3.9697,-3.9697,-3.9697,-3.9697,-3.9697,-3.9697,-3.9697,-3.9697,-3.9697,-3.9697,-3.9697,-3.9697,-3.9697,-3.9697,-3.9697,-3.9697,-3.9697,-3.9697,-3.9697,-3.9697,-3.9697,-3.9697,-3.9697,-3.9697,-3.9697,-3.9697,-3.9697,-3.9697,-3.9697,-3.9697,-3.9697,-3.9697,-3.9697,-3.9697,-3.98,-3.9903,-4.0211,-4.0517,-4.1276,-4.2054,-4.2869,-4.3525,-3.0509,-3.0762,-3.0898,-3.0898,-3.0898,-3.0898,-3.0898,-3.0898,-3.0898,-3.0898,-3.0898,-3.0898,-3.0898,-3.0898,-3.0898,-3.0898,-3.0898,-3.0898,-3.0898,-3.0898,-3.0898,-3.0898,-3.0898,-3.0898,-3.0898,-3.0898,-3.0898,-3.0898,-3.0898,-3.0898,-3.0898,-3.0898,-3.0898,-3.0898,-3.0898,-3.0898,-3.0898,-3.0898,-3.0898,-3.0898,-3.0898,-3.0898,-3.0898,-3.0898,-3.0898,-3.0898,-3.0898,-3.0898,-3.0898,-3.0898,-3.0898,-3.0898,-3.0898,-3.0898,-3.0898,-3.0995,-3.1441,-3.1903,-3.2477,-3.3161,-3.3749,-3.4513,-3.5488,-3.658,-3.7548,-3.8315,-3.8841,-3.9154,-3.949,-3.9697,-3.9697,-3.9697,-3.9697,-3.9697,-3.9697,-3.9697,-3.9697,-3.9697,-3.9697,-3.9697,-3.9697,-3.9697,-3.9697,-3.9697,-3.9697,-3.9697,-3.9697,-3.9697,-3.9697,-3.9697,-3.9697,-3.9697,-3.9697,-3.9697,-3.9697,-3.9697,-3.9697,-3.9697,-3.9697,-3.9697,-3.9697,-3.9697,-3.9697,-3.9697,-3.9722,-3.9697,-3.9697,-3.98,-3.9903,-4.0262,-4.0721,-4.1331,-4.2119,-4.3091,-4.431,-3.0157,-3.0509,-3.0762,-3.0898,-3.0898,-3.0898,-3.0898,-3.0898,-3.0898,-3.0898,-3.0898,-3.0898,-3.0898,-3.0898,-3.0898,-3.0898,-3.0898,-3.0898,-3.0898,-3.0898,-3.0898,-3.0898,-3.0898,-3.0898,-3.0898,-3.0898,-3.0898,-3.0898,-3.0898,-3.0898,-3.0898,-3.0898,-3.0898,-3.0898,-3.0898,-3.0898,-3.0898,-3.0898,-3.0898,-3.0898,-3.0898,-3.0898,-3.0898,-3.0898,-3.0898,-3.0898,-3.0898,-3.0898,-3.0898,-3.0898,-3.0898,-3.0898,-3.0898,-3.0898,-3.0898,-3.0995,-3.1228,-3.1672,-3.2133,-3.2934,-3.3614,-3.4513,-3.5511,-3.6712,-3.7227,-3.821,-3.8736,-3.8945,-3.9387,-3.9594,-3.9697,-3.9697,-3.9697,-3.9697,-3.9697,-3.9697,-3.9697,-3.9697,-3.9697,-3.9697,-3.9697,-3.9697,-3.9697,-3.9697,-3.9697,-3.9697,-3.9697,-3.9697,-3.9697,-3.9697,-3.9697,-3.9697,-3.9697,-3.9697,-3.9697,-3.9697,-3.9697,-3.9697,-3.9697,-3.9697,-3.9697,-3.9697,-3.9697,-3.9747,-3.9772,-3.9722,-3.9798,-4.0023,-4.0332,-4.0568,-4.1029,-4.1902,-4.3057,-4.4238,-4.5481,-2.9804,-3.0157,-3.0392,-3.0762,-3.0898,-3.0898,-3.0898,-3.0898,-3.0898,-3.0898,-3.0898,-3.0898,-3.0898,-3.0898,-3.0898,-3.0898,-3.0898,-3.0898,-3.0898,-3.0898,-3.0898,-3.0898,-3.0898,-3.0898,-3.0898,-3.0898,-3.0898,-3.0898,-3.0898,-3.0898,-3.0898,-3.0898,-3.0898,-3.0898,-3.0898,-3.0898,-3.0898,-3.0898,-3.0898,-3.0898,-3.0898,-3.0898,-3.0898,-3.0898,-3.0898,-3.0898,-3.0898,-3.0898,-3.0898,-3.0898,-3.0898,-3.0898,-3.0898,-3.0898,-3.0898,-3.0898,-3.1112,-3.1441,-3.1787,-3.2706,-3.3501,-3.4736,-3.573,-3.6603,-3.7012,-3.7998,-3.8526,-3.8841,-3.9154,-3.9465,-3.9697,-3.9697,-3.9697,-3.9697,-3.9697,-3.9697,-3.9697,-3.9697,-3.9697,-3.9697,-3.9697,-3.9697,-3.9697,-3.9697,-3.9697,-3.9697,-3.9697,-3.9697,-3.9697,-3.9697,-3.9697,-3.9697,-3.9697,-3.9697,-3.9697,-3.9697,-3.9697,-3.9697,-3.9697,-3.9697,-3.9697,-3.9697,-3.9722,-3.9772,-3.9998,-4.0149,-4.035,-4.0551,-4.0761,-4.1131,-4.1802,-4.2684,-4.3904,-4.5348,-4.6417,-2.9331,-2.9686,-3.0039,-3.0392,-3.0762,-3.0879,-3.0898,-3.0898,-3.0898,-3.0898,-3.0898,-3.0898,-3.0898,-3.0898,-3.0898,-3.0898,-3.0898,-3.0898,-3.0898,-3.0898,-3.0898,-3.0898,-3.0898,-3.0898,-3.0898,-3.0898,-3.0898,-3.0898,-3.0898,-3.0898,-3.0898,-3.0898,-3.0898,-3.0898,-3.0898,-3.0898,-3.0898,-3.0898,-3.0898,-3.0898,-3.0898,-3.0898,-3.0898,-3.0898,-3.0898,-3.0898,-3.0898,-3.0898,-3.0898,-3.0898,-3.0898,-3.0898,-3.0898,-3.0898,-3.0898,-3.1015,-3.1112,-3.1344,-3.1787,-3.2592,-3.3614,-3.4758,-3.5621,-3.6363,-3.712,-3.7785,-3.8421,-3.8841,-3.9154,-3.9362,-3.9697,-3.9697,-3.9697,-3.9697,-3.9697,-3.9697,-3.9697,-3.9697,-3.9697,-3.9697,-3.9697,-3.9697,-3.9697,-3.9697,-3.9697,-3.9697,-3.9697,-3.9697,-3.9697,-3.9697,-3.9697,-3.9697,-3.9697,-3.9697,-3.9697,-3.9697,-3.9697,-3.9697,-3.9697,-3.9697,-3.9697,-3.9772,-3.9923,-4.0099,-4.035,-4.0651,-4.0927,-4.1153,-4.1372,-4.1591,-4.2501,-4.3599,-4.4858,-4.6291,-4.7242,-2.8755,-2.9094,-2.9686,-3.0157,-3.0392,-3.0762,-3.0898,-3.0898,-3.0898,-3.0898,-3.0898,-3.0898,-3.0898,-3.0898,-3.0898,-3.0898,-3.0898,-3.0898,-3.0898,-3.0898,-3.0898,-3.0898,-3.0898,-3.0898,-3.0898,-3.0898,-3.0898,-3.0898,-3.0898,-3.0898,-3.0898,-3.0898,-3.0898,-3.0898,-3.0898,-3.0898,-3.0898,-3.0898,-3.0898,-3.0898,-3.0898,-3.0898,-3.0898,-3.0898,-3.0898,-3.0898,-3.0898,-3.0898,-3.0898,-3.0898,-3.0898,-3.0898,-3.0898,-3.0898,-3.0898,-3.0898,-3.0898,-3.1228,-3.1787,-3.2934,-3.3974,-3.4869,-3.5488,-3.6254,-3.7012,-3.7679,-3.8291,-3.8736,-3.905,-3.9362,-3.9594,-3.9697,-3.9697,-3.9697,-3.9697,-3.9697,-3.9697,-3.9697,-3.9697,-3.9697,-3.9697,-3.9697,-3.9697,-3.9697,-3.9697,-3.9697,-3.9697,-3.9697,-3.9697,-3.9697,-3.9697,-3.9697,-3.9697,-3.9697,-3.9697,-3.9697,-3.9697,-3.9697,-3.9772,-3.9873,-4.0049,-4.0249,-4.04,-4.0501,-4.0852,-4.1279,-4.153,-4.1756,-4.222,-4.2648,-4.3783,-4.4809,-4.5998,-4.6971,-4.7791,-2.8517,-2.8755,-2.9331,-2.9804,-3.0157,-3.0645,-3.0898,-3.0898,-3.0898,-3.0898,-3.0898,-3.0898,-3.0898,-3.0898,-3.0898,-3.0898,-3.0898,-3.0898,-3.0898,-3.0898,-3.0898,-3.0898,-3.0898,-3.0898,-3.0898,-3.0898,-3.0898,-3.0898,-3.0898,-3.0898,-3.0898,-3.0898,-3.0898,-3.0898,-3.0898,-3.0898,-3.0898,-3.0898,-3.0898,-3.0898,-3.0898,-3.0898,-3.0898,-3.0898,-3.0898,-3.0898,-3.0898,-3.0898,-3.0898,-3.0898,-3.0898,-3.0898,-3.0898,-3.0898,-3.0898,-3.0898,-3.0898,-3.1228,-3.1903,-3.282,-3.384,-3.4602,-3.5378,-3.6145,-3.7012,-3.7465,-3.8104,-3.8631,-3.8945,-3.9258,-3.9594,-3.9697,-3.9697,-3.9697,-3.9697,-3.9697,-3.9697,-3.9697,-3.9697,-3.9697,-3.9697,-3.9798,-3.9823,-4.0023,-4.0049,-3.9973,-3.9998,-3.9798,-3.9722,-3.9697,-3.9697,-3.9697,-3.9697,-3.9697,-3.9722,-3.9923,-3.9973,-3.9973,-4.0124,-4.03,-4.0501,-4.0727,-4.0927,-4.1078,-4.148,-4.1907,-4.2167,-4.2562,-4.3143,-4.3924,-4.4625,-4.5367,-4.6134,-4.7026,-4.7875,-2.8157,-2.8397,-2.9094,-2.945,-2.9804,-3.0411,-3.0762,-3.0898,-3.0898,-3.0898,-3.0898,-3.0898,-3.0898,-3.0898,-3.0898,-3.0898,-3.0898,-3.0898,-3.0898,-3.0898,-3.0898,-3.0898,-3.0898,-3.0898,-3.0898,-3.0898,-3.0898,-3.0898,-3.0898,-3.0898,-3.0898,-3.0898,-3.0898,-3.0898,-3.0898,-3.0898,-3.0898,-3.0898,-3.0898,-3.0898,-3.0898,-3.0898,-3.0898,-3.0898,-3.0898,-3.0898,-3.0898,-3.0898,-3.0898,-3.0898,-3.0898,-3.0898,-3.0898,-3.0898,-3.0898,-3.0898,-3.1228,-3.146,-3.2018,-3.2934,-3.384,-3.4491,-3.5268,-3.6036,-3.6928,-3.7251,-3.7998,-3.8421,-3.8736,-3.9154,-3.9594,-3.9697,-3.9697,-3.9697,-3.9747,-3.9747,-3.9747,-3.9747,-3.9923,-3.9898,-3.9998,-4.0049,-4.0149,-4.03,-4.0501,-4.04,-4.0325,-4.0074,-3.9848,-3.9848,-3.9873,-3.9873,-3.9973,-4.0074,-4.0199,-4.0375,-4.0375,-4.0275,-4.0501,-4.0802,-4.0978,-4.1229,-4.143,-4.1681,-4.2082,-4.2494,-4.2815,-4.3212,-4.3669,-4.4292,-4.4941,-4.5608,-4.6323,-4.7157,-4.8004,-2.7418,-2.802,-2.8737,-2.9213,-2.9568,-3.0157,-3.0626,-3.0898,-3.0898,-3.0898,-3.0898,-3.0898,-3.0898,-3.0898,-3.0898,-3.0898,-3.0898,-3.0898,-3.0898,-3.0898,-3.0898,-3.0898,-3.0898,-3.0898,-3.0898,-3.0898,-3.0898,-3.0898,-3.0898,-3.0898,-3.0898,-3.0898,-3.0898,-3.0898,-3.0898,-3.0898,-3.0898,-3.0898,-3.0898,-3.0898,-3.0898,-3.0898,-3.0898,-3.0898,-3.0898,-3.0898,-3.0898,-3.0898,-3.0898,-3.0898,-3.0898,-3.0898,-3.0898,-3.0898,-3.0898,-3.1015,-3.146,-3.1672,-3.2018,-3.2934,-3.384,-3.4491,-3.5179,-3.595,-3.6712,-3.7251,-3.7785,-3.8421,-3.8841,-3.9154,-3.9594,-3.9594,-3.9697,-3.9747,-3.9798,-3.9823,-3.9848,-3.9973,-4.0199,-4.035,-4.0501,-4.0626,-4.0877,-4.1053,-4.0953,-4.0902,-4.0777,-4.0601,-4.0375,-4.0199,-4.0199,-4.0224,-4.0325,-4.0526,-4.0676,-4.0827,-4.0852,-4.0752,-4.1103,-4.1404,-4.158,-4.1756,-4.2032,-4.2308,-4.266,-4.2947,-4.3254,-4.361,-4.4042,-4.4639,-4.5287,-4.5822,-4.6455,-4.7363,-4.8207,-2.7194,-2.7435,-2.8277,-2.8874,-2.9213,-3.0039,-3.0626,-3.0879,-3.0898,-3.0898,-3.0898,-3.0898,-3.0898,-3.0898,-3.0898,-3.0898,-3.0898,-3.0898,-3.0898,-3.0898,-3.0898,-3.0898,-3.0898,-3.0898,-3.0898,-3.0898,-3.0898,-3.0898,-3.0898,-3.0898,-3.0898,-3.0898,-3.0898,-3.0898,-3.0918,-3.0898,-3.0937,-3.0937,-3.0957,-3.0898,-3.0898,-3.0898,-3.0918,-3.0937,-3.0957,-3.0957,-3.0996,-3.0996,-3.0996,-3.0957,-3.0918,-3.0898,-3.0898,-3.0898,-3.0898,-3.0995,-3.146,-3.1787,-3.2018,-3.2934,-3.384,-3.4491,-3.5268,-3.6036,-3.6796,-3.7227,-3.7655,-3.8315,-3.8841,-3.9179,-3.959,-3.9848,-3.9898,-4.0023,-4.0124,-4.0275,-4.0325,-4.0501,-4.0752,-4.0978,-4.1128,-4.1304,-4.1555,-4.1505,-4.143,-4.1379,-4.1304,-4.1178,-4.0953,-4.0752,-4.0601,-4.0601,-4.0827,-4.1078,-4.1128,-4.1254,-4.1254,-4.1304,-4.1681,-4.1932,-4.2057,-4.2258,-4.261,-4.2785,-4.2886,-4.3295,-4.3653,-4.401,-4.4119,-4.4748,-4.5395,-4.6034,-4.6665,-4.7466,-4.828,-2.683,-2.7194,-2.7917,-2.8618,-2.9213,-2.9804,-3.0274,-3.0645,-3.0898,-3.0898,-3.0898,-3.0898,-3.0898,-3.0898,-3.0898,-3.0898,-3.0898,-3.0898,-3.0898,-3.0898,-3.0898,-3.0898,-3.0898,-3.0898,-3.0898,-3.0898,-3.0898,-3.0898,-3.0898,-3.0898,-3.0898,-3.0898,-3.0898,-3.1016,-3.1113,-3.1211,-3.1289,-3.125,-3.1152,-3.0957,-3.0918,-3.0937,-3.0976,-3.1133,-3.1133,-3.1211,-3.1348,-3.1348,-3.1367,-3.1387,-3.1387,-3.1406,-3.1348,-3.1289,-3.1113,-3.1191,-3.146,-3.1903,-3.2248,-3.3048,-3.384,-3.4624,-3.54,-3.6145,-3.6796,-3.7251,-3.7892,-3.8526,-3.8761,-3.9019,-3.9586,-4.0049,-4.0199,-4.035,-4.0601,-4.0827,-4.0978,-4.1153,-4.1379,-4.163,-4.1806,-4.1982,-4.2032,-4.1957,-4.2007,-4.2133,-4.2183,-4.2133,-4.1781,-4.1379,-4.1153,-4.1053,-4.1354,-4.1656,-4.1706,-4.1781,-4.1932,-4.2057,-4.2283,-4.2509,-4.2559,-4.261,-4.2811,-4.2886,-4.2961,-4.3321,-4.3789,-4.3899,-4.4119,-4.4856,-4.5609,-4.6139,-4.6769,-4.7568,-4.828,-2.6449,-2.7073,-2.7779,-2.8498,-2.9331,-2.945,-2.9804,-3.0392,-3.0645,-3.0879,-3.0898,-3.0898,-3.0898,-3.0898,-3.0898,-3.0898,-3.0898,-3.0898,-3.0898,-3.0898,-3.0898,-3.0898,-3.0898,-3.0898,-3.0898,-3.0898,-3.0898,-3.0898,-3.0898,-3.0976,-3.1055,-3.0957,-3.1074,-3.1269,-3.1543,-3.1582,-3.168,-3.1797,-3.1504,-3.1211,-3.1133,-3.1094,-3.1172,-3.1504,-3.1621,-3.1699,-3.1992,-3.2129,-3.2168,-3.2148,-3.2129,-3.207,-3.1934,-3.1777,-3.1505,-3.1681,-3.1876,-3.2342,-3.2922,-3.3633,-3.4367,-3.4977,-3.5623,-3.6553,-3.7325,-3.7726,-3.8345,-3.8973,-3.9259,-3.9798,-4.029,-4.0576,-4.0701,-4.0902,-4.1153,-4.1329,-4.1455,-4.1681,-4.1982,-4.2208,-4.2359,-4.2534,-4.2559,-4.2484,-4.2434,-4.2735,-4.2811,-4.276,-4.2559,-4.2032,-4.1831,-4.163,-4.1907,-4.2233,-4.2283,-4.2409,-4.2685,-4.2861,-4.2886,-4.2861,-4.2785,-4.2861,-4.2961,-4.2986,-4.2986,-4.3321,-4.3679,-4.3899,-4.4229,-4.518,-4.5822,-4.6245,-4.6846,-4.7671,-4.828,-2.5717,-2.6449,-2.7539,-2.8259,-2.8755,-2.9331,-2.9686,-3.0039,-3.0392,-3.0645,-3.0898,-3.0898,-3.0898,-3.0898,-3.0898,-3.0898,-3.0898,-3.0898,-3.0898,-3.0898,-3.0898,-3.0898,-3.0898,-3.0898,-3.0898,-3.0898,-3.0898,-3.0918,-3.0996,-3.1172,-3.1367,-3.1406,-3.1562,-3.1836,-3.1992,-3.2012,-3.2109,-3.2305,-3.2109,-3.1855,-3.1855,-3.1855,-3.1953,-3.2012,-3.2051,-3.207,-3.2246,-3.2226,-3.2187,-3.2168,-3.2168,-3.2148,-3.2148,-3.2051,-3.2214,-3.2336,-3.2574,-3.3008,-3.3713,-3.4276,-3.497,-3.5953,-3.6771,-3.7492,-3.809,-3.8333,-3.8779,-3.9414,-3.9964,-4.0557,-4.0971,-4.1021,-4.1254,-4.1505,-4.1706,-4.1831,-4.1957,-4.2258,-4.2559,-4.271,-4.2886,-4.2936,-4.2961,-4.2986,-4.2986,-4.2961,-4.2961,-4.2936,-4.2911,-4.261,-4.2534,-4.2409,-4.2559,-4.276,-4.2785,-4.2785,-4.2936,-4.2986,-4.2936,-4.2961,-4.2986,-4.2986,-4.2986,-4.2986,-4.3098,-4.3432,-4.3653,-4.3789,-4.4422,-4.5287,-4.5901,-4.6245,-4.7053,-4.7773,-4.838,-2.5349,-2.5839,-2.7056,-2.7917,-2.8517,-2.8874,-2.9331,-2.9686,-3.0039,-3.0392,-3.0645,-3.0762,-3.0898,-3.0898,-3.0898,-3.0898,-3.0898,-3.0898,-3.0898,-3.0898,-3.0898,-3.0898,-3.0898,-3.0898,-3.0898,-3.0898,-3.0918,-3.0957,-3.1152,-3.1348,-3.1543,-3.1797,-3.2109,-3.2285,-3.2402,-3.2461,-3.2539,-3.2734,-3.2676,-3.2676,-3.2598,-3.2441,-3.2344,-3.2344,-3.2461,-3.2519,-3.2695,-3.2715,-3.2734,-3.2734,-3.2773,-3.2598,-3.2559,-3.2461,-3.2568,-3.2774,-3.3055,-3.3455,-3.4331,-3.5061,-3.567,-3.6622,-3.7474,-3.8152,-3.8736,-3.9029,-3.9782,-4.04,-4.036,-4.0881,-4.1472,-4.1706,-4.1982,-4.2233,-4.2359,-4.2484,-4.2534,-4.266,-4.2811,-4.2861,-4.2961,-4.2961,-4.2986,-4.2986,-4.2986,-4.2986,-4.2986,-4.2986,-4.2986,-4.2986,-4.2986,-4.2986,-4.2986,-4.2986,-4.2911,-4.2911,-4.2961,-4.2986,-4.2986,-4.2986,-4.2986,-4.2986,-4.2986,-4.2986,-4.3098,-4.3321,-4.3568,-4.3789,-4.4422,-4.5395,-4.5795,-4.6218,-4.7053,-4.7959,-4.8578,-2.498,-2.5226,-2.6571,-2.7556,-2.8277,-2.8517,-2.8856,-2.945,-2.9804,-3.0157,-3.0392,-3.0762,-3.0898,-3.0898,-3.0898,-3.0898,-3.0898,-3.0898,-3.0898,-3.0898,-3.0898,-3.0898,-3.0898,-3.0898,-3.0898,-3.0937,-3.0996,-3.1211,-3.1445,-3.1719,-3.2012,-3.2207,-3.2363,-3.2519,-3.2773,-3.291,-3.3008,-3.3164,-3.3242,-3.332,-3.3086,-3.2754,-3.2715,-3.2793,-3.291,-3.3086,-3.3301,-3.3398,-3.3398,-3.3359,-3.3281,-3.3125,-3.2969,-3.2871,-3.3085,-3.3294,-3.3477,-3.4183,-3.496,-3.5618,-3.6282,-3.7054,-3.7999,-3.8704,-3.9226,-3.997,-4.0734,-4.1016,-4.1087,-4.138,-4.1948,-4.2308,-4.2585,-4.276,-4.2861,-4.2911,-4.2936,-4.2961,-4.2961,-4.2986,-4.2986,-4.2986,-4.2986,-4.2986,-4.2986,-4.2986,-4.2986,-4.2986,-4.2986,-4.2986,-4.2986,-4.2986,-4.2986,-4.2986,-4.2986,-4.2986,-4.2986,-4.2986,-4.2986,-4.2986,-4.2986,-4.2986,-4.2986,-4.2986,-4.3098,-4.3432,-4.3653,-4.3899,-4.4639,-4.5395,-4.5901,-4.6455,-4.7267,-4.807,-4.8963,-2.4363,-2.5226,-2.6587,-2.7194,-2.7435,-2.8157,-2.8755,-2.9094,-2.9686,-3.0039,-3.0392,-3.0762,-3.0898,-3.0898,-3.0898,-3.0898,-3.0898,-3.0898,-3.0898,-3.0898,-3.0898,-3.0898,-3.0898,-3.0898,-3.0898,-3.1016,-3.1191,-3.1445,-3.1797,-3.2246,-3.2559,-3.2676,-3.3047,-3.3164,-3.3203,-3.3301,-3.3301,-3.3418,-3.3418,-3.3418,-3.3418,-3.3223,-3.3262,-3.3281,-3.3301,-3.3359,-3.3418,-3.3418,-3.3418,-3.3418,-3.3418,-3.334,-3.3281,-3.3223,-3.35,-3.3773,-3.396,-3.4718,-3.5549,-3.6273,-3.6969,-3.7865,-3.8663,-3.9499,-4.0121,-4.0967,-4.1467,-4.1805,-4.1929,-4.2263,-4.271,-4.271,-4.2911,-4.2911,-4.2961,-4.2961,-4.2961,-4.2986,-4.2986,-4.2986,-4.2986,-4.2986,-4.2986,-4.2986,-4.2986,-4.2986,-4.2986,-4.2986,-4.2986,-4.2986,-4.2986,-4.2986,-4.2986,-4.2986,-4.2986,-4.2986,-4.2986,-4.2986,-4.2986,-4.2986,-4.2986,-4.2986,-4.2986,-4.2986,-4.3184,-4.3406,-4.3764,-4.4119,-4.4748,-4.5395,-4.6007,-4.656,-4.7398,-4.8397,-4.9376]}]]